<?xml version="1.0" encoding="UTF-8" standalone="no" ?>
<gpx xmlns="http://www.topografix.com/GPX/1/1" xmlns:xsi="http://www.w3.org/2001/XMLSchema-instance" xsi:schemaLocation="http://www.topografix.com/GPX/1/1 http://www.topografix.com/GPX/1/1/gpx.xsd" version="1.1" creator="VisuGPX - https://www.visugpx.com">
  <metadata>
    <name>Le Pilon du Roy</name>
    <desc><![CDATA[Au départ du quartier de Mordeau à Allauch , une rando par le vallon du Roy ]]></desc>
  </metadata>
  <trk>
    <name><![CDATA[ACTIVE LOG 005]]></name>
    <trkseg>
      <trkpt lat="43.36319" lon="5.49102">
        <ele>197.20751953125</ele>
        <time>2016-10-11T07:34:34Z</time>
      </trkpt>
      <trkpt lat="43.36317" lon="5.49076">
        <ele>178.94262695312</ele>
        <time>2016-10-11T07:35:42Z</time>
      </trkpt>
      <trkpt lat="43.3632" lon="5.49079">
        <ele>175.09729003906</ele>
        <time>2016-10-11T07:36:19Z</time>
      </trkpt>
      <trkpt lat="43.36321" lon="5.49074">
        <ele>177.98120117188</ele>
        <time>2016-10-11T07:36:35Z</time>
      </trkpt>
      <trkpt lat="43.36319" lon="5.49077">
        <ele>178.94262695312</ele>
        <time>2016-10-11T07:36:51Z</time>
      </trkpt>
      <trkpt lat="43.36322" lon="5.49078">
        <ele>178.4619140625</ele>
        <time>2016-10-11T07:37:20Z</time>
      </trkpt>
      <trkpt lat="43.36326" lon="5.49075">
        <ele>177.98120117188</ele>
        <time>2016-10-11T07:37:47Z</time>
      </trkpt>
      <trkpt lat="43.36329" lon="5.49078">
        <ele>177.98120117188</ele>
        <time>2016-10-11T07:38:03Z</time>
      </trkpt>
      <trkpt lat="43.36327" lon="5.49079">
        <ele>177.02001953125</ele>
        <time>2016-10-11T07:38:31Z</time>
      </trkpt>
      <trkpt lat="43.36326" lon="5.49072">
        <ele>177.02001953125</ele>
        <time>2016-10-11T07:38:40Z</time>
      </trkpt>
      <trkpt lat="43.36338" lon="5.4906">
        <ele>174.61657714844</ele>
        <time>2016-10-11T07:38:57Z</time>
      </trkpt>
      <trkpt lat="43.36348" lon="5.49043">
        <ele>177.50061035156</ele>
        <time>2016-10-11T07:39:14Z</time>
      </trkpt>
      <trkpt lat="43.3635" lon="5.49031">
        <ele>179.42321777344</ele>
        <time>2016-10-11T07:39:23Z</time>
      </trkpt>
      <trkpt lat="43.36339" lon="5.48997">
        <ele>184.22985839844</ele>
        <time>2016-10-11T07:39:45Z</time>
      </trkpt>
      <trkpt lat="43.36335" lon="5.48985">
        <ele>184.22985839844</ele>
        <time>2016-10-11T07:39:53Z</time>
      </trkpt>
      <trkpt lat="43.36326" lon="5.48964">
        <ele>186.15246582031</ele>
        <time>2016-10-11T07:40:08Z</time>
      </trkpt>
      <trkpt lat="43.36323" lon="5.48955">
        <ele>187.59436035156</ele>
        <time>2016-10-11T07:40:15Z</time>
      </trkpt>
      <trkpt lat="43.36322" lon="5.48951">
        <ele>188.55578613281</ele>
        <time>2016-10-11T07:40:17Z</time>
      </trkpt>
      <trkpt lat="43.36316" lon="5.48929">
        <ele>194.32373046875</ele>
        <time>2016-10-11T07:40:32Z</time>
      </trkpt>
      <trkpt lat="43.36313" lon="5.48921">
        <ele>197.20751953125</ele>
        <time>2016-10-11T07:40:38Z</time>
      </trkpt>
      <trkpt lat="43.36327" lon="5.48911">
        <ele>199.13012695312</ele>
        <time>2016-10-11T07:40:52Z</time>
      </trkpt>
      <trkpt lat="43.36338" lon="5.48909">
        <ele>203.45617675781</ele>
        <time>2016-10-11T07:41:03Z</time>
      </trkpt>
      <trkpt lat="43.36358" lon="5.48913">
        <ele>203.45617675781</ele>
        <time>2016-10-11T07:41:22Z</time>
      </trkpt>
      <trkpt lat="43.36381" lon="5.48913">
        <ele>202.01428222656</ele>
        <time>2016-10-11T07:41:38Z</time>
      </trkpt>
      <trkpt lat="43.36395" lon="5.48909">
        <ele>198.64953613281</ele>
        <time>2016-10-11T07:41:51Z</time>
      </trkpt>
      <trkpt lat="43.36415" lon="5.4891">
        <ele>195.765625</ele>
        <time>2016-10-11T07:42:07Z</time>
      </trkpt>
      <trkpt lat="43.36431" lon="5.4891">
        <ele>192.40112304688</ele>
        <time>2016-10-11T07:42:19Z</time>
      </trkpt>
      <trkpt lat="43.36449" lon="5.4891">
        <ele>194.32373046875</ele>
        <time>2016-10-11T07:42:35Z</time>
      </trkpt>
      <trkpt lat="43.36465" lon="5.48908">
        <ele>196.24633789062</ele>
        <time>2016-10-11T07:42:47Z</time>
      </trkpt>
      <trkpt lat="43.36483" lon="5.48907">
        <ele>196.24633789062</ele>
        <time>2016-10-11T07:42:58Z</time>
      </trkpt>
      <trkpt lat="43.36489" lon="5.48901">
        <ele>195.765625</ele>
        <time>2016-10-11T07:43:06Z</time>
      </trkpt>
      <trkpt lat="43.36497" lon="5.489">
        <ele>195.765625</ele>
        <time>2016-10-11T07:43:12Z</time>
      </trkpt>
      <trkpt lat="43.365" lon="5.48898">
        <ele>196.24633789062</ele>
        <time>2016-10-11T07:43:16Z</time>
      </trkpt>
      <trkpt lat="43.36502" lon="5.48896">
        <ele>196.24633789062</ele>
        <time>2016-10-11T07:43:18Z</time>
      </trkpt>
      <trkpt lat="43.36517" lon="5.48892">
        <ele>199.13012695312</ele>
        <time>2016-10-11T07:43:32Z</time>
      </trkpt>
      <trkpt lat="43.3652" lon="5.4889">
        <ele>200.572265625</ele>
        <time>2016-10-11T07:43:34Z</time>
      </trkpt>
      <trkpt lat="43.36527" lon="5.48892">
        <ele>201.05285644531</ele>
        <time>2016-10-11T07:43:38Z</time>
      </trkpt>
      <trkpt lat="43.3653" lon="5.48888">
        <ele>200.572265625</ele>
        <time>2016-10-11T07:43:41Z</time>
      </trkpt>
      <trkpt lat="43.36541" lon="5.48886">
        <ele>204.89807128906</ele>
        <time>2016-10-11T07:43:52Z</time>
      </trkpt>
      <trkpt lat="43.36554" lon="5.48877">
        <ele>203.93688964844</ele>
        <time>2016-10-11T07:44:02Z</time>
      </trkpt>
      <trkpt lat="43.36561" lon="5.48875">
        <ele>203.93688964844</ele>
        <time>2016-10-11T07:44:07Z</time>
      </trkpt>
      <trkpt lat="43.36578" lon="5.48863">
        <ele>206.82067871094</ele>
        <time>2016-10-11T07:44:22Z</time>
      </trkpt>
      <trkpt lat="43.36592" lon="5.48853">
        <ele>209.22412109375</ele>
        <time>2016-10-11T07:44:37Z</time>
      </trkpt>
      <trkpt lat="43.36604" lon="5.48846">
        <ele>210.18542480469</ele>
        <time>2016-10-11T07:44:52Z</time>
      </trkpt>
      <trkpt lat="43.36619" lon="5.48836">
        <ele>207.30139160156</ele>
        <time>2016-10-11T07:45:10Z</time>
      </trkpt>
      <trkpt lat="43.36627" lon="5.48825">
        <ele>206.82067871094</ele>
        <time>2016-10-11T07:45:24Z</time>
      </trkpt>
      <trkpt lat="43.3663" lon="5.48824">
        <ele>204.89807128906</ele>
        <time>2016-10-11T07:45:42Z</time>
      </trkpt>
      <trkpt lat="43.36632" lon="5.48814">
        <ele>202.97546386719</ele>
        <time>2016-10-11T07:45:58Z</time>
      </trkpt>
      <trkpt lat="43.36636" lon="5.48806">
        <ele>203.45617675781</ele>
        <time>2016-10-11T07:46:19Z</time>
      </trkpt>
      <trkpt lat="43.36636" lon="5.48803">
        <ele>204.41748046875</ele>
        <time>2016-10-11T07:46:43Z</time>
      </trkpt>
      <trkpt lat="43.36643" lon="5.4879">
        <ele>205.85949707031</ele>
        <time>2016-10-11T07:47:22Z</time>
      </trkpt>
      <trkpt lat="43.36648" lon="5.48785">
        <ele>204.89807128906</ele>
        <time>2016-10-11T07:47:27Z</time>
      </trkpt>
      <trkpt lat="43.36664" lon="5.48775">
        <ele>204.41748046875</ele>
        <time>2016-10-11T07:47:40Z</time>
      </trkpt>
      <trkpt lat="43.36677" lon="5.48761">
        <ele>205.37878417969</ele>
        <time>2016-10-11T07:47:53Z</time>
      </trkpt>
      <trkpt lat="43.36678" lon="5.48754">
        <ele>205.85949707031</ele>
        <time>2016-10-11T07:47:57Z</time>
      </trkpt>
      <trkpt lat="43.36679" lon="5.48751">
        <ele>206.34008789062</ele>
        <time>2016-10-11T07:47:59Z</time>
      </trkpt>
      <trkpt lat="43.36682" lon="5.48746">
        <ele>206.34008789062</ele>
        <time>2016-10-11T07:48:03Z</time>
      </trkpt>
      <trkpt lat="43.36685" lon="5.48738">
        <ele>207.30139160156</ele>
        <time>2016-10-11T07:48:09Z</time>
      </trkpt>
      <trkpt lat="43.367" lon="5.48727">
        <ele>205.37878417969</ele>
        <time>2016-10-11T07:48:22Z</time>
      </trkpt>
      <trkpt lat="43.367" lon="5.48726">
        <ele>205.85949707031</ele>
        <time>2016-10-11T07:48:23Z</time>
      </trkpt>
      <trkpt lat="43.36706" lon="5.4871">
        <ele>210.666015625</ele>
        <time>2016-10-11T07:48:37Z</time>
      </trkpt>
      <trkpt lat="43.36708" lon="5.48707">
        <ele>211.62744140625</ele>
        <time>2016-10-11T07:48:39Z</time>
      </trkpt>
      <trkpt lat="43.36709" lon="5.48702">
        <ele>213.0693359375</ele>
        <time>2016-10-11T07:48:43Z</time>
      </trkpt>
      <trkpt lat="43.36712" lon="5.48695">
        <ele>215.47265625</ele>
        <time>2016-10-11T07:48:49Z</time>
      </trkpt>
      <trkpt lat="43.36716" lon="5.48681">
        <ele>214.99194335938</ele>
        <time>2016-10-11T07:48:59Z</time>
      </trkpt>
      <trkpt lat="43.36719" lon="5.48671">
        <ele>215.95324707031</ele>
        <time>2016-10-11T07:49:06Z</time>
      </trkpt>
      <trkpt lat="43.36723" lon="5.48665">
        <ele>216.91467285156</ele>
        <time>2016-10-11T07:49:11Z</time>
      </trkpt>
      <trkpt lat="43.36727" lon="5.4865">
        <ele>216.91467285156</ele>
        <time>2016-10-11T07:49:21Z</time>
      </trkpt>
      <trkpt lat="43.36732" lon="5.4863">
        <ele>217.8759765625</ele>
        <time>2016-10-11T07:49:34Z</time>
      </trkpt>
      <trkpt lat="43.36745" lon="5.48613">
        <ele>220.75988769531</ele>
        <time>2016-10-11T07:49:49Z</time>
      </trkpt>
      <trkpt lat="43.36752" lon="5.48607">
        <ele>222.20178222656</ele>
        <time>2016-10-11T07:49:57Z</time>
      </trkpt>
      <trkpt lat="43.36751" lon="5.48602">
        <ele>224.12451171875</ele>
        <time>2016-10-11T07:50:02Z</time>
      </trkpt>
      <trkpt lat="43.36756" lon="5.48594">
        <ele>226.04711914062</ele>
        <time>2016-10-11T07:50:11Z</time>
      </trkpt>
      <trkpt lat="43.36756" lon="5.48589">
        <ele>226.52783203125</ele>
        <time>2016-10-11T07:50:14Z</time>
      </trkpt>
      <trkpt lat="43.36758" lon="5.48584">
        <ele>227.48913574219</ele>
        <time>2016-10-11T07:50:18Z</time>
      </trkpt>
      <trkpt lat="43.36782" lon="5.48582">
        <ele>225.0859375</ele>
        <time>2016-10-11T07:50:32Z</time>
      </trkpt>
      <trkpt lat="43.36792" lon="5.48581">
        <ele>222.20178222656</ele>
        <time>2016-10-11T07:50:41Z</time>
      </trkpt>
      <trkpt lat="43.36802" lon="5.48582">
        <ele>220.75988769531</ele>
        <time>2016-10-11T07:50:50Z</time>
      </trkpt>
      <trkpt lat="43.36814" lon="5.48587">
        <ele>213.0693359375</ele>
        <time>2016-10-11T07:51:01Z</time>
      </trkpt>
      <trkpt lat="43.36819" lon="5.4859">
        <ele>210.18542480469</ele>
        <time>2016-10-11T07:51:06Z</time>
      </trkpt>
      <trkpt lat="43.36823" lon="5.48592">
        <ele>209.22412109375</ele>
        <time>2016-10-11T07:51:09Z</time>
      </trkpt>
      <trkpt lat="43.36839" lon="5.48611">
        <ele>206.82067871094</ele>
        <time>2016-10-11T07:51:29Z</time>
      </trkpt>
      <trkpt lat="43.36839" lon="5.48612">
        <ele>206.82067871094</ele>
        <time>2016-10-11T07:51:30Z</time>
      </trkpt>
      <trkpt lat="43.36852" lon="5.48617">
        <ele>207.78210449219</ele>
        <time>2016-10-11T07:51:38Z</time>
      </trkpt>
      <trkpt lat="43.36856" lon="5.4862">
        <ele>208.74340820312</ele>
        <time>2016-10-11T07:51:42Z</time>
      </trkpt>
      <trkpt lat="43.36871" lon="5.48626">
        <ele>209.22412109375</ele>
        <time>2016-10-11T07:51:55Z</time>
      </trkpt>
      <trkpt lat="43.36886" lon="5.48622">
        <ele>212.10803222656</ele>
        <time>2016-10-11T07:52:08Z</time>
      </trkpt>
      <trkpt lat="43.36895" lon="5.48615">
        <ele>214.03063964844</ele>
        <time>2016-10-11T07:52:20Z</time>
      </trkpt>
      <trkpt lat="43.36898" lon="5.48614">
        <ele>214.03063964844</ele>
        <time>2016-10-11T07:52:23Z</time>
      </trkpt>
      <trkpt lat="43.36912" lon="5.4862">
        <ele>209.22412109375</ele>
        <time>2016-10-11T07:52:38Z</time>
      </trkpt>
      <trkpt lat="43.36913" lon="5.48621">
        <ele>208.26281738281</ele>
        <time>2016-10-11T07:52:39Z</time>
      </trkpt>
      <trkpt lat="43.36922" lon="5.48651">
        <ele>209.22412109375</ele>
        <time>2016-10-11T07:52:59Z</time>
      </trkpt>
      <trkpt lat="43.36925" lon="5.48684">
        <ele>205.37878417969</ele>
        <time>2016-10-11T07:53:18Z</time>
      </trkpt>
      <trkpt lat="43.36924" lon="5.48706">
        <ele>203.45617675781</ele>
        <time>2016-10-11T07:53:31Z</time>
      </trkpt>
      <trkpt lat="43.36944" lon="5.48732">
        <ele>205.85949707031</ele>
        <time>2016-10-11T07:53:55Z</time>
      </trkpt>
      <trkpt lat="43.36964" lon="5.48746">
        <ele>208.26281738281</ele>
        <time>2016-10-11T07:54:16Z</time>
      </trkpt>
      <trkpt lat="43.36981" lon="5.48741">
        <ele>207.30139160156</ele>
        <time>2016-10-11T07:54:35Z</time>
      </trkpt>
      <trkpt lat="43.36991" lon="5.48735">
        <ele>207.30139160156</ele>
        <time>2016-10-11T07:54:40Z</time>
      </trkpt>
      <trkpt lat="43.37005" lon="5.48723">
        <ele>203.45617675781</ele>
        <time>2016-10-11T07:54:56Z</time>
      </trkpt>
      <trkpt lat="43.37017" lon="5.48726">
        <ele>205.37878417969</ele>
        <time>2016-10-11T07:55:10Z</time>
      </trkpt>
      <trkpt lat="43.37017" lon="5.48727">
        <ele>205.85949707031</ele>
        <time>2016-10-11T07:55:11Z</time>
      </trkpt>
      <trkpt lat="43.37027" lon="5.48746">
        <ele>207.78210449219</ele>
        <time>2016-10-11T07:55:25Z</time>
      </trkpt>
      <trkpt lat="43.37028" lon="5.48751">
        <ele>208.26281738281</ele>
        <time>2016-10-11T07:55:28Z</time>
      </trkpt>
      <trkpt lat="43.37044" lon="5.48761">
        <ele>209.22412109375</ele>
        <time>2016-10-11T07:55:44Z</time>
      </trkpt>
      <trkpt lat="43.37056" lon="5.48755">
        <ele>209.22412109375</ele>
        <time>2016-10-11T07:55:56Z</time>
      </trkpt>
      <trkpt lat="43.3706" lon="5.48752">
        <ele>209.22412109375</ele>
        <time>2016-10-11T07:55:59Z</time>
      </trkpt>
      <trkpt lat="43.37082" lon="5.48741">
        <ele>212.10803222656</ele>
        <time>2016-10-11T07:56:16Z</time>
      </trkpt>
      <trkpt lat="43.37094" lon="5.48738">
        <ele>215.95324707031</ele>
        <time>2016-10-11T07:56:29Z</time>
      </trkpt>
      <trkpt lat="43.37097" lon="5.48737">
        <ele>216.91467285156</ele>
        <time>2016-10-11T07:56:31Z</time>
      </trkpt>
      <trkpt lat="43.37115" lon="5.48742">
        <ele>222.68249511719</ele>
        <time>2016-10-11T07:56:48Z</time>
      </trkpt>
      <trkpt lat="43.37116" lon="5.48743">
        <ele>222.68249511719</ele>
        <time>2016-10-11T07:56:49Z</time>
      </trkpt>
      <trkpt lat="43.37119" lon="5.48746">
        <ele>224.60522460938</ele>
        <time>2016-10-11T07:56:53Z</time>
      </trkpt>
      <trkpt lat="43.37128" lon="5.48768">
        <ele>221.72119140625</ele>
        <time>2016-10-11T07:57:09Z</time>
      </trkpt>
      <trkpt lat="43.37133" lon="5.48788">
        <ele>221.24060058594</ele>
        <time>2016-10-11T07:57:20Z</time>
      </trkpt>
      <trkpt lat="43.3714" lon="5.488">
        <ele>222.20178222656</ele>
        <time>2016-10-11T07:57:29Z</time>
      </trkpt>
      <trkpt lat="43.37143" lon="5.48805">
        <ele>223.16320800781</ele>
        <time>2016-10-11T07:57:33Z</time>
      </trkpt>
      <trkpt lat="43.37147" lon="5.48808">
        <ele>223.64379882812</ele>
        <time>2016-10-11T07:57:36Z</time>
      </trkpt>
      <trkpt lat="43.37161" lon="5.48812">
        <ele>227.9697265625</ele>
        <time>2016-10-11T07:57:51Z</time>
      </trkpt>
      <trkpt lat="43.3717" lon="5.48807">
        <ele>230.373046875</ele>
        <time>2016-10-11T07:58:02Z</time>
      </trkpt>
      <trkpt lat="43.37175" lon="5.48801">
        <ele>233.25708007812</ele>
        <time>2016-10-11T07:58:08Z</time>
      </trkpt>
      <trkpt lat="43.37181" lon="5.48797">
        <ele>235.66027832031</ele>
        <time>2016-10-11T07:58:13Z</time>
      </trkpt>
      <trkpt lat="43.37188" lon="5.48791">
        <ele>237.10229492188</ele>
        <time>2016-10-11T07:58:22Z</time>
      </trkpt>
      <trkpt lat="43.37201" lon="5.48788">
        <ele>240.46704101562</ele>
        <time>2016-10-11T07:58:32Z</time>
      </trkpt>
      <trkpt lat="43.37224" lon="5.4878">
        <ele>243.83154296875</ele>
        <time>2016-10-11T07:58:52Z</time>
      </trkpt>
      <trkpt lat="43.37225" lon="5.48779">
        <ele>244.31225585938</ele>
        <time>2016-10-11T07:58:53Z</time>
      </trkpt>
      <trkpt lat="43.3723" lon="5.48775">
        <ele>246.71545410156</ele>
        <time>2016-10-11T07:58:58Z</time>
      </trkpt>
      <trkpt lat="43.37236" lon="5.48764">
        <ele>251.52209472656</ele>
        <time>2016-10-11T07:59:06Z</time>
      </trkpt>
      <trkpt lat="43.3724" lon="5.48759">
        <ele>254.40600585938</ele>
        <time>2016-10-11T07:59:09Z</time>
      </trkpt>
      <trkpt lat="43.37241" lon="5.48757">
        <ele>255.36730957031</ele>
        <time>2016-10-11T07:59:11Z</time>
      </trkpt>
      <trkpt lat="43.37243" lon="5.48751">
        <ele>259.21264648438</ele>
        <time>2016-10-11T07:59:16Z</time>
      </trkpt>
      <trkpt lat="43.37256" lon="5.48754">
        <ele>251.04138183594</ele>
        <time>2016-10-11T07:59:22Z</time>
      </trkpt>
      <trkpt lat="43.37259" lon="5.48751">
        <ele>248.15759277344</ele>
        <time>2016-10-11T07:59:26Z</time>
      </trkpt>
      <trkpt lat="43.37264" lon="5.48745">
        <ele>249.11877441406</ele>
        <time>2016-10-11T07:59:31Z</time>
      </trkpt>
      <trkpt lat="43.37268" lon="5.48737">
        <ele>248.63818359375</ele>
        <time>2016-10-11T07:59:37Z</time>
      </trkpt>
      <trkpt lat="43.37271" lon="5.48735">
        <ele>249.11877441406</ele>
        <time>2016-10-11T07:59:41Z</time>
      </trkpt>
      <trkpt lat="43.37278" lon="5.48733">
        <ele>246.71545410156</ele>
        <time>2016-10-11T07:59:47Z</time>
      </trkpt>
      <trkpt lat="43.37295" lon="5.48726">
        <ele>250.08020019531</ele>
        <time>2016-10-11T08:00:04Z</time>
      </trkpt>
      <trkpt lat="43.37298" lon="5.48725">
        <ele>251.52209472656</ele>
        <time>2016-10-11T08:00:08Z</time>
      </trkpt>
      <trkpt lat="43.37306" lon="5.48727">
        <ele>253.44470214844</ele>
        <time>2016-10-11T08:00:15Z</time>
      </trkpt>
      <trkpt lat="43.3732" lon="5.48733">
        <ele>254.88659667969</ele>
        <time>2016-10-11T08:00:28Z</time>
      </trkpt>
      <trkpt lat="43.37331" lon="5.48732">
        <ele>260.17395019531</ele>
        <time>2016-10-11T08:00:42Z</time>
      </trkpt>
      <trkpt lat="43.37343" lon="5.48724">
        <ele>263.05786132812</ele>
        <time>2016-10-11T08:00:55Z</time>
      </trkpt>
      <trkpt lat="43.37351" lon="5.48717">
        <ele>262.09655761719</ele>
        <time>2016-10-11T08:01:02Z</time>
      </trkpt>
      <trkpt lat="43.37361" lon="5.48715">
        <ele>265.46130371094</ele>
        <time>2016-10-11T08:01:10Z</time>
      </trkpt>
      <trkpt lat="43.37379" lon="5.48704">
        <ele>268.82580566406</ele>
        <time>2016-10-11T08:01:26Z</time>
      </trkpt>
      <trkpt lat="43.37383" lon="5.48701">
        <ele>269.787109375</ele>
        <time>2016-10-11T08:01:29Z</time>
      </trkpt>
      <trkpt lat="43.37386" lon="5.48696">
        <ele>271.70971679688</ele>
        <time>2016-10-11T08:01:32Z</time>
      </trkpt>
      <trkpt lat="43.37398" lon="5.48688">
        <ele>278.91967773438</ele>
        <time>2016-10-11T08:01:45Z</time>
      </trkpt>
      <trkpt lat="43.37399" lon="5.48687">
        <ele>279.880859375</ele>
        <time>2016-10-11T08:01:47Z</time>
      </trkpt>
      <trkpt lat="43.37401" lon="5.48686">
        <ele>280.36169433594</ele>
        <time>2016-10-11T08:01:49Z</time>
      </trkpt>
      <trkpt lat="43.37402" lon="5.48684">
        <ele>281.80358886719</ele>
        <time>2016-10-11T08:01:51Z</time>
      </trkpt>
      <trkpt lat="43.37405" lon="5.48683">
        <ele>283.24560546875</ele>
        <time>2016-10-11T08:01:54Z</time>
      </trkpt>
      <trkpt lat="43.37416" lon="5.48691">
        <ele>273.15185546875</ele>
        <time>2016-10-11T08:01:57Z</time>
      </trkpt>
      <trkpt lat="43.3743" lon="5.48693">
        <ele>262.09655761719</ele>
        <time>2016-10-11T08:02:06Z</time>
      </trkpt>
      <trkpt lat="43.37448" lon="5.48696">
        <ele>252.96398925781</ele>
        <time>2016-10-11T08:02:19Z</time>
      </trkpt>
      <trkpt lat="43.37458" lon="5.487">
        <ele>246.71545410156</ele>
        <time>2016-10-11T08:02:28Z</time>
      </trkpt>
      <trkpt lat="43.37469" lon="5.48705">
        <ele>241.90893554688</ele>
        <time>2016-10-11T08:02:40Z</time>
      </trkpt>
      <trkpt lat="43.37475" lon="5.48703">
        <ele>241.90893554688</ele>
        <time>2016-10-11T08:02:46Z</time>
      </trkpt>
      <trkpt lat="43.37482" lon="5.48693">
        <ele>242.3896484375</ele>
        <time>2016-10-11T08:02:55Z</time>
      </trkpt>
      <trkpt lat="43.37486" lon="5.48691">
        <ele>242.87023925781</ele>
        <time>2016-10-11T08:02:58Z</time>
      </trkpt>
      <trkpt lat="43.37495" lon="5.48678">
        <ele>247.19604492188</ele>
        <time>2016-10-11T08:03:12Z</time>
      </trkpt>
      <trkpt lat="43.37502" lon="5.48666">
        <ele>248.15759277344</ele>
        <time>2016-10-11T08:03:21Z</time>
      </trkpt>
      <trkpt lat="43.37503" lon="5.48664">
        <ele>248.63818359375</ele>
        <time>2016-10-11T08:03:23Z</time>
      </trkpt>
      <trkpt lat="43.37508" lon="5.4865">
        <ele>252.96398925781</ele>
        <time>2016-10-11T08:03:35Z</time>
      </trkpt>
      <trkpt lat="43.37518" lon="5.48633">
        <ele>256.80932617188</ele>
        <time>2016-10-11T08:03:51Z</time>
      </trkpt>
      <trkpt lat="43.37521" lon="5.4863">
        <ele>258.73193359375</ele>
        <time>2016-10-11T08:03:57Z</time>
      </trkpt>
      <trkpt lat="43.37532" lon="5.48618">
        <ele>261.13525390625</ele>
        <time>2016-10-11T08:04:11Z</time>
      </trkpt>
      <trkpt lat="43.3754" lon="5.48619">
        <ele>268.82580566406</ele>
        <time>2016-10-11T08:04:28Z</time>
      </trkpt>
      <trkpt lat="43.37543" lon="5.48616">
        <ele>269.787109375</ele>
        <time>2016-10-11T08:04:37Z</time>
      </trkpt>
      <trkpt lat="43.37535" lon="5.48618">
        <ele>269.787109375</ele>
        <time>2016-10-11T08:04:39Z</time>
      </trkpt>
      <trkpt lat="43.37538" lon="5.48622">
        <ele>259.693359375</ele>
        <time>2016-10-11T08:04:51Z</time>
      </trkpt>
      <trkpt lat="43.37538" lon="5.48621">
        <ele>259.693359375</ele>
        <time>2016-10-11T08:05:15Z</time>
      </trkpt>
      <trkpt lat="43.37538" lon="5.48618">
        <ele>259.693359375</ele>
        <time>2016-10-11T08:05:17Z</time>
      </trkpt>
      <trkpt lat="43.37544" lon="5.48611">
        <ele>258.25134277344</ele>
        <time>2016-10-11T08:05:21Z</time>
      </trkpt>
      <trkpt lat="43.37557" lon="5.48594">
        <ele>254.88659667969</ele>
        <time>2016-10-11T08:05:34Z</time>
      </trkpt>
      <trkpt lat="43.37562" lon="5.48596">
        <ele>255.36730957031</ele>
        <time>2016-10-11T08:05:38Z</time>
      </trkpt>
      <trkpt lat="43.3757" lon="5.48593">
        <ele>255.84802246094</ele>
        <time>2016-10-11T08:05:44Z</time>
      </trkpt>
      <trkpt lat="43.37573" lon="5.48583">
        <ele>255.84802246094</ele>
        <time>2016-10-11T08:05:51Z</time>
      </trkpt>
      <trkpt lat="43.37578" lon="5.48579">
        <ele>256.32873535156</ele>
        <time>2016-10-11T08:05:55Z</time>
      </trkpt>
      <trkpt lat="43.37587" lon="5.48571">
        <ele>254.88659667969</ele>
        <time>2016-10-11T08:06:09Z</time>
      </trkpt>
      <trkpt lat="43.37587" lon="5.48563">
        <ele>254.88659667969</ele>
        <time>2016-10-11T08:06:21Z</time>
      </trkpt>
      <trkpt lat="43.37588" lon="5.48555">
        <ele>255.84802246094</ele>
        <time>2016-10-11T08:06:34Z</time>
      </trkpt>
      <trkpt lat="43.37591" lon="5.4855">
        <ele>254.88659667969</ele>
        <time>2016-10-11T08:06:50Z</time>
      </trkpt>
      <trkpt lat="43.37592" lon="5.48542">
        <ele>254.40600585938</ele>
        <time>2016-10-11T08:07:06Z</time>
      </trkpt>
      <trkpt lat="43.37597" lon="5.48536">
        <ele>253.44470214844</ele>
        <time>2016-10-11T08:07:20Z</time>
      </trkpt>
      <trkpt lat="43.37602" lon="5.48524">
        <ele>252.96398925781</ele>
        <time>2016-10-11T08:07:37Z</time>
      </trkpt>
      <trkpt lat="43.37613" lon="5.48519">
        <ele>253.44470214844</ele>
        <time>2016-10-11T08:08:03Z</time>
      </trkpt>
      <trkpt lat="43.37615" lon="5.48514">
        <ele>252.4833984375</ele>
        <time>2016-10-11T08:08:19Z</time>
      </trkpt>
      <trkpt lat="43.37618" lon="5.48507">
        <ele>255.84802246094</ele>
        <time>2016-10-11T08:08:39Z</time>
      </trkpt>
      <trkpt lat="43.37618" lon="5.485">
        <ele>261.13525390625</ele>
        <time>2016-10-11T08:08:58Z</time>
      </trkpt>
      <trkpt lat="43.37617" lon="5.48488">
        <ele>267.38391113281</ele>
        <time>2016-10-11T08:09:24Z</time>
      </trkpt>
      <trkpt lat="43.37618" lon="5.48485">
        <ele>272.67114257812</ele>
        <time>2016-10-11T08:09:47Z</time>
      </trkpt>
      <trkpt lat="43.37619" lon="5.48484">
        <ele>274.11303710938</ele>
        <time>2016-10-11T08:10:02Z</time>
      </trkpt>
      <trkpt lat="43.37621" lon="5.48486">
        <ele>276.9970703125</ele>
        <time>2016-10-11T08:10:16Z</time>
      </trkpt>
      <trkpt lat="43.37624" lon="5.48483">
        <ele>277.95825195312</ele>
        <time>2016-10-11T08:10:30Z</time>
      </trkpt>
      <trkpt lat="43.37628" lon="5.48479">
        <ele>279.40026855469</ele>
        <time>2016-10-11T08:10:44Z</time>
      </trkpt>
      <trkpt lat="43.37631" lon="5.4848">
        <ele>281.32299804688</ele>
        <time>2016-10-11T08:10:56Z</time>
      </trkpt>
      <trkpt lat="43.37633" lon="5.48472">
        <ele>283.72619628906</ele>
        <time>2016-10-11T08:11:12Z</time>
      </trkpt>
      <trkpt lat="43.37634" lon="5.48468">
        <ele>284.68762207031</ele>
        <time>2016-10-11T08:11:25Z</time>
      </trkpt>
      <trkpt lat="43.37634" lon="5.48462">
        <ele>285.64880371094</ele>
        <time>2016-10-11T08:11:39Z</time>
      </trkpt>
      <trkpt lat="43.37637" lon="5.48452">
        <ele>289.01354980469</ele>
        <time>2016-10-11T08:11:57Z</time>
      </trkpt>
      <trkpt lat="43.37637" lon="5.48439">
        <ele>290.45556640625</ele>
        <time>2016-10-11T08:12:12Z</time>
      </trkpt>
      <trkpt lat="43.37639" lon="5.48424">
        <ele>292.85876464844</ele>
        <time>2016-10-11T08:12:29Z</time>
      </trkpt>
      <trkpt lat="43.37639" lon="5.48416">
        <ele>291.41674804688</ele>
        <time>2016-10-11T08:12:54Z</time>
      </trkpt>
      <trkpt lat="43.3764" lon="5.48405">
        <ele>294.30078125</ele>
        <time>2016-10-11T08:13:08Z</time>
      </trkpt>
      <trkpt lat="43.37633" lon="5.48392">
        <ele>296.22351074219</ele>
        <time>2016-10-11T08:13:21Z</time>
      </trkpt>
      <trkpt lat="43.37623" lon="5.48377">
        <ele>299.10729980469</ele>
        <time>2016-10-11T08:13:37Z</time>
      </trkpt>
      <trkpt lat="43.37619" lon="5.48365">
        <ele>301.99133300781</ele>
        <time>2016-10-11T08:13:53Z</time>
      </trkpt>
      <trkpt lat="43.37612" lon="5.48355">
        <ele>305.35595703125</ele>
        <time>2016-10-11T08:14:08Z</time>
      </trkpt>
      <trkpt lat="43.37605" lon="5.48344">
        <ele>307.27856445312</ele>
        <time>2016-10-11T08:14:19Z</time>
      </trkpt>
      <trkpt lat="43.37602" lon="5.48328">
        <ele>309.201171875</ele>
        <time>2016-10-11T08:14:36Z</time>
      </trkpt>
      <trkpt lat="43.37603" lon="5.48314">
        <ele>309.201171875</ele>
        <time>2016-10-11T08:14:49Z</time>
      </trkpt>
      <trkpt lat="43.37601" lon="5.48301">
        <ele>312.56579589844</ele>
        <time>2016-10-11T08:15:04Z</time>
      </trkpt>
      <trkpt lat="43.37596" lon="5.48285">
        <ele>316.89172363281</ele>
        <time>2016-10-11T08:15:20Z</time>
      </trkpt>
      <trkpt lat="43.376" lon="5.48277">
        <ele>318.81433105469</ele>
        <time>2016-10-11T08:15:29Z</time>
      </trkpt>
      <trkpt lat="43.3761" lon="5.48271">
        <ele>317.85302734375</ele>
        <time>2016-10-11T08:15:44Z</time>
      </trkpt>
      <trkpt lat="43.37624" lon="5.48276">
        <ele>321.2177734375</ele>
        <time>2016-10-11T08:16:04Z</time>
      </trkpt>
      <trkpt lat="43.37631" lon="5.48279">
        <ele>322.65966796875</ele>
        <time>2016-10-11T08:16:17Z</time>
      </trkpt>
      <trkpt lat="43.37642" lon="5.48275">
        <ele>326.02416992188</ele>
        <time>2016-10-11T08:16:32Z</time>
      </trkpt>
      <trkpt lat="43.37642" lon="5.4826">
        <ele>329.38891601562</ele>
        <time>2016-10-11T08:16:43Z</time>
      </trkpt>
      <trkpt lat="43.37643" lon="5.48241">
        <ele>333.23413085938</ele>
        <time>2016-10-11T08:17:01Z</time>
      </trkpt>
      <trkpt lat="43.37642" lon="5.48236">
        <ele>333.71472167969</ele>
        <time>2016-10-11T08:17:05Z</time>
      </trkpt>
      <trkpt lat="43.37643" lon="5.48224">
        <ele>332.27282714844</ele>
        <time>2016-10-11T08:17:14Z</time>
      </trkpt>
      <trkpt lat="43.37643" lon="5.48201">
        <ele>332.27282714844</ele>
        <time>2016-10-11T08:17:33Z</time>
      </trkpt>
      <trkpt lat="43.37647" lon="5.48182">
        <ele>334.67614746094</ele>
        <time>2016-10-11T08:17:51Z</time>
      </trkpt>
      <trkpt lat="43.37649" lon="5.48179">
        <ele>334.19543457031</ele>
        <time>2016-10-11T08:18:09Z</time>
      </trkpt>
      <trkpt lat="43.3765" lon="5.48176">
        <ele>334.19543457031</ele>
        <time>2016-10-11T08:18:12Z</time>
      </trkpt>
      <trkpt lat="43.37655" lon="5.48178">
        <ele>333.71472167969</ele>
        <time>2016-10-11T08:18:16Z</time>
      </trkpt>
      <trkpt lat="43.3767" lon="5.48188">
        <ele>332.75354003906</ele>
        <time>2016-10-11T08:18:33Z</time>
      </trkpt>
      <trkpt lat="43.37685" lon="5.48201">
        <ele>330.83093261719</ele>
        <time>2016-10-11T08:18:50Z</time>
      </trkpt>
      <trkpt lat="43.37702" lon="5.48213">
        <ele>329.38891601562</ele>
        <time>2016-10-11T08:19:06Z</time>
      </trkpt>
      <trkpt lat="43.37723" lon="5.48226">
        <ele>329.86950683594</ele>
        <time>2016-10-11T08:19:26Z</time>
      </trkpt>
      <trkpt lat="43.37732" lon="5.48233">
        <ele>329.38891601562</ele>
        <time>2016-10-11T08:19:37Z</time>
      </trkpt>
      <trkpt lat="43.37753" lon="5.48242">
        <ele>329.86950683594</ele>
        <time>2016-10-11T08:19:58Z</time>
      </trkpt>
      <trkpt lat="43.37761" lon="5.48247">
        <ele>327.94677734375</ele>
        <time>2016-10-11T08:20:08Z</time>
      </trkpt>
      <trkpt lat="43.37776" lon="5.4826">
        <ele>328.90832519531</ele>
        <time>2016-10-11T08:20:25Z</time>
      </trkpt>
      <trkpt lat="43.37788" lon="5.48268">
        <ele>328.90832519531</ele>
        <time>2016-10-11T08:20:35Z</time>
      </trkpt>
      <trkpt lat="43.37794" lon="5.48267">
        <ele>327.94677734375</ele>
        <time>2016-10-11T08:20:42Z</time>
      </trkpt>
      <trkpt lat="43.37813" lon="5.48258">
        <ele>327.46618652344</ele>
        <time>2016-10-11T08:20:59Z</time>
      </trkpt>
      <trkpt lat="43.37817" lon="5.48256">
        <ele>326.98559570312</ele>
        <time>2016-10-11T08:21:03Z</time>
      </trkpt>
      <trkpt lat="43.37821" lon="5.48251">
        <ele>326.5048828125</ele>
        <time>2016-10-11T08:21:08Z</time>
      </trkpt>
      <trkpt lat="43.37833" lon="5.48246">
        <ele>327.46618652344</ele>
        <time>2016-10-11T08:21:23Z</time>
      </trkpt>
      <trkpt lat="43.37846" lon="5.48238">
        <ele>324.58227539062</ele>
        <time>2016-10-11T08:21:38Z</time>
      </trkpt>
      <trkpt lat="43.37861" lon="5.48235">
        <ele>323.62097167969</ele>
        <time>2016-10-11T08:21:53Z</time>
      </trkpt>
      <trkpt lat="43.37865" lon="5.48238">
        <ele>323.14038085938</ele>
        <time>2016-10-11T08:21:57Z</time>
      </trkpt>
      <trkpt lat="43.37879" lon="5.48235">
        <ele>320.25634765625</ele>
        <time>2016-10-11T08:22:14Z</time>
      </trkpt>
      <trkpt lat="43.37893" lon="5.48229">
        <ele>320.25634765625</ele>
        <time>2016-10-11T08:22:31Z</time>
      </trkpt>
      <trkpt lat="43.379" lon="5.48232">
        <ele>325.06298828125</ele>
        <time>2016-10-11T08:22:45Z</time>
      </trkpt>
      <trkpt lat="43.37903" lon="5.48233">
        <ele>325.54357910156</ele>
        <time>2016-10-11T08:23:17Z</time>
      </trkpt>
      <trkpt lat="43.37907" lon="5.48236">
        <ele>327.94677734375</ele>
        <time>2016-10-11T08:23:41Z</time>
      </trkpt>
      <trkpt lat="43.37912" lon="5.48227">
        <ele>328.42761230469</ele>
        <time>2016-10-11T08:23:56Z</time>
      </trkpt>
      <trkpt lat="43.37913" lon="5.48224">
        <ele>329.38891601562</ele>
        <time>2016-10-11T08:24:06Z</time>
      </trkpt>
      <trkpt lat="43.37913" lon="5.4821">
        <ele>330.35021972656</ele>
        <time>2016-10-11T08:24:15Z</time>
      </trkpt>
      <trkpt lat="43.37914" lon="5.48205">
        <ele>330.83093261719</ele>
        <time>2016-10-11T08:24:19Z</time>
      </trkpt>
      <trkpt lat="43.37915" lon="5.48191">
        <ele>331.3115234375</ele>
        <time>2016-10-11T08:24:29Z</time>
      </trkpt>
      <trkpt lat="43.37919" lon="5.48165">
        <ele>330.83093261719</ele>
        <time>2016-10-11T08:24:48Z</time>
      </trkpt>
      <trkpt lat="43.3792" lon="5.4815">
        <ele>332.27282714844</ele>
        <time>2016-10-11T08:24:58Z</time>
      </trkpt>
      <trkpt lat="43.37927" lon="5.48132">
        <ele>331.79211425781</ele>
        <time>2016-10-11T08:25:10Z</time>
      </trkpt>
      <trkpt lat="43.37938" lon="5.48106">
        <ele>331.79211425781</ele>
        <time>2016-10-11T08:25:30Z</time>
      </trkpt>
      <trkpt lat="43.37954" lon="5.48086">
        <ele>333.71472167969</ele>
        <time>2016-10-11T08:25:49Z</time>
      </trkpt>
      <trkpt lat="43.37968" lon="5.4807">
        <ele>333.23413085938</ele>
        <time>2016-10-11T08:26:05Z</time>
      </trkpt>
      <trkpt lat="43.37987" lon="5.48065">
        <ele>333.71472167969</ele>
        <time>2016-10-11T08:26:22Z</time>
      </trkpt>
      <trkpt lat="43.38005" lon="5.48065">
        <ele>334.19543457031</ele>
        <time>2016-10-11T08:26:39Z</time>
      </trkpt>
      <trkpt lat="43.38008" lon="5.48065">
        <ele>334.67614746094</ele>
        <time>2016-10-11T08:26:41Z</time>
      </trkpt>
      <trkpt lat="43.38012" lon="5.48068">
        <ele>335.63732910156</ele>
        <time>2016-10-11T08:26:51Z</time>
      </trkpt>
      <trkpt lat="43.38035" lon="5.48069">
        <ele>337.56005859375</ele>
        <time>2016-10-11T08:27:10Z</time>
      </trkpt>
      <trkpt lat="43.38052" lon="5.48071">
        <ele>337.56005859375</ele>
        <time>2016-10-11T08:27:25Z</time>
      </trkpt>
      <trkpt lat="43.38071" lon="5.48072">
        <ele>337.56005859375</ele>
        <time>2016-10-11T08:27:44Z</time>
      </trkpt>
      <trkpt lat="43.38089" lon="5.48072">
        <ele>339.48266601562</ele>
        <time>2016-10-11T08:28:00Z</time>
      </trkpt>
      <trkpt lat="43.38101" lon="5.4807">
        <ele>339.00207519531</ele>
        <time>2016-10-11T08:28:11Z</time>
      </trkpt>
      <trkpt lat="43.38105" lon="5.48069">
        <ele>339.00207519531</ele>
        <time>2016-10-11T08:28:14Z</time>
      </trkpt>
      <trkpt lat="43.38124" lon="5.48066">
        <ele>339.96337890625</ele>
        <time>2016-10-11T08:28:31Z</time>
      </trkpt>
      <trkpt lat="43.38127" lon="5.48066">
        <ele>339.96337890625</ele>
        <time>2016-10-11T08:28:35Z</time>
      </trkpt>
      <trkpt lat="43.38133" lon="5.48064">
        <ele>339.48266601562</ele>
        <time>2016-10-11T08:28:41Z</time>
      </trkpt>
      <trkpt lat="43.38138" lon="5.48063">
        <ele>339.48266601562</ele>
        <time>2016-10-11T08:28:44Z</time>
      </trkpt>
      <trkpt lat="43.38139" lon="5.48064">
        <ele>339.48266601562</ele>
        <time>2016-10-11T08:28:46Z</time>
      </trkpt>
      <trkpt lat="43.3816" lon="5.48065">
        <ele>340.44409179688</ele>
        <time>2016-10-11T08:29:06Z</time>
      </trkpt>
      <trkpt lat="43.38174" lon="5.48063">
        <ele>338.04077148438</ele>
        <time>2016-10-11T08:29:21Z</time>
      </trkpt>
      <trkpt lat="43.38201" lon="5.48063">
        <ele>340.92468261719</ele>
        <time>2016-10-11T08:29:44Z</time>
      </trkpt>
      <trkpt lat="43.38225" lon="5.48069">
        <ele>341.4052734375</ele>
        <time>2016-10-11T08:30:03Z</time>
      </trkpt>
      <trkpt lat="43.38231" lon="5.4807">
        <ele>341.88598632812</ele>
        <time>2016-10-11T08:30:08Z</time>
      </trkpt>
      <trkpt lat="43.38254" lon="5.48074">
        <ele>341.88598632812</ele>
        <time>2016-10-11T08:30:28Z</time>
      </trkpt>
      <trkpt lat="43.38271" lon="5.48086">
        <ele>341.4052734375</ele>
        <time>2016-10-11T08:30:45Z</time>
      </trkpt>
      <trkpt lat="43.38272" lon="5.48088">
        <ele>341.4052734375</ele>
        <time>2016-10-11T08:30:47Z</time>
      </trkpt>
      <trkpt lat="43.38274" lon="5.48091">
        <ele>340.92468261719</ele>
        <time>2016-10-11T08:30:50Z</time>
      </trkpt>
      <trkpt lat="43.38282" lon="5.48104">
        <ele>341.4052734375</ele>
        <time>2016-10-11T08:31:00Z</time>
      </trkpt>
      <trkpt lat="43.38284" lon="5.48107">
        <ele>340.92468261719</ele>
        <time>2016-10-11T08:31:02Z</time>
      </trkpt>
      <trkpt lat="43.3829" lon="5.4813">
        <ele>342.36669921875</ele>
        <time>2016-10-11T08:31:20Z</time>
      </trkpt>
      <trkpt lat="43.38293" lon="5.48154">
        <ele>348.615234375</ele>
        <time>2016-10-11T08:31:34Z</time>
      </trkpt>
      <trkpt lat="43.38295" lon="5.48159">
        <ele>349.57653808594</ele>
        <time>2016-10-11T08:31:37Z</time>
      </trkpt>
      <trkpt lat="43.38298" lon="5.48165">
        <ele>351.49914550781</ele>
        <time>2016-10-11T08:31:41Z</time>
      </trkpt>
      <trkpt lat="43.38309" lon="5.48162">
        <ele>354.38317871094</ele>
        <time>2016-10-11T08:31:48Z</time>
      </trkpt>
      <trkpt lat="43.38318" lon="5.48158">
        <ele>351.01843261719</ele>
        <time>2016-10-11T08:32:00Z</time>
      </trkpt>
      <trkpt lat="43.38327" lon="5.48144">
        <ele>349.57653808594</ele>
        <time>2016-10-11T08:32:14Z</time>
      </trkpt>
      <trkpt lat="43.38336" lon="5.4813">
        <ele>349.09582519531</ele>
        <time>2016-10-11T08:32:24Z</time>
      </trkpt>
      <trkpt lat="43.38339" lon="5.48127">
        <ele>347.65393066406</ele>
        <time>2016-10-11T08:32:29Z</time>
      </trkpt>
      <trkpt lat="43.38348" lon="5.48126">
        <ele>346.21203613281</ele>
        <time>2016-10-11T08:32:41Z</time>
      </trkpt>
      <trkpt lat="43.38349" lon="5.48127">
        <ele>345.73132324219</ele>
        <time>2016-10-11T08:32:42Z</time>
      </trkpt>
      <trkpt lat="43.38362" lon="5.48127">
        <ele>342.84729003906</ele>
        <time>2016-10-11T08:32:54Z</time>
      </trkpt>
      <trkpt lat="43.38364" lon="5.48127">
        <ele>342.36669921875</ele>
        <time>2016-10-11T08:32:56Z</time>
      </trkpt>
      <trkpt lat="43.38368" lon="5.48128">
        <ele>343.80859375</ele>
        <time>2016-10-11T08:33:00Z</time>
      </trkpt>
      <trkpt lat="43.3837" lon="5.48129">
        <ele>343.80859375</ele>
        <time>2016-10-11T08:33:02Z</time>
      </trkpt>
      <trkpt lat="43.38372" lon="5.4813">
        <ele>343.80859375</ele>
        <time>2016-10-11T08:33:04Z</time>
      </trkpt>
      <trkpt lat="43.38389" lon="5.48132">
        <ele>348.13464355469</ele>
        <time>2016-10-11T08:33:20Z</time>
      </trkpt>
      <trkpt lat="43.38404" lon="5.4813">
        <ele>349.09582519531</ele>
        <time>2016-10-11T08:33:35Z</time>
      </trkpt>
      <trkpt lat="43.38407" lon="5.48128">
        <ele>349.09582519531</ele>
        <time>2016-10-11T08:33:38Z</time>
      </trkpt>
      <trkpt lat="43.38421" lon="5.48127">
        <ele>351.97985839844</ele>
        <time>2016-10-11T08:33:47Z</time>
      </trkpt>
      <trkpt lat="43.38432" lon="5.48123">
        <ele>352.46057128906</ele>
        <time>2016-10-11T08:33:56Z</time>
      </trkpt>
      <trkpt lat="43.38445" lon="5.48104">
        <ele>348.13464355469</ele>
        <time>2016-10-11T08:34:08Z</time>
      </trkpt>
      <trkpt lat="43.38445" lon="5.48097">
        <ele>347.17321777344</ele>
        <time>2016-10-11T08:34:11Z</time>
      </trkpt>
      <trkpt lat="43.38445" lon="5.48086">
        <ele>344.28942871094</ele>
        <time>2016-10-11T08:34:18Z</time>
      </trkpt>
      <trkpt lat="43.38434" lon="5.48068">
        <ele>343.32788085938</ele>
        <time>2016-10-11T08:34:33Z</time>
      </trkpt>
      <trkpt lat="43.38415" lon="5.48051">
        <ele>341.4052734375</ele>
        <time>2016-10-11T08:34:53Z</time>
      </trkpt>
      <trkpt lat="43.38408" lon="5.48037">
        <ele>343.32788085938</ele>
        <time>2016-10-11T08:35:05Z</time>
      </trkpt>
      <trkpt lat="43.38413" lon="5.48014">
        <ele>339.96337890625</ele>
        <time>2016-10-11T08:35:21Z</time>
      </trkpt>
      <trkpt lat="43.38415" lon="5.4801">
        <ele>339.48266601562</ele>
        <time>2016-10-11T08:35:24Z</time>
      </trkpt>
      <trkpt lat="43.38431" lon="5.47998">
        <ele>337.56005859375</ele>
        <time>2016-10-11T08:35:42Z</time>
      </trkpt>
      <trkpt lat="43.38448" lon="5.47986">
        <ele>340.92468261719</ele>
        <time>2016-10-11T08:35:59Z</time>
      </trkpt>
      <trkpt lat="43.38451" lon="5.47985">
        <ele>341.4052734375</ele>
        <time>2016-10-11T08:36:02Z</time>
      </trkpt>
      <trkpt lat="43.38468" lon="5.47976">
        <ele>341.88598632812</ele>
        <time>2016-10-11T08:36:18Z</time>
      </trkpt>
      <trkpt lat="43.38473" lon="5.47972">
        <ele>341.88598632812</ele>
        <time>2016-10-11T08:36:23Z</time>
      </trkpt>
      <trkpt lat="43.38481" lon="5.47965">
        <ele>338.521484375</ele>
        <time>2016-10-11T08:36:30Z</time>
      </trkpt>
      <trkpt lat="43.38487" lon="5.47957">
        <ele>337.07946777344</ele>
        <time>2016-10-11T08:36:37Z</time>
      </trkpt>
      <trkpt lat="43.3849" lon="5.4795">
        <ele>336.59887695312</ele>
        <time>2016-10-11T08:36:42Z</time>
      </trkpt>
      <trkpt lat="43.38492" lon="5.47941">
        <ele>336.1181640625</ele>
        <time>2016-10-11T08:36:48Z</time>
      </trkpt>
      <trkpt lat="43.38495" lon="5.47934">
        <ele>334.67614746094</ele>
        <time>2016-10-11T08:36:53Z</time>
      </trkpt>
      <trkpt lat="43.385" lon="5.47917">
        <ele>332.27282714844</ele>
        <time>2016-10-11T08:37:04Z</time>
      </trkpt>
      <trkpt lat="43.38501" lon="5.47915">
        <ele>331.79211425781</ele>
        <time>2016-10-11T08:37:06Z</time>
      </trkpt>
      <trkpt lat="43.38504" lon="5.47906">
        <ele>330.83093261719</ele>
        <time>2016-10-11T08:37:13Z</time>
      </trkpt>
      <trkpt lat="43.38505" lon="5.47903">
        <ele>330.35021972656</ele>
        <time>2016-10-11T08:37:15Z</time>
      </trkpt>
      <trkpt lat="43.38506" lon="5.47897">
        <ele>330.35021972656</ele>
        <time>2016-10-11T08:37:19Z</time>
      </trkpt>
      <trkpt lat="43.38508" lon="5.47893">
        <ele>330.35021972656</ele>
        <time>2016-10-11T08:37:22Z</time>
      </trkpt>
      <trkpt lat="43.38516" lon="5.47877">
        <ele>327.94677734375</ele>
        <time>2016-10-11T08:37:33Z</time>
      </trkpt>
      <trkpt lat="43.38516" lon="5.47875">
        <ele>327.94677734375</ele>
        <time>2016-10-11T08:37:34Z</time>
      </trkpt>
      <trkpt lat="43.38517" lon="5.47871">
        <ele>327.46618652344</ele>
        <time>2016-10-11T08:37:37Z</time>
      </trkpt>
      <trkpt lat="43.3852" lon="5.47865">
        <ele>326.98559570312</ele>
        <time>2016-10-11T08:37:41Z</time>
      </trkpt>
      <trkpt lat="43.38521" lon="5.47863">
        <ele>326.5048828125</ele>
        <time>2016-10-11T08:37:43Z</time>
      </trkpt>
      <trkpt lat="43.38524" lon="5.47857">
        <ele>326.5048828125</ele>
        <time>2016-10-11T08:37:47Z</time>
      </trkpt>
      <trkpt lat="43.38526" lon="5.47855">
        <ele>326.02416992188</ele>
        <time>2016-10-11T08:37:49Z</time>
      </trkpt>
      <trkpt lat="43.38532" lon="5.47827">
        <ele>325.54357910156</ele>
        <time>2016-10-11T08:38:08Z</time>
      </trkpt>
      <trkpt lat="43.38535" lon="5.47819">
        <ele>325.06298828125</ele>
        <time>2016-10-11T08:38:14Z</time>
      </trkpt>
      <trkpt lat="43.38538" lon="5.47814">
        <ele>325.54357910156</ele>
        <time>2016-10-11T08:38:18Z</time>
      </trkpt>
      <trkpt lat="43.38554" lon="5.47807">
        <ele>326.5048828125</ele>
        <time>2016-10-11T08:38:31Z</time>
      </trkpt>
      <trkpt lat="43.38558" lon="5.47806">
        <ele>326.5048828125</ele>
        <time>2016-10-11T08:38:34Z</time>
      </trkpt>
      <trkpt lat="43.38567" lon="5.47804">
        <ele>326.98559570312</ele>
        <time>2016-10-11T08:38:41Z</time>
      </trkpt>
      <trkpt lat="43.38572" lon="5.47802">
        <ele>326.98559570312</ele>
        <time>2016-10-11T08:38:45Z</time>
      </trkpt>
      <trkpt lat="43.38573" lon="5.47801">
        <ele>326.5048828125</ele>
        <time>2016-10-11T08:38:47Z</time>
      </trkpt>
      <trkpt lat="43.38583" lon="5.47798">
        <ele>327.46618652344</ele>
        <time>2016-10-11T08:38:54Z</time>
      </trkpt>
      <trkpt lat="43.38585" lon="5.47795">
        <ele>327.46618652344</ele>
        <time>2016-10-11T08:38:56Z</time>
      </trkpt>
      <trkpt lat="43.38613" lon="5.4778">
        <ele>327.46618652344</ele>
        <time>2016-10-11T08:39:19Z</time>
      </trkpt>
      <trkpt lat="43.38632" lon="5.47769">
        <ele>330.35021972656</ele>
        <time>2016-10-11T08:39:36Z</time>
      </trkpt>
      <trkpt lat="43.38636" lon="5.47767">
        <ele>330.35021972656</ele>
        <time>2016-10-11T08:39:39Z</time>
      </trkpt>
      <trkpt lat="43.38641" lon="5.47762">
        <ele>328.90832519531</ele>
        <time>2016-10-11T08:39:44Z</time>
      </trkpt>
      <trkpt lat="43.3865" lon="5.47747">
        <ele>327.94677734375</ele>
        <time>2016-10-11T08:39:55Z</time>
      </trkpt>
      <trkpt lat="43.38654" lon="5.4774">
        <ele>327.46618652344</ele>
        <time>2016-10-11T08:40:00Z</time>
      </trkpt>
      <trkpt lat="43.38656" lon="5.47725">
        <ele>326.02416992188</ele>
        <time>2016-10-11T08:40:09Z</time>
      </trkpt>
      <trkpt lat="43.38656" lon="5.47709">
        <ele>326.02416992188</ele>
        <time>2016-10-11T08:40:19Z</time>
      </trkpt>
      <trkpt lat="43.38656" lon="5.47699">
        <ele>325.54357910156</ele>
        <time>2016-10-11T08:40:24Z</time>
      </trkpt>
      <trkpt lat="43.38657" lon="5.47697">
        <ele>324.1015625</ele>
        <time>2016-10-11T08:40:26Z</time>
      </trkpt>
      <trkpt lat="43.38657" lon="5.47693">
        <ele>323.62097167969</ele>
        <time>2016-10-11T08:40:28Z</time>
      </trkpt>
      <trkpt lat="43.38654" lon="5.47681">
        <ele>321.69836425781</ele>
        <time>2016-10-11T08:40:36Z</time>
      </trkpt>
      <trkpt lat="43.38652" lon="5.47662">
        <ele>322.17895507812</ele>
        <time>2016-10-11T08:40:47Z</time>
      </trkpt>
      <trkpt lat="43.38647" lon="5.47633">
        <ele>322.65966796875</ele>
        <time>2016-10-11T08:41:07Z</time>
      </trkpt>
      <trkpt lat="43.38645" lon="5.47623">
        <ele>323.62097167969</ele>
        <time>2016-10-11T08:41:23Z</time>
      </trkpt>
      <trkpt lat="43.38654" lon="5.4761">
        <ele>324.58227539062</ele>
        <time>2016-10-11T08:41:41Z</time>
      </trkpt>
      <trkpt lat="43.38657" lon="5.47605">
        <ele>325.06298828125</ele>
        <time>2016-10-11T08:41:46Z</time>
      </trkpt>
      <trkpt lat="43.3866" lon="5.47604">
        <ele>325.54357910156</ele>
        <time>2016-10-11T08:41:48Z</time>
      </trkpt>
      <trkpt lat="43.3867" lon="5.47591">
        <ele>328.90832519531</ele>
        <time>2016-10-11T08:42:04Z</time>
      </trkpt>
      <trkpt lat="43.38677" lon="5.47584">
        <ele>330.83093261719</ele>
        <time>2016-10-11T08:42:14Z</time>
      </trkpt>
      <trkpt lat="43.38681" lon="5.47577">
        <ele>331.79211425781</ele>
        <time>2016-10-11T08:42:18Z</time>
      </trkpt>
      <trkpt lat="43.38682" lon="5.47574">
        <ele>332.27282714844</ele>
        <time>2016-10-11T08:42:20Z</time>
      </trkpt>
      <trkpt lat="43.38685" lon="5.47568">
        <ele>333.71472167969</ele>
        <time>2016-10-11T08:42:23Z</time>
      </trkpt>
      <trkpt lat="43.3869" lon="5.47558">
        <ele>333.23413085938</ele>
        <time>2016-10-11T08:42:31Z</time>
      </trkpt>
      <trkpt lat="43.38698" lon="5.47538">
        <ele>330.83093261719</ele>
        <time>2016-10-11T08:42:46Z</time>
      </trkpt>
      <trkpt lat="43.38703" lon="5.47529">
        <ele>329.86950683594</ele>
        <time>2016-10-11T08:42:54Z</time>
      </trkpt>
      <trkpt lat="43.3872" lon="5.47515">
        <ele>326.02416992188</ele>
        <time>2016-10-11T08:43:13Z</time>
      </trkpt>
      <trkpt lat="43.38734" lon="5.47502">
        <ele>322.65966796875</ele>
        <time>2016-10-11T08:43:31Z</time>
      </trkpt>
      <trkpt lat="43.38742" lon="5.47494">
        <ele>318.81433105469</ele>
        <time>2016-10-11T08:43:48Z</time>
      </trkpt>
      <trkpt lat="43.38751" lon="5.47482">
        <ele>314.96911621094</ele>
        <time>2016-10-11T08:44:06Z</time>
      </trkpt>
      <trkpt lat="43.38757" lon="5.47485">
        <ele>314.48840332031</ele>
        <time>2016-10-11T08:44:09Z</time>
      </trkpt>
      <trkpt lat="43.38773" lon="5.47477">
        <ele>309.68188476562</ele>
        <time>2016-10-11T08:44:23Z</time>
      </trkpt>
      <trkpt lat="43.38794" lon="5.47462">
        <ele>307.27856445312</ele>
        <time>2016-10-11T08:44:45Z</time>
      </trkpt>
      <trkpt lat="43.38803" lon="5.47459">
        <ele>306.7978515625</ele>
        <time>2016-10-11T08:44:52Z</time>
      </trkpt>
      <trkpt lat="43.38818" lon="5.47459">
        <ele>305.35595703125</ele>
        <time>2016-10-11T08:45:04Z</time>
      </trkpt>
      <trkpt lat="43.38823" lon="5.47456">
        <ele>306.7978515625</ele>
        <time>2016-10-11T08:45:10Z</time>
      </trkpt>
      <trkpt lat="43.38832" lon="5.47452">
        <ele>307.75927734375</ele>
        <time>2016-10-11T08:45:22Z</time>
      </trkpt>
      <trkpt lat="43.38844" lon="5.47447">
        <ele>311.6044921875</ele>
        <time>2016-10-11T08:45:37Z</time>
      </trkpt>
      <trkpt lat="43.3885" lon="5.47438">
        <ele>313.04650878906</ele>
        <time>2016-10-11T08:45:46Z</time>
      </trkpt>
      <trkpt lat="43.38856" lon="5.47433">
        <ele>314.0078125</ele>
        <time>2016-10-11T08:45:52Z</time>
      </trkpt>
      <trkpt lat="43.38866" lon="5.47426">
        <ele>315.44982910156</ele>
        <time>2016-10-11T08:46:00Z</time>
      </trkpt>
      <trkpt lat="43.3887" lon="5.47422">
        <ele>316.41101074219</ele>
        <time>2016-10-11T08:46:05Z</time>
      </trkpt>
      <trkpt lat="43.38882" lon="5.47407">
        <ele>319.29504394531</ele>
        <time>2016-10-11T08:46:22Z</time>
      </trkpt>
      <trkpt lat="43.38883" lon="5.47401">
        <ele>320.25634765625</ele>
        <time>2016-10-11T08:46:26Z</time>
      </trkpt>
      <trkpt lat="43.38889" lon="5.47389">
        <ele>321.69836425781</ele>
        <time>2016-10-11T08:46:36Z</time>
      </trkpt>
      <trkpt lat="43.38891" lon="5.47375">
        <ele>325.54357910156</ele>
        <time>2016-10-11T08:46:46Z</time>
      </trkpt>
      <trkpt lat="43.38894" lon="5.47374">
        <ele>326.5048828125</ele>
        <time>2016-10-11T08:46:49Z</time>
      </trkpt>
      <trkpt lat="43.389" lon="5.47367">
        <ele>327.94677734375</ele>
        <time>2016-10-11T08:46:54Z</time>
      </trkpt>
      <trkpt lat="43.38904" lon="5.47362">
        <ele>329.38891601562</ele>
        <time>2016-10-11T08:46:59Z</time>
      </trkpt>
      <trkpt lat="43.38912" lon="5.47351">
        <ele>334.19543457031</ele>
        <time>2016-10-11T08:47:12Z</time>
      </trkpt>
      <trkpt lat="43.38923" lon="5.47337">
        <ele>337.56005859375</ele>
        <time>2016-10-11T08:47:24Z</time>
      </trkpt>
      <trkpt lat="43.38936" lon="5.47324">
        <ele>342.36669921875</ele>
        <time>2016-10-11T08:47:41Z</time>
      </trkpt>
      <trkpt lat="43.38945" lon="5.4732">
        <ele>344.77001953125</ele>
        <time>2016-10-11T08:47:53Z</time>
      </trkpt>
      <trkpt lat="43.38961" lon="5.47306">
        <ele>349.09582519531</ele>
        <time>2016-10-11T08:48:12Z</time>
      </trkpt>
      <trkpt lat="43.38977" lon="5.47296">
        <ele>352.94116210938</ele>
        <time>2016-10-11T08:48:29Z</time>
      </trkpt>
      <trkpt lat="43.38994" lon="5.47283">
        <ele>356.78637695312</ele>
        <time>2016-10-11T08:48:49Z</time>
      </trkpt>
      <trkpt lat="43.39009" lon="5.47273">
        <ele>359.18969726562</ele>
        <time>2016-10-11T08:49:05Z</time>
      </trkpt>
      <trkpt lat="43.39018" lon="5.47267">
        <ele>360.63171386719</ele>
        <time>2016-10-11T08:49:14Z</time>
      </trkpt>
      <trkpt lat="43.39028" lon="5.47254">
        <ele>363.03503417969</ele>
        <time>2016-10-11T08:49:28Z</time>
      </trkpt>
      <trkpt lat="43.39039" lon="5.4724">
        <ele>363.99633789062</ele>
        <time>2016-10-11T08:49:46Z</time>
      </trkpt>
      <trkpt lat="43.39046" lon="5.47231">
        <ele>364.47692871094</ele>
        <time>2016-10-11T08:49:58Z</time>
      </trkpt>
      <trkpt lat="43.39058" lon="5.47216">
        <ele>365.9189453125</ele>
        <time>2016-10-11T08:50:14Z</time>
      </trkpt>
      <trkpt lat="43.39074" lon="5.47211">
        <ele>367.84155273438</ele>
        <time>2016-10-11T08:50:34Z</time>
      </trkpt>
      <trkpt lat="43.39088" lon="5.47215">
        <ele>369.28369140625</ele>
        <time>2016-10-11T08:50:50Z</time>
      </trkpt>
      <trkpt lat="43.39095" lon="5.47218">
        <ele>371.20629882812</ele>
        <time>2016-10-11T08:51:15Z</time>
      </trkpt>
      <trkpt lat="43.39095" lon="5.47218">
        <ele>371.20629882812</ele>
        <time>2016-10-11T08:51:16Z</time>
      </trkpt>
      <trkpt lat="43.39106" lon="5.4723">
        <ele>370.7255859375</ele>
        <time>2016-10-11T08:51:31Z</time>
      </trkpt>
      <trkpt lat="43.39114" lon="5.47242">
        <ele>369.76428222656</ele>
        <time>2016-10-11T08:51:46Z</time>
      </trkpt>
      <trkpt lat="43.39116" lon="5.47243">
        <ele>369.28369140625</ele>
        <time>2016-10-11T08:51:47Z</time>
      </trkpt>
      <trkpt lat="43.3912" lon="5.47244">
        <ele>369.28369140625</ele>
        <time>2016-10-11T08:51:54Z</time>
      </trkpt>
      <trkpt lat="43.39134" lon="5.47246">
        <ele>368.80297851562</ele>
        <time>2016-10-11T08:52:13Z</time>
      </trkpt>
      <trkpt lat="43.39147" lon="5.47243">
        <ele>369.28369140625</ele>
        <time>2016-10-11T08:52:28Z</time>
      </trkpt>
      <trkpt lat="43.39159" lon="5.47239">
        <ele>368.322265625</ele>
        <time>2016-10-11T08:52:44Z</time>
      </trkpt>
      <trkpt lat="43.39173" lon="5.47235">
        <ele>366.39953613281</ele>
        <time>2016-10-11T08:53:00Z</time>
      </trkpt>
      <trkpt lat="43.39175" lon="5.47234">
        <ele>365.43835449219</ele>
        <time>2016-10-11T08:53:03Z</time>
      </trkpt>
      <trkpt lat="43.39186" lon="5.4723">
        <ele>363.51574707031</ele>
        <time>2016-10-11T08:53:16Z</time>
      </trkpt>
      <trkpt lat="43.39195" lon="5.47225">
        <ele>361.11242675781</ele>
        <time>2016-10-11T08:53:29Z</time>
      </trkpt>
      <trkpt lat="43.39206" lon="5.47214">
        <ele>358.22839355469</ele>
        <time>2016-10-11T08:53:47Z</time>
      </trkpt>
      <trkpt lat="43.39213" lon="5.47208">
        <ele>357.26708984375</ele>
        <time>2016-10-11T08:54:05Z</time>
      </trkpt>
      <trkpt lat="43.39224" lon="5.47194">
        <ele>356.30578613281</ele>
        <time>2016-10-11T08:54:24Z</time>
      </trkpt>
      <trkpt lat="43.39236" lon="5.47183">
        <ele>355.34448242188</ele>
        <time>2016-10-11T08:54:43Z</time>
      </trkpt>
      <trkpt lat="43.39243" lon="5.4718">
        <ele>354.86376953125</ele>
        <time>2016-10-11T08:54:49Z</time>
      </trkpt>
      <trkpt lat="43.39249" lon="5.47176">
        <ele>354.38317871094</ele>
        <time>2016-10-11T08:54:57Z</time>
      </trkpt>
      <trkpt lat="43.39265" lon="5.47172">
        <ele>354.86376953125</ele>
        <time>2016-10-11T08:55:13Z</time>
      </trkpt>
      <trkpt lat="43.39274" lon="5.47167">
        <ele>356.78637695312</ele>
        <time>2016-10-11T08:55:26Z</time>
      </trkpt>
      <trkpt lat="43.39287" lon="5.47164">
        <ele>357.26708984375</ele>
        <time>2016-10-11T08:55:37Z</time>
      </trkpt>
      <trkpt lat="43.39293" lon="5.47154">
        <ele>357.26708984375</ele>
        <time>2016-10-11T08:55:50Z</time>
      </trkpt>
      <trkpt lat="43.39304" lon="5.47151">
        <ele>357.74780273438</ele>
        <time>2016-10-11T08:56:07Z</time>
      </trkpt>
      <trkpt lat="43.3932" lon="5.47145">
        <ele>358.708984375</ele>
        <time>2016-10-11T08:56:25Z</time>
      </trkpt>
      <trkpt lat="43.39332" lon="5.47143">
        <ele>361.11242675781</ele>
        <time>2016-10-11T08:56:41Z</time>
      </trkpt>
      <trkpt lat="43.39349" lon="5.47138">
        <ele>370.7255859375</ele>
        <time>2016-10-11T08:56:59Z</time>
      </trkpt>
      <trkpt lat="43.39366" lon="5.47137">
        <ele>378.89685058594</ele>
        <time>2016-10-11T08:57:18Z</time>
      </trkpt>
      <trkpt lat="43.39382" lon="5.47132">
        <ele>387.54858398438</ele>
        <time>2016-10-11T08:57:34Z</time>
      </trkpt>
      <trkpt lat="43.39395" lon="5.47134">
        <ele>394.75854492188</ele>
        <time>2016-10-11T08:57:47Z</time>
      </trkpt>
      <trkpt lat="43.39399" lon="5.47134">
        <ele>395.71984863281</ele>
        <time>2016-10-11T08:57:51Z</time>
      </trkpt>
      <trkpt lat="43.39411" lon="5.47127">
        <ele>384.18408203125</ele>
        <time>2016-10-11T08:58:03Z</time>
      </trkpt>
      <trkpt lat="43.3942" lon="5.4712">
        <ele>378.89685058594</ele>
        <time>2016-10-11T08:58:14Z</time>
      </trkpt>
      <trkpt lat="43.39423" lon="5.47117">
        <ele>378.41613769531</ele>
        <time>2016-10-11T08:58:18Z</time>
      </trkpt>
      <trkpt lat="43.39426" lon="5.47117">
        <ele>378.89685058594</ele>
        <time>2016-10-11T08:58:20Z</time>
      </trkpt>
      <trkpt lat="43.39436" lon="5.47107">
        <ele>378.41613769531</ele>
        <time>2016-10-11T08:58:31Z</time>
      </trkpt>
      <trkpt lat="43.39441" lon="5.47095">
        <ele>377.93542480469</ele>
        <time>2016-10-11T08:58:44Z</time>
      </trkpt>
      <trkpt lat="43.39445" lon="5.47085">
        <ele>377.93542480469</ele>
        <time>2016-10-11T08:59:01Z</time>
      </trkpt>
      <trkpt lat="43.39446" lon="5.47084">
        <ele>378.41613769531</ele>
        <time>2016-10-11T08:59:03Z</time>
      </trkpt>
      <trkpt lat="43.39453" lon="5.47077">
        <ele>382.74206542969</ele>
        <time>2016-10-11T08:59:10Z</time>
      </trkpt>
      <trkpt lat="43.39454" lon="5.47075">
        <ele>383.22265625</ele>
        <time>2016-10-11T08:59:12Z</time>
      </trkpt>
      <trkpt lat="43.39457" lon="5.47072">
        <ele>384.18408203125</ele>
        <time>2016-10-11T08:59:16Z</time>
      </trkpt>
      <trkpt lat="43.39469" lon="5.4706">
        <ele>384.66479492188</ele>
        <time>2016-10-11T08:59:30Z</time>
      </trkpt>
      <trkpt lat="43.39475" lon="5.47055">
        <ele>384.18408203125</ele>
        <time>2016-10-11T08:59:36Z</time>
      </trkpt>
      <trkpt lat="43.39484" lon="5.47045">
        <ele>384.66479492188</ele>
        <time>2016-10-11T08:59:50Z</time>
      </trkpt>
      <trkpt lat="43.39498" lon="5.47034">
        <ele>384.18408203125</ele>
        <time>2016-10-11T09:00:07Z</time>
      </trkpt>
      <trkpt lat="43.39499" lon="5.4703">
        <ele>384.18408203125</ele>
        <time>2016-10-11T09:00:11Z</time>
      </trkpt>
      <trkpt lat="43.39503" lon="5.47016">
        <ele>382.26135253906</ele>
        <time>2016-10-11T09:00:24Z</time>
      </trkpt>
      <trkpt lat="43.39502" lon="5.47013">
        <ele>382.26135253906</ele>
        <time>2016-10-11T09:00:26Z</time>
      </trkpt>
      <trkpt lat="43.395" lon="5.46989">
        <ele>382.26135253906</ele>
        <time>2016-10-11T09:00:44Z</time>
      </trkpt>
      <trkpt lat="43.39506" lon="5.46976">
        <ele>383.22265625</ele>
        <time>2016-10-11T09:00:56Z</time>
      </trkpt>
      <trkpt lat="43.39515" lon="5.46962">
        <ele>384.66479492188</ele>
        <time>2016-10-11T09:01:14Z</time>
      </trkpt>
      <trkpt lat="43.39516" lon="5.46944">
        <ele>387.06799316406</ele>
        <time>2016-10-11T09:01:27Z</time>
      </trkpt>
      <trkpt lat="43.39522" lon="5.46941">
        <ele>388.029296875</ele>
        <time>2016-10-11T09:01:34Z</time>
      </trkpt>
      <trkpt lat="43.39524" lon="5.46935">
        <ele>387.54858398438</ele>
        <time>2016-10-11T09:01:38Z</time>
      </trkpt>
      <trkpt lat="43.3952" lon="5.46919">
        <ele>387.54858398438</ele>
        <time>2016-10-11T09:01:51Z</time>
      </trkpt>
      <trkpt lat="43.3952" lon="5.46901">
        <ele>390.91320800781</ele>
        <time>2016-10-11T09:02:07Z</time>
      </trkpt>
      <trkpt lat="43.39521" lon="5.46898">
        <ele>391.39379882812</ele>
        <time>2016-10-11T09:02:10Z</time>
      </trkpt>
      <trkpt lat="43.39526" lon="5.46892">
        <ele>392.35534667969</ele>
        <time>2016-10-11T09:02:14Z</time>
      </trkpt>
      <trkpt lat="43.39534" lon="5.46878">
        <ele>395.23913574219</ele>
        <time>2016-10-11T09:02:28Z</time>
      </trkpt>
      <trkpt lat="43.3954" lon="5.46877">
        <ele>396.68115234375</ele>
        <time>2016-10-11T09:02:35Z</time>
      </trkpt>
      <trkpt lat="43.39545" lon="5.46865">
        <ele>395.71984863281</ele>
        <time>2016-10-11T09:02:46Z</time>
      </trkpt>
      <trkpt lat="43.39548" lon="5.46862">
        <ele>394.75854492188</ele>
        <time>2016-10-11T09:03:01Z</time>
      </trkpt>
      <trkpt lat="43.39548" lon="5.46861">
        <ele>394.27795410156</ele>
        <time>2016-10-11T09:03:09Z</time>
      </trkpt>
      <trkpt lat="43.39554" lon="5.46854">
        <ele>393.79724121094</ele>
        <time>2016-10-11T09:03:17Z</time>
      </trkpt>
      <trkpt lat="43.39559" lon="5.46848">
        <ele>392.8359375</ele>
        <time>2016-10-11T09:03:23Z</time>
      </trkpt>
      <trkpt lat="43.39578" lon="5.46845">
        <ele>390.91320800781</ele>
        <time>2016-10-11T09:03:39Z</time>
      </trkpt>
      <trkpt lat="43.39593" lon="5.46832">
        <ele>387.54858398438</ele>
        <time>2016-10-11T09:03:57Z</time>
      </trkpt>
      <trkpt lat="43.39595" lon="5.46834">
        <ele>387.54858398438</ele>
        <time>2016-10-11T09:03:58Z</time>
      </trkpt>
      <trkpt lat="43.39601" lon="5.46811">
        <ele>385.14538574219</ele>
        <time>2016-10-11T09:04:19Z</time>
      </trkpt>
      <trkpt lat="43.39603" lon="5.46806">
        <ele>386.58740234375</ele>
        <time>2016-10-11T09:04:23Z</time>
      </trkpt>
      <trkpt lat="43.39606" lon="5.46801">
        <ele>386.58740234375</ele>
        <time>2016-10-11T09:04:27Z</time>
      </trkpt>
      <trkpt lat="43.39608" lon="5.46793">
        <ele>387.54858398438</ele>
        <time>2016-10-11T09:04:33Z</time>
      </trkpt>
      <trkpt lat="43.39613" lon="5.46777">
        <ele>388.51000976562</ele>
        <time>2016-10-11T09:04:44Z</time>
      </trkpt>
      <trkpt lat="43.39617" lon="5.46768">
        <ele>389.95190429688</ele>
        <time>2016-10-11T09:04:51Z</time>
      </trkpt>
      <trkpt lat="43.39623" lon="5.4676">
        <ele>390.91320800781</ele>
        <time>2016-10-11T09:05:04Z</time>
      </trkpt>
      <trkpt lat="43.39627" lon="5.46752">
        <ele>391.87451171875</ele>
        <time>2016-10-11T09:05:39Z</time>
      </trkpt>
      <trkpt lat="43.39629" lon="5.4675">
        <ele>392.8359375</ele>
        <time>2016-10-11T09:05:44Z</time>
      </trkpt>
      <trkpt lat="43.39631" lon="5.4673">
        <ele>396.68115234375</ele>
        <time>2016-10-11T09:05:59Z</time>
      </trkpt>
      <trkpt lat="43.3964" lon="5.46711">
        <ele>401.48779296875</ele>
        <time>2016-10-11T09:06:20Z</time>
      </trkpt>
      <trkpt lat="43.39641" lon="5.46709">
        <ele>401.96850585938</ele>
        <time>2016-10-11T09:06:22Z</time>
      </trkpt>
      <trkpt lat="43.39652" lon="5.46695">
        <ele>402.44909667969</ele>
        <time>2016-10-11T09:06:40Z</time>
      </trkpt>
      <trkpt lat="43.3966" lon="5.4667">
        <ele>404.37170410156</ele>
        <time>2016-10-11T09:07:04Z</time>
      </trkpt>
      <trkpt lat="43.39661" lon="5.46658">
        <ele>405.81372070312</ele>
        <time>2016-10-11T09:07:14Z</time>
      </trkpt>
      <trkpt lat="43.39668" lon="5.46639">
        <ele>404.85229492188</ele>
        <time>2016-10-11T09:07:30Z</time>
      </trkpt>
      <trkpt lat="43.39678" lon="5.46614">
        <ele>407.736328125</ele>
        <time>2016-10-11T09:07:51Z</time>
      </trkpt>
      <trkpt lat="43.39681" lon="5.46596">
        <ele>411.10095214844</ele>
        <time>2016-10-11T09:08:07Z</time>
      </trkpt>
      <trkpt lat="43.39679" lon="5.46583">
        <ele>414.94616699219</ele>
        <time>2016-10-11T09:08:25Z</time>
      </trkpt>
      <trkpt lat="43.39677" lon="5.46581">
        <ele>415.42687988281</ele>
        <time>2016-10-11T09:08:32Z</time>
      </trkpt>
      <trkpt lat="43.39677" lon="5.46576">
        <ele>415.90747070312</ele>
        <time>2016-10-11T09:08:46Z</time>
      </trkpt>
      <trkpt lat="43.39676" lon="5.46575">
        <ele>415.90747070312</ele>
        <time>2016-10-11T09:09:04Z</time>
      </trkpt>
      <trkpt lat="43.39677" lon="5.46576">
        <ele>415.90747070312</ele>
        <time>2016-10-11T09:09:32Z</time>
      </trkpt>
      <trkpt lat="43.39676" lon="5.46575">
        <ele>415.42687988281</ele>
        <time>2016-10-11T09:10:13Z</time>
      </trkpt>
      <trkpt lat="43.39677" lon="5.46577">
        <ele>414.94616699219</ele>
        <time>2016-10-11T09:11:34Z</time>
      </trkpt>
      <trkpt lat="43.39677" lon="5.46578">
        <ele>415.90747070312</ele>
        <time>2016-10-11T09:12:10Z</time>
      </trkpt>
      <trkpt lat="43.39676" lon="5.46576">
        <ele>415.90747070312</ele>
        <time>2016-10-11T09:12:34Z</time>
      </trkpt>
      <trkpt lat="43.39675" lon="5.46576">
        <ele>413.50427246094</ele>
        <time>2016-10-11T09:13:51Z</time>
      </trkpt>
      <trkpt lat="43.39673" lon="5.46567">
        <ele>412.54284667969</ele>
        <time>2016-10-11T09:14:11Z</time>
      </trkpt>
      <trkpt lat="43.3968" lon="5.46548">
        <ele>412.06225585938</ele>
        <time>2016-10-11T09:14:29Z</time>
      </trkpt>
      <trkpt lat="43.3968" lon="5.46547">
        <ele>412.06225585938</ele>
        <time>2016-10-11T09:14:30Z</time>
      </trkpt>
      <trkpt lat="43.39688" lon="5.46536">
        <ele>409.65905761719</ele>
        <time>2016-10-11T09:14:48Z</time>
      </trkpt>
      <trkpt lat="43.39694" lon="5.46519">
        <ele>408.69763183594</ele>
        <time>2016-10-11T09:15:06Z</time>
      </trkpt>
      <trkpt lat="43.39697" lon="5.46509">
        <ele>409.65905761719</ele>
        <time>2016-10-11T09:15:13Z</time>
      </trkpt>
      <trkpt lat="43.39701" lon="5.46496">
        <ele>409.65905761719</ele>
        <time>2016-10-11T09:15:22Z</time>
      </trkpt>
      <trkpt lat="43.39701" lon="5.46473">
        <ele>412.06225585938</ele>
        <time>2016-10-11T09:15:40Z</time>
      </trkpt>
      <trkpt lat="43.39697" lon="5.46465">
        <ele>415.42687988281</ele>
        <time>2016-10-11T09:15:54Z</time>
      </trkpt>
      <trkpt lat="43.39692" lon="5.46447">
        <ele>419.27221679688</ele>
        <time>2016-10-11T09:16:07Z</time>
      </trkpt>
      <trkpt lat="43.39692" lon="5.46441">
        <ele>420.71411132812</ele>
        <time>2016-10-11T09:16:12Z</time>
      </trkpt>
      <trkpt lat="43.39692" lon="5.46438">
        <ele>421.19482421875</ele>
        <time>2016-10-11T09:16:15Z</time>
      </trkpt>
      <trkpt lat="43.39692" lon="5.46435">
        <ele>421.67541503906</ele>
        <time>2016-10-11T09:16:17Z</time>
      </trkpt>
      <trkpt lat="43.39693" lon="5.46423">
        <ele>421.19482421875</ele>
        <time>2016-10-11T09:16:31Z</time>
      </trkpt>
      <trkpt lat="43.39692" lon="5.46407">
        <ele>420.71411132812</ele>
        <time>2016-10-11T09:16:46Z</time>
      </trkpt>
      <trkpt lat="43.39692" lon="5.4639">
        <ele>420.71411132812</ele>
        <time>2016-10-11T09:17:04Z</time>
      </trkpt>
      <trkpt lat="43.39693" lon="5.46379">
        <ele>421.67541503906</ele>
        <time>2016-10-11T09:17:19Z</time>
      </trkpt>
      <trkpt lat="43.39694" lon="5.46375">
        <ele>422.15600585938</ele>
        <time>2016-10-11T09:17:23Z</time>
      </trkpt>
      <trkpt lat="43.39693" lon="5.4636">
        <ele>423.11743164062</ele>
        <time>2016-10-11T09:17:32Z</time>
      </trkpt>
      <trkpt lat="43.39696" lon="5.46351">
        <ele>425.04016113281</ele>
        <time>2016-10-11T09:17:44Z</time>
      </trkpt>
      <trkpt lat="43.39697" lon="5.46346">
        <ele>425.04016113281</ele>
        <time>2016-10-11T09:17:49Z</time>
      </trkpt>
      <trkpt lat="43.39704" lon="5.46338">
        <ele>428.88537597656</ele>
        <time>2016-10-11T09:18:02Z</time>
      </trkpt>
      <trkpt lat="43.39708" lon="5.46332">
        <ele>430.80798339844</ele>
        <time>2016-10-11T09:18:09Z</time>
      </trkpt>
      <trkpt lat="43.39711" lon="5.46326">
        <ele>428.88537597656</ele>
        <time>2016-10-11T09:18:24Z</time>
      </trkpt>
      <trkpt lat="43.39718" lon="5.4632">
        <ele>427.443359375</ele>
        <time>2016-10-11T09:18:38Z</time>
      </trkpt>
      <trkpt lat="43.39729" lon="5.46308">
        <ele>423.11743164062</ele>
        <time>2016-10-11T09:18:57Z</time>
      </trkpt>
      <trkpt lat="43.39735" lon="5.46308">
        <ele>425.04016113281</ele>
        <time>2016-10-11T09:19:04Z</time>
      </trkpt>
      <trkpt lat="43.3974" lon="5.46307">
        <ele>424.07873535156</ele>
        <time>2016-10-11T09:19:09Z</time>
      </trkpt>
      <trkpt lat="43.39741" lon="5.46299">
        <ele>423.59802246094</ele>
        <time>2016-10-11T09:19:16Z</time>
      </trkpt>
      <trkpt lat="43.39741" lon="5.46295">
        <ele>423.59802246094</ele>
        <time>2016-10-11T09:19:19Z</time>
      </trkpt>
      <trkpt lat="43.39747" lon="5.46282">
        <ele>424.07873535156</ele>
        <time>2016-10-11T09:19:35Z</time>
      </trkpt>
      <trkpt lat="43.39755" lon="5.46273">
        <ele>426.00134277344</ele>
        <time>2016-10-11T09:19:51Z</time>
      </trkpt>
      <trkpt lat="43.39766" lon="5.46258">
        <ele>429.36596679688</ele>
        <time>2016-10-11T09:20:13Z</time>
      </trkpt>
      <trkpt lat="43.39776" lon="5.46249">
        <ele>431.28857421875</ele>
        <time>2016-10-11T09:20:27Z</time>
      </trkpt>
      <trkpt lat="43.39781" lon="5.46247">
        <ele>433.69189453125</ele>
        <time>2016-10-11T09:20:41Z</time>
      </trkpt>
      <trkpt lat="43.39786" lon="5.46241">
        <ele>434.17260742188</ele>
        <time>2016-10-11T09:20:54Z</time>
      </trkpt>
      <trkpt lat="43.39786" lon="5.46242">
        <ele>435.13391113281</ele>
        <time>2016-10-11T09:21:54Z</time>
      </trkpt>
      <trkpt lat="43.39796" lon="5.46247">
        <ele>436.09521484375</ele>
        <time>2016-10-11T09:22:10Z</time>
      </trkpt>
      <trkpt lat="43.39804" lon="5.4623">
        <ele>436.57592773438</ele>
        <time>2016-10-11T09:22:24Z</time>
      </trkpt>
      <trkpt lat="43.39814" lon="5.46226">
        <ele>436.57592773438</ele>
        <time>2016-10-11T09:22:30Z</time>
      </trkpt>
      <trkpt lat="43.39821" lon="5.46224">
        <ele>436.09521484375</ele>
        <time>2016-10-11T09:22:37Z</time>
      </trkpt>
      <trkpt lat="43.39825" lon="5.46221">
        <ele>435.61450195312</ele>
        <time>2016-10-11T09:22:53Z</time>
      </trkpt>
      <trkpt lat="43.39832" lon="5.46218">
        <ele>431.76916503906</ele>
        <time>2016-10-11T09:23:53Z</time>
      </trkpt>
      <trkpt lat="43.3985" lon="5.46202">
        <ele>430.32727050781</ele>
        <time>2016-10-11T09:24:23Z</time>
      </trkpt>
      <trkpt lat="43.39858" lon="5.46197">
        <ele>434.17260742188</ele>
        <time>2016-10-11T09:24:42Z</time>
      </trkpt>
      <trkpt lat="43.3986" lon="5.46197">
        <ele>434.6533203125</ele>
        <time>2016-10-11T09:24:43Z</time>
      </trkpt>
      <trkpt lat="43.39869" lon="5.462">
        <ele>440.90185546875</ele>
        <time>2016-10-11T09:24:56Z</time>
      </trkpt>
      <trkpt lat="43.39878" lon="5.46198">
        <ele>444.26647949219</ele>
        <time>2016-10-11T09:25:10Z</time>
      </trkpt>
      <trkpt lat="43.39884" lon="5.462">
        <ele>445.70837402344</ele>
        <time>2016-10-11T09:25:15Z</time>
      </trkpt>
      <trkpt lat="43.39887" lon="5.462">
        <ele>446.18908691406</ele>
        <time>2016-10-11T09:25:17Z</time>
      </trkpt>
      <trkpt lat="43.39902" lon="5.46197">
        <ele>451.95703125</ele>
        <time>2016-10-11T09:25:36Z</time>
      </trkpt>
      <trkpt lat="43.39911" lon="5.46194">
        <ele>458.68615722656</ele>
        <time>2016-10-11T09:25:54Z</time>
      </trkpt>
      <trkpt lat="43.39915" lon="5.4619">
        <ele>460.60876464844</ele>
        <time>2016-10-11T09:26:06Z</time>
      </trkpt>
      <trkpt lat="43.39922" lon="5.46189">
        <ele>463.01208496094</ele>
        <time>2016-10-11T09:26:17Z</time>
      </trkpt>
      <trkpt lat="43.39931" lon="5.46195">
        <ele>464.93481445312</ele>
        <time>2016-10-11T09:26:31Z</time>
      </trkpt>
      <trkpt lat="43.39934" lon="5.46202">
        <ele>466.37670898438</ele>
        <time>2016-10-11T09:26:41Z</time>
      </trkpt>
      <trkpt lat="43.39937" lon="5.46214">
        <ele>469.74133300781</ele>
        <time>2016-10-11T09:26:50Z</time>
      </trkpt>
      <trkpt lat="43.39942" lon="5.46222">
        <ele>470.70263671875</ele>
        <time>2016-10-11T09:26:58Z</time>
      </trkpt>
      <trkpt lat="43.39951" lon="5.46225">
        <ele>474.06726074219</ele>
        <time>2016-10-11T09:27:14Z</time>
      </trkpt>
      <trkpt lat="43.39952" lon="5.46225">
        <ele>474.54797363281</ele>
        <time>2016-10-11T09:27:15Z</time>
      </trkpt>
      <trkpt lat="43.3996" lon="5.46224">
        <ele>475.98986816406</ele>
        <time>2016-10-11T09:27:24Z</time>
      </trkpt>
      <trkpt lat="43.39973" lon="5.46228">
        <ele>478.87390136719</ele>
        <time>2016-10-11T09:27:47Z</time>
      </trkpt>
      <trkpt lat="43.39984" lon="5.46225">
        <ele>480.31591796875</ele>
        <time>2016-10-11T09:28:01Z</time>
      </trkpt>
      <trkpt lat="43.3999" lon="5.46226">
        <ele>482.71923828125</ele>
        <time>2016-10-11T09:28:11Z</time>
      </trkpt>
      <trkpt lat="43.40001" lon="5.46228">
        <ele>483.19982910156</ele>
        <time>2016-10-11T09:28:24Z</time>
      </trkpt>
      <trkpt lat="43.40009" lon="5.46233">
        <ele>486.08374023438</ele>
        <time>2016-10-11T09:28:38Z</time>
      </trkpt>
      <trkpt lat="43.40021" lon="5.46229">
        <ele>486.08374023438</ele>
        <time>2016-10-11T09:28:57Z</time>
      </trkpt>
      <trkpt lat="43.40023" lon="5.46228">
        <ele>485.12243652344</ele>
        <time>2016-10-11T09:29:01Z</time>
      </trkpt>
      <trkpt lat="43.40025" lon="5.46227">
        <ele>485.60302734375</ele>
        <time>2016-10-11T09:29:03Z</time>
      </trkpt>
      <trkpt lat="43.40027" lon="5.46212">
        <ele>484.64184570312</ele>
        <time>2016-10-11T09:29:15Z</time>
      </trkpt>
      <trkpt lat="43.40031" lon="5.46205">
        <ele>486.564453125</ele>
        <time>2016-10-11T09:29:27Z</time>
      </trkpt>
      <trkpt lat="43.40036" lon="5.46202">
        <ele>486.564453125</ele>
        <time>2016-10-11T09:29:43Z</time>
      </trkpt>
      <trkpt lat="43.40047" lon="5.46201">
        <ele>485.60302734375</ele>
        <time>2016-10-11T09:30:13Z</time>
      </trkpt>
      <trkpt lat="43.40061" lon="5.46199">
        <ele>486.08374023438</ele>
        <time>2016-10-11T09:30:33Z</time>
      </trkpt>
      <trkpt lat="43.40066" lon="5.46211">
        <ele>487.04504394531</ele>
        <time>2016-10-11T09:30:46Z</time>
      </trkpt>
      <trkpt lat="43.40079" lon="5.46211">
        <ele>487.52563476562</ele>
        <time>2016-10-11T09:31:03Z</time>
      </trkpt>
      <trkpt lat="43.40082" lon="5.46213">
        <ele>488.00646972656</ele>
        <time>2016-10-11T09:31:08Z</time>
      </trkpt>
      <trkpt lat="43.40088" lon="5.46222">
        <ele>488.48718261719</ele>
        <time>2016-10-11T09:31:21Z</time>
      </trkpt>
      <trkpt lat="43.40089" lon="5.46228">
        <ele>488.9677734375</ele>
        <time>2016-10-11T09:31:25Z</time>
      </trkpt>
      <trkpt lat="43.40101" lon="5.46243">
        <ele>495.69689941406</ele>
        <time>2016-10-11T09:31:44Z</time>
      </trkpt>
      <trkpt lat="43.401" lon="5.46251">
        <ele>497.61962890625</ele>
        <time>2016-10-11T09:31:57Z</time>
      </trkpt>
      <trkpt lat="43.40101" lon="5.46252">
        <ele>498.10034179688</ele>
        <time>2016-10-11T09:32:19Z</time>
      </trkpt>
      <trkpt lat="43.40099" lon="5.46264">
        <ele>497.61962890625</ele>
        <time>2016-10-11T09:33:04Z</time>
      </trkpt>
      <trkpt lat="43.40098" lon="5.4627">
        <ele>497.61962890625</ele>
        <time>2016-10-11T09:33:17Z</time>
      </trkpt>
      <trkpt lat="43.401" lon="5.46278">
        <ele>498.58093261719</ele>
        <time>2016-10-11T09:33:31Z</time>
      </trkpt>
      <trkpt lat="43.40106" lon="5.46286">
        <ele>500.98413085938</ele>
        <time>2016-10-11T09:33:46Z</time>
      </trkpt>
      <trkpt lat="43.40111" lon="5.46305">
        <ele>502.90673828125</ele>
        <time>2016-10-11T09:34:03Z</time>
      </trkpt>
      <trkpt lat="43.40114" lon="5.46307">
        <ele>503.38745117188</ele>
        <time>2016-10-11T09:34:10Z</time>
      </trkpt>
      <trkpt lat="43.40117" lon="5.46318">
        <ele>502.42614746094</ele>
        <time>2016-10-11T09:34:21Z</time>
      </trkpt>
      <trkpt lat="43.40125" lon="5.46322">
        <ele>497.61962890625</ele>
        <time>2016-10-11T09:34:32Z</time>
      </trkpt>
      <trkpt lat="43.40132" lon="5.46329">
        <ele>494.25500488281</ele>
        <time>2016-10-11T09:34:50Z</time>
      </trkpt>
      <trkpt lat="43.40141" lon="5.46324">
        <ele>496.65832519531</ele>
        <time>2016-10-11T09:35:10Z</time>
      </trkpt>
      <trkpt lat="43.4015" lon="5.46323">
        <ele>500.02294921875</ele>
        <time>2016-10-11T09:35:27Z</time>
      </trkpt>
      <trkpt lat="43.4016" lon="5.46323">
        <ele>503.8681640625</ele>
        <time>2016-10-11T09:35:43Z</time>
      </trkpt>
      <trkpt lat="43.40169" lon="5.46318">
        <ele>502.90673828125</ele>
        <time>2016-10-11T09:36:05Z</time>
      </trkpt>
      <trkpt lat="43.40182" lon="5.46314">
        <ele>503.38745117188</ele>
        <time>2016-10-11T09:36:21Z</time>
      </trkpt>
      <trkpt lat="43.40196" lon="5.4632">
        <ele>504.82946777344</ele>
        <time>2016-10-11T09:36:36Z</time>
      </trkpt>
      <trkpt lat="43.40207" lon="5.46322">
        <ele>499.54223632812</ele>
        <time>2016-10-11T09:36:50Z</time>
      </trkpt>
      <trkpt lat="43.40214" lon="5.46313">
        <ele>500.98413085938</ele>
        <time>2016-10-11T09:37:05Z</time>
      </trkpt>
      <trkpt lat="43.40227" lon="5.4631">
        <ele>499.0615234375</ele>
        <time>2016-10-11T09:37:24Z</time>
      </trkpt>
      <trkpt lat="43.40226" lon="5.46307">
        <ele>498.10034179688</ele>
        <time>2016-10-11T09:37:43Z</time>
      </trkpt>
      <trkpt lat="43.40231" lon="5.46304">
        <ele>500.98413085938</ele>
        <time>2016-10-11T09:37:59Z</time>
      </trkpt>
      <trkpt lat="43.40235" lon="5.46303">
        <ele>501.46484375</ele>
        <time>2016-10-11T09:38:02Z</time>
      </trkpt>
      <trkpt lat="43.40239" lon="5.46301">
        <ele>501.94555664062</ele>
        <time>2016-10-11T09:38:05Z</time>
      </trkpt>
      <trkpt lat="43.40242" lon="5.46308">
        <ele>500.98413085938</ele>
        <time>2016-10-11T09:38:10Z</time>
      </trkpt>
      <trkpt lat="43.40248" lon="5.4631">
        <ele>501.46484375</ele>
        <time>2016-10-11T09:38:20Z</time>
      </trkpt>
      <trkpt lat="43.40259" lon="5.46313">
        <ele>505.31018066406</ele>
        <time>2016-10-11T09:38:35Z</time>
      </trkpt>
      <trkpt lat="43.40271" lon="5.46321">
        <ele>506.75207519531</ele>
        <time>2016-10-11T09:38:53Z</time>
      </trkpt>
      <trkpt lat="43.40279" lon="5.46319">
        <ele>513.00073242188</ele>
        <time>2016-10-11T09:39:14Z</time>
      </trkpt>
      <trkpt lat="43.40286" lon="5.46326">
        <ele>518.7685546875</ele>
        <time>2016-10-11T09:39:32Z</time>
      </trkpt>
      <trkpt lat="43.40286" lon="5.46327">
        <ele>518.7685546875</ele>
        <time>2016-10-11T09:39:33Z</time>
      </trkpt>
      <trkpt lat="43.40293" lon="5.4632">
        <ele>523.09460449219</ele>
        <time>2016-10-11T09:39:48Z</time>
      </trkpt>
      <trkpt lat="43.40297" lon="5.46313">
        <ele>526.93981933594</ele>
        <time>2016-10-11T09:40:05Z</time>
      </trkpt>
      <trkpt lat="43.40304" lon="5.46313">
        <ele>529.34313964844</ele>
        <time>2016-10-11T09:40:24Z</time>
      </trkpt>
      <trkpt lat="43.40314" lon="5.46317">
        <ele>534.14965820312</ele>
        <time>2016-10-11T09:40:48Z</time>
      </trkpt>
      <trkpt lat="43.40317" lon="5.46322">
        <ele>536.07238769531</ele>
        <time>2016-10-11T09:41:01Z</time>
      </trkpt>
      <trkpt lat="43.40321" lon="5.46317">
        <ele>538.47570800781</ele>
        <time>2016-10-11T09:41:21Z</time>
      </trkpt>
      <trkpt lat="43.40329" lon="5.46321">
        <ele>539.43688964844</ele>
        <time>2016-10-11T09:41:37Z</time>
      </trkpt>
      <trkpt lat="43.40338" lon="5.46321">
        <ele>540.39831542969</ele>
        <time>2016-10-11T09:41:55Z</time>
      </trkpt>
      <trkpt lat="43.40342" lon="5.46327">
        <ele>543.76281738281</ele>
        <time>2016-10-11T09:42:14Z</time>
      </trkpt>
      <trkpt lat="43.40349" lon="5.46324">
        <ele>546.16625976562</ele>
        <time>2016-10-11T09:42:33Z</time>
      </trkpt>
      <trkpt lat="43.40358" lon="5.46329">
        <ele>549.05004882812</ele>
        <time>2016-10-11T09:43:01Z</time>
      </trkpt>
      <trkpt lat="43.40361" lon="5.46325">
        <ele>549.05004882812</ele>
        <time>2016-10-11T09:43:20Z</time>
      </trkpt>
      <trkpt lat="43.40367" lon="5.46322">
        <ele>550.4921875</ele>
        <time>2016-10-11T09:43:38Z</time>
      </trkpt>
      <trkpt lat="43.40374" lon="5.46317">
        <ele>552.41455078125</ele>
        <time>2016-10-11T09:44:01Z</time>
      </trkpt>
      <trkpt lat="43.40379" lon="5.46314">
        <ele>554.33740234375</ele>
        <time>2016-10-11T09:44:18Z</time>
      </trkpt>
      <trkpt lat="43.40383" lon="5.46312">
        <ele>557.22143554688</ele>
        <time>2016-10-11T09:44:35Z</time>
      </trkpt>
      <trkpt lat="43.40386" lon="5.46305">
        <ele>558.66333007812</ele>
        <time>2016-10-11T09:44:54Z</time>
      </trkpt>
      <trkpt lat="43.40386" lon="5.463">
        <ele>559.62475585938</ele>
        <time>2016-10-11T09:46:57Z</time>
      </trkpt>
      <trkpt lat="43.40393" lon="5.46295">
        <ele>559.62475585938</ele>
        <time>2016-10-11T09:47:17Z</time>
      </trkpt>
      <trkpt lat="43.40395" lon="5.46292">
        <ele>565.392578125</ele>
        <time>2016-10-11T09:47:30Z</time>
      </trkpt>
      <trkpt lat="43.40404" lon="5.46296">
        <ele>567.79565429688</ele>
        <time>2016-10-11T09:47:52Z</time>
      </trkpt>
      <trkpt lat="43.40405" lon="5.46294">
        <ele>569.71850585938</ele>
        <time>2016-10-11T09:48:03Z</time>
      </trkpt>
      <trkpt lat="43.40409" lon="5.46291">
        <ele>571.64086914062</ele>
        <time>2016-10-11T09:48:16Z</time>
      </trkpt>
      <trkpt lat="43.40412" lon="5.46289">
        <ele>574.04443359375</ele>
        <time>2016-10-11T09:48:33Z</time>
      </trkpt>
      <trkpt lat="43.40416" lon="5.4629">
        <ele>574.52514648438</ele>
        <time>2016-10-11T09:48:47Z</time>
      </trkpt>
      <trkpt lat="43.40419" lon="5.46289">
        <ele>573.56396484375</ele>
        <time>2016-10-11T09:49:02Z</time>
      </trkpt>
      <trkpt lat="43.40424" lon="5.46288">
        <ele>572.6025390625</ele>
        <time>2016-10-11T09:49:18Z</time>
      </trkpt>
      <trkpt lat="43.40423" lon="5.46287">
        <ele>572.6025390625</ele>
        <time>2016-10-11T09:49:36Z</time>
      </trkpt>
      <trkpt lat="43.40431" lon="5.46285">
        <ele>575.486328125</ele>
        <time>2016-10-11T09:49:50Z</time>
      </trkpt>
      <trkpt lat="43.40432" lon="5.46287">
        <ele>579.33154296875</ele>
        <time>2016-10-11T09:50:03Z</time>
      </trkpt>
      <trkpt lat="43.40434" lon="5.46289">
        <ele>581.73486328125</ele>
        <time>2016-10-11T09:50:18Z</time>
      </trkpt>
      <trkpt lat="43.40435" lon="5.46291">
        <ele>587.02197265625</ele>
        <time>2016-10-11T09:50:38Z</time>
      </trkpt>
      <trkpt lat="43.40438" lon="5.46293">
        <ele>589.90625</ele>
        <time>2016-10-11T09:50:55Z</time>
      </trkpt>
      <trkpt lat="43.40442" lon="5.46292">
        <ele>591.34814453125</ele>
        <time>2016-10-11T09:51:13Z</time>
      </trkpt>
      <trkpt lat="43.40444" lon="5.46289">
        <ele>593.27075195312</ele>
        <time>2016-10-11T09:51:26Z</time>
      </trkpt>
      <trkpt lat="43.40449" lon="5.46286">
        <ele>595.67407226562</ele>
        <time>2016-10-11T09:51:44Z</time>
      </trkpt>
      <trkpt lat="43.40454" lon="5.46283">
        <ele>599.51928710938</ele>
        <time>2016-10-11T09:52:05Z</time>
      </trkpt>
      <trkpt lat="43.40455" lon="5.46284">
        <ele>601.44189453125</ele>
        <time>2016-10-11T09:52:37Z</time>
      </trkpt>
      <trkpt lat="43.4046" lon="5.46289">
        <ele>606.24853515625</ele>
        <time>2016-10-11T09:52:54Z</time>
      </trkpt>
      <trkpt lat="43.40463" lon="5.46289">
        <ele>610.09375</ele>
        <time>2016-10-11T09:53:09Z</time>
      </trkpt>
      <trkpt lat="43.40466" lon="5.4629">
        <ele>614.41967773438</ele>
        <time>2016-10-11T09:53:24Z</time>
      </trkpt>
      <trkpt lat="43.40469" lon="5.46288">
        <ele>616.82299804688</ele>
        <time>2016-10-11T09:53:39Z</time>
      </trkpt>
      <trkpt lat="43.40473" lon="5.46285">
        <ele>618.26489257812</ele>
        <time>2016-10-11T09:54:06Z</time>
      </trkpt>
      <trkpt lat="43.40476" lon="5.46284">
        <ele>622.1103515625</ele>
        <time>2016-10-11T09:54:25Z</time>
      </trkpt>
      <trkpt lat="43.40478" lon="5.46286">
        <ele>624.03295898438</ele>
        <time>2016-10-11T09:54:52Z</time>
      </trkpt>
      <trkpt lat="43.40481" lon="5.46285">
        <ele>627.87817382812</ele>
        <time>2016-10-11T09:55:10Z</time>
      </trkpt>
      <trkpt lat="43.40483" lon="5.46288">
        <ele>630.76220703125</ele>
        <time>2016-10-11T09:55:26Z</time>
      </trkpt>
      <trkpt lat="43.40484" lon="5.46284">
        <ele>631.72338867188</ele>
        <time>2016-10-11T09:55:48Z</time>
      </trkpt>
      <trkpt lat="43.40488" lon="5.46283">
        <ele>631.72338867188</ele>
        <time>2016-10-11T09:56:00Z</time>
      </trkpt>
      <trkpt lat="43.4049" lon="5.46276">
        <ele>632.68481445312</ele>
        <time>2016-10-11T09:56:15Z</time>
      </trkpt>
      <trkpt lat="43.40494" lon="5.4628">
        <ele>638.45288085938</ele>
        <time>2016-10-11T09:56:53Z</time>
      </trkpt>
      <trkpt lat="43.40498" lon="5.46277">
        <ele>643.25927734375</ele>
        <time>2016-10-11T09:57:11Z</time>
      </trkpt>
      <trkpt lat="43.40499" lon="5.46278">
        <ele>645.18188476562</ele>
        <time>2016-10-11T09:57:28Z</time>
      </trkpt>
      <trkpt lat="43.405" lon="5.46278">
        <ele>644.701171875</ele>
        <time>2016-10-11T09:57:42Z</time>
      </trkpt>
      <trkpt lat="43.40507" lon="5.46274">
        <ele>640.85595703125</ele>
        <time>2016-10-11T09:58:00Z</time>
      </trkpt>
      <trkpt lat="43.40513" lon="5.46269">
        <ele>639.4140625</ele>
        <time>2016-10-11T09:58:20Z</time>
      </trkpt>
      <trkpt lat="43.40515" lon="5.46269">
        <ele>641.33666992188</ele>
        <time>2016-10-11T09:58:41Z</time>
      </trkpt>
      <trkpt lat="43.4052" lon="5.46271">
        <ele>642.29809570312</ele>
        <time>2016-10-11T09:58:58Z</time>
      </trkpt>
      <trkpt lat="43.40523" lon="5.46273">
        <ele>644.701171875</ele>
        <time>2016-10-11T09:59:16Z</time>
      </trkpt>
      <trkpt lat="43.40526" lon="5.46271">
        <ele>645.66259765625</ele>
        <time>2016-10-11T09:59:34Z</time>
      </trkpt>
      <trkpt lat="43.40526" lon="5.4627">
        <ele>647.58520507812</ele>
        <time>2016-10-11T09:59:52Z</time>
      </trkpt>
      <trkpt lat="43.40529" lon="5.46268">
        <ele>651.43041992188</ele>
        <time>2016-10-11T10:00:08Z</time>
      </trkpt>
      <trkpt lat="43.40531" lon="5.4627">
        <ele>658.64038085938</ele>
        <time>2016-10-11T10:00:26Z</time>
      </trkpt>
      <trkpt lat="43.40531" lon="5.46269">
        <ele>662.48559570312</ele>
        <time>2016-10-11T10:00:43Z</time>
      </trkpt>
      <trkpt lat="43.40528" lon="5.46269">
        <ele>663.92749023438</ele>
        <time>2016-10-11T10:01:05Z</time>
      </trkpt>
      <trkpt lat="43.40527" lon="5.46269">
        <ele>665.36962890625</ele>
        <time>2016-10-11T10:01:37Z</time>
      </trkpt>
      <trkpt lat="43.40527" lon="5.46271">
        <ele>667.29223632812</ele>
        <time>2016-10-11T10:01:54Z</time>
      </trkpt>
      <trkpt lat="43.40528" lon="5.46271">
        <ele>667.29223632812</ele>
        <time>2016-10-11T10:02:37Z</time>
      </trkpt>
      <trkpt lat="43.40526" lon="5.46266">
        <ele>667.29223632812</ele>
        <time>2016-10-11T10:03:07Z</time>
      </trkpt>
      <trkpt lat="43.40525" lon="5.46272">
        <ele>666.8115234375</ele>
        <time>2016-10-11T10:03:21Z</time>
      </trkpt>
      <trkpt lat="43.40523" lon="5.46283">
        <ele>666.33081054688</ele>
        <time>2016-10-11T10:03:33Z</time>
      </trkpt>
      <trkpt lat="43.40522" lon="5.46292">
        <ele>666.33081054688</ele>
        <time>2016-10-11T10:03:43Z</time>
      </trkpt>
      <trkpt lat="43.40524" lon="5.46307">
        <ele>665.85034179688</ele>
        <time>2016-10-11T10:04:00Z</time>
      </trkpt>
      <trkpt lat="43.40524" lon="5.46312">
        <ele>665.36962890625</ele>
        <time>2016-10-11T10:04:04Z</time>
      </trkpt>
      <trkpt lat="43.40524" lon="5.46325">
        <ele>665.85034179688</ele>
        <time>2016-10-11T10:04:19Z</time>
      </trkpt>
      <trkpt lat="43.40525" lon="5.46334">
        <ele>666.8115234375</ele>
        <time>2016-10-11T10:04:34Z</time>
      </trkpt>
      <trkpt lat="43.40525" lon="5.46338">
        <ele>665.85034179688</ele>
        <time>2016-10-11T10:05:03Z</time>
      </trkpt>
      <trkpt lat="43.40524" lon="5.46339">
        <ele>665.85034179688</ele>
        <time>2016-10-11T10:05:04Z</time>
      </trkpt>
      <trkpt lat="43.40528" lon="5.46347">
        <ele>664.88891601562</ele>
        <time>2016-10-11T10:05:20Z</time>
      </trkpt>
      <trkpt lat="43.40526" lon="5.46347">
        <ele>664.408203125</ele>
        <time>2016-10-11T10:05:37Z</time>
      </trkpt>
      <trkpt lat="43.40528" lon="5.46363">
        <ele>660.08227539062</ele>
        <time>2016-10-11T10:05:54Z</time>
      </trkpt>
      <trkpt lat="43.40531" lon="5.46381">
        <ele>657.67919921875</ele>
        <time>2016-10-11T10:06:12Z</time>
      </trkpt>
      <trkpt lat="43.40529" lon="5.46392">
        <ele>655.27587890625</ele>
        <time>2016-10-11T10:06:25Z</time>
      </trkpt>
      <trkpt lat="43.4053" lon="5.46408">
        <ele>655.27587890625</ele>
        <time>2016-10-11T10:06:43Z</time>
      </trkpt>
      <trkpt lat="43.40526" lon="5.46424">
        <ele>656.23706054688</ele>
        <time>2016-10-11T10:06:58Z</time>
      </trkpt>
      <trkpt lat="43.40525" lon="5.46431">
        <ele>658.64038085938</ele>
        <time>2016-10-11T10:07:11Z</time>
      </trkpt>
      <trkpt lat="43.4053" lon="5.46436">
        <ele>661.5244140625</ele>
        <time>2016-10-11T10:07:24Z</time>
      </trkpt>
      <trkpt lat="43.40533" lon="5.46435">
        <ele>662.00512695312</ele>
        <time>2016-10-11T10:07:39Z</time>
      </trkpt>
      <trkpt lat="43.40533" lon="5.46437">
        <ele>662.48559570312</ele>
        <time>2016-10-11T10:08:02Z</time>
      </trkpt>
      <trkpt lat="43.40531" lon="5.46435">
        <ele>662.96630859375</ele>
        <time>2016-10-11T10:08:56Z</time>
      </trkpt>
      <trkpt lat="43.40527" lon="5.46442">
        <ele>660.08227539062</ele>
        <time>2016-10-11T10:09:14Z</time>
      </trkpt>
      <trkpt lat="43.40525" lon="5.46443">
        <ele>660.08227539062</ele>
        <time>2016-10-11T10:09:26Z</time>
      </trkpt>
      <trkpt lat="43.40521" lon="5.46445">
        <ele>659.60180664062</ele>
        <time>2016-10-11T10:09:32Z</time>
      </trkpt>
      <trkpt lat="43.4052" lon="5.46448">
        <ele>659.60180664062</ele>
        <time>2016-10-11T10:09:34Z</time>
      </trkpt>
      <trkpt lat="43.40516" lon="5.46463">
        <ele>661.5244140625</ele>
        <time>2016-10-11T10:09:48Z</time>
      </trkpt>
      <trkpt lat="43.40517" lon="5.46477">
        <ele>663.44702148438</ele>
        <time>2016-10-11T10:10:02Z</time>
      </trkpt>
      <trkpt lat="43.40517" lon="5.46478">
        <ele>663.44702148438</ele>
        <time>2016-10-11T10:10:03Z</time>
      </trkpt>
      <trkpt lat="43.40521" lon="5.46482">
        <ele>663.92749023438</ele>
        <time>2016-10-11T10:10:07Z</time>
      </trkpt>
      <trkpt lat="43.40525" lon="5.46492">
        <ele>664.408203125</ele>
        <time>2016-10-11T10:10:17Z</time>
      </trkpt>
      <trkpt lat="43.40524" lon="5.46499">
        <ele>663.44702148438</ele>
        <time>2016-10-11T10:10:36Z</time>
      </trkpt>
      <trkpt lat="43.40525" lon="5.46505">
        <ele>664.408203125</ele>
        <time>2016-10-11T10:11:16Z</time>
      </trkpt>
      <trkpt lat="43.40525" lon="5.46506">
        <ele>663.92749023438</ele>
        <time>2016-10-11T10:11:17Z</time>
      </trkpt>
      <trkpt lat="43.4053" lon="5.46521">
        <ele>658.64038085938</ele>
        <time>2016-10-11T10:11:29Z</time>
      </trkpt>
      <trkpt lat="43.4053" lon="5.46531">
        <ele>657.19848632812</ele>
        <time>2016-10-11T10:11:34Z</time>
      </trkpt>
      <trkpt lat="43.40538" lon="5.46551">
        <ele>655.27587890625</ele>
        <time>2016-10-11T10:11:47Z</time>
      </trkpt>
      <trkpt lat="43.4054" lon="5.46559">
        <ele>653.35327148438</ele>
        <time>2016-10-11T10:11:54Z</time>
      </trkpt>
      <trkpt lat="43.40536" lon="5.46562">
        <ele>652.87255859375</ele>
        <time>2016-10-11T10:11:58Z</time>
      </trkpt>
      <trkpt lat="43.40531" lon="5.4655">
        <ele>655.27587890625</ele>
        <time>2016-10-11T10:12:13Z</time>
      </trkpt>
      <trkpt lat="43.40529" lon="5.46549">
        <ele>654.31469726562</ele>
        <time>2016-10-11T10:12:32Z</time>
      </trkpt>
      <trkpt lat="43.40529" lon="5.46549">
        <ele>654.79516601562</ele>
        <time>2016-10-11T10:13:08Z</time>
      </trkpt>
      <trkpt lat="43.40529" lon="5.46549">
        <ele>655.27587890625</ele>
        <time>2016-10-11T10:14:33Z</time>
      </trkpt>
      <trkpt lat="43.40529" lon="5.46547">
        <ele>655.27587890625</ele>
        <time>2016-10-11T10:17:15Z</time>
      </trkpt>
      <trkpt lat="43.4053" lon="5.46546">
        <ele>655.75659179688</ele>
        <time>2016-10-11T10:17:55Z</time>
      </trkpt>
      <trkpt lat="43.40533" lon="5.46543">
        <ele>654.79516601562</ele>
        <time>2016-10-11T10:18:30Z</time>
      </trkpt>
      <trkpt lat="43.40533" lon="5.46542">
        <ele>653.35327148438</ele>
        <time>2016-10-11T10:19:51Z</time>
      </trkpt>
      <trkpt lat="43.40527" lon="5.4655">
        <ele>653.833984375</ele>
        <time>2016-10-11T10:45:20Z</time>
      </trkpt>
      <trkpt lat="43.40527" lon="5.46553">
        <ele>653.833984375</ele>
        <time>2016-10-11T10:45:42Z</time>
      </trkpt>
      <trkpt lat="43.40527" lon="5.46554">
        <ele>653.833984375</ele>
        <time>2016-10-11T10:45:58Z</time>
      </trkpt>
      <trkpt lat="43.40528" lon="5.46553">
        <ele>653.35327148438</ele>
        <time>2016-10-11T10:46:24Z</time>
      </trkpt>
      <trkpt lat="43.40529" lon="5.46551">
        <ele>651.43041992188</ele>
        <time>2016-10-11T10:46:40Z</time>
      </trkpt>
      <trkpt lat="43.40529" lon="5.46552">
        <ele>650.94970703125</ele>
        <time>2016-10-11T10:47:07Z</time>
      </trkpt>
      <trkpt lat="43.40529" lon="5.46553">
        <ele>649.98852539062</ele>
        <time>2016-10-11T10:47:38Z</time>
      </trkpt>
      <trkpt lat="43.40535" lon="5.46567">
        <ele>649.98852539062</ele>
        <time>2016-10-11T10:48:15Z</time>
      </trkpt>
      <trkpt lat="43.4054" lon="5.46572">
        <ele>650.46923828125</ele>
        <time>2016-10-11T10:48:34Z</time>
      </trkpt>
      <trkpt lat="43.40536" lon="5.46572">
        <ele>649.98852539062</ele>
        <time>2016-10-11T10:49:06Z</time>
      </trkpt>
      <trkpt lat="43.40537" lon="5.46573">
        <ele>649.5078125</ele>
        <time>2016-10-11T10:49:26Z</time>
      </trkpt>
      <trkpt lat="43.40538" lon="5.46576">
        <ele>649.5078125</ele>
        <time>2016-10-11T10:50:10Z</time>
      </trkpt>
      <trkpt lat="43.40543" lon="5.46586">
        <ele>648.54638671875</ele>
        <time>2016-10-11T10:50:46Z</time>
      </trkpt>
      <trkpt lat="43.40547" lon="5.46592">
        <ele>647.1044921875</ele>
        <time>2016-10-11T10:50:56Z</time>
      </trkpt>
      <trkpt lat="43.40549" lon="5.46601">
        <ele>645.66259765625</ele>
        <time>2016-10-11T10:51:05Z</time>
      </trkpt>
      <trkpt lat="43.40552" lon="5.46614">
        <ele>645.18188476562</ele>
        <time>2016-10-11T10:51:19Z</time>
      </trkpt>
      <trkpt lat="43.40551" lon="5.46625">
        <ele>644.701171875</ele>
        <time>2016-10-11T10:51:31Z</time>
      </trkpt>
      <trkpt lat="43.40553" lon="5.46639">
        <ele>644.220703125</ele>
        <time>2016-10-11T10:51:47Z</time>
      </trkpt>
      <trkpt lat="43.40553" lon="5.46646">
        <ele>643.25927734375</ele>
        <time>2016-10-11T10:51:57Z</time>
      </trkpt>
      <trkpt lat="43.40553" lon="5.46653">
        <ele>641.33666992188</ele>
        <time>2016-10-11T10:52:04Z</time>
      </trkpt>
      <trkpt lat="43.40552" lon="5.46662">
        <ele>637.97216796875</ele>
        <time>2016-10-11T10:52:14Z</time>
      </trkpt>
      <trkpt lat="43.40548" lon="5.46672">
        <ele>635.56860351562</ele>
        <time>2016-10-11T10:52:23Z</time>
      </trkpt>
      <trkpt lat="43.40546" lon="5.46683">
        <ele>634.12670898438</ele>
        <time>2016-10-11T10:52:32Z</time>
      </trkpt>
      <trkpt lat="43.40548" lon="5.46686">
        <ele>633.16528320312</ele>
        <time>2016-10-11T10:52:35Z</time>
      </trkpt>
      <trkpt lat="43.40552" lon="5.467">
        <ele>632.68481445312</ele>
        <time>2016-10-11T10:52:47Z</time>
      </trkpt>
      <trkpt lat="43.40553" lon="5.46702">
        <ele>631.72338867188</ele>
        <time>2016-10-11T10:52:49Z</time>
      </trkpt>
      <trkpt lat="43.40556" lon="5.4671">
        <ele>631.72338867188</ele>
        <time>2016-10-11T10:52:55Z</time>
      </trkpt>
      <trkpt lat="43.40559" lon="5.46713">
        <ele>631.72338867188</ele>
        <time>2016-10-11T10:52:58Z</time>
      </trkpt>
      <trkpt lat="43.40565" lon="5.4672">
        <ele>631.72338867188</ele>
        <time>2016-10-11T10:53:04Z</time>
      </trkpt>
      <trkpt lat="43.40572" lon="5.46728">
        <ele>635.08813476562</ele>
        <time>2016-10-11T10:53:11Z</time>
      </trkpt>
      <trkpt lat="43.40569" lon="5.46736">
        <ele>634.607421875</ele>
        <time>2016-10-11T10:53:31Z</time>
      </trkpt>
      <trkpt lat="43.40568" lon="5.46743">
        <ele>633.64599609375</ele>
        <time>2016-10-11T10:54:11Z</time>
      </trkpt>
      <trkpt lat="43.4057" lon="5.46755">
        <ele>632.68481445312</ele>
        <time>2016-10-11T10:54:36Z</time>
      </trkpt>
      <trkpt lat="43.40573" lon="5.46763">
        <ele>631.72338867188</ele>
        <time>2016-10-11T10:54:40Z</time>
      </trkpt>
      <trkpt lat="43.4058" lon="5.46779">
        <ele>630.76220703125</ele>
        <time>2016-10-11T10:54:55Z</time>
      </trkpt>
      <trkpt lat="43.40587" lon="5.46786">
        <ele>629.32006835938</ele>
        <time>2016-10-11T10:55:04Z</time>
      </trkpt>
      <trkpt lat="43.40591" lon="5.4679">
        <ele>628.83959960938</ele>
        <time>2016-10-11T10:55:08Z</time>
      </trkpt>
      <trkpt lat="43.40608" lon="5.46798">
        <ele>627.39770507812</ele>
        <time>2016-10-11T10:55:23Z</time>
      </trkpt>
      <trkpt lat="43.4062" lon="5.46815">
        <ele>627.39770507812</ele>
        <time>2016-10-11T10:55:39Z</time>
      </trkpt>
      <trkpt lat="43.40625" lon="5.46826">
        <ele>624.99438476562</ele>
        <time>2016-10-11T10:55:49Z</time>
      </trkpt>
      <trkpt lat="43.40623" lon="5.46838">
        <ele>623.55249023438</ele>
        <time>2016-10-11T10:56:04Z</time>
      </trkpt>
      <trkpt lat="43.40623" lon="5.46838">
        <ele>624.03295898438</ele>
        <time>2016-10-11T10:56:10Z</time>
      </trkpt>
      <trkpt lat="43.40603" lon="5.46838">
        <ele>624.513671875</ele>
        <time>2016-10-11T10:56:26Z</time>
      </trkpt>
      <trkpt lat="43.40601" lon="5.46837">
        <ele>624.513671875</ele>
        <time>2016-10-11T10:56:27Z</time>
      </trkpt>
      <trkpt lat="43.40597" lon="5.46836">
        <ele>624.03295898438</ele>
        <time>2016-10-11T10:56:30Z</time>
      </trkpt>
      <trkpt lat="43.40587" lon="5.46834">
        <ele>623.55249023438</ele>
        <time>2016-10-11T10:56:35Z</time>
      </trkpt>
      <trkpt lat="43.4057" lon="5.46837">
        <ele>624.03295898438</ele>
        <time>2016-10-11T10:56:50Z</time>
      </trkpt>
      <trkpt lat="43.40563" lon="5.4684">
        <ele>624.99438476562</ele>
        <time>2016-10-11T10:56:57Z</time>
      </trkpt>
      <trkpt lat="43.40549" lon="5.46858">
        <ele>629.32006835938</ele>
        <time>2016-10-11T10:57:15Z</time>
      </trkpt>
      <trkpt lat="43.4055" lon="5.46862">
        <ele>629.32006835938</ele>
        <time>2016-10-11T10:57:18Z</time>
      </trkpt>
      <trkpt lat="43.4055" lon="5.46869">
        <ele>630.28149414062</ele>
        <time>2016-10-11T10:57:22Z</time>
      </trkpt>
      <trkpt lat="43.40549" lon="5.46874">
        <ele>630.76220703125</ele>
        <time>2016-10-11T10:57:25Z</time>
      </trkpt>
      <trkpt lat="43.40548" lon="5.46876">
        <ele>630.76220703125</ele>
        <time>2016-10-11T10:57:28Z</time>
      </trkpt>
      <trkpt lat="43.40547" lon="5.46882">
        <ele>634.12670898438</ele>
        <time>2016-10-11T10:57:42Z</time>
      </trkpt>
      <trkpt lat="43.40545" lon="5.46894">
        <ele>637.0107421875</ele>
        <time>2016-10-11T10:58:03Z</time>
      </trkpt>
      <trkpt lat="43.40544" lon="5.46902">
        <ele>636.5302734375</ele>
        <time>2016-10-11T10:58:09Z</time>
      </trkpt>
      <trkpt lat="43.4054" lon="5.4692">
        <ele>636.04956054688</ele>
        <time>2016-10-11T10:58:17Z</time>
      </trkpt>
      <trkpt lat="43.40528" lon="5.4694">
        <ele>630.76220703125</ele>
        <time>2016-10-11T10:58:31Z</time>
      </trkpt>
      <trkpt lat="43.40517" lon="5.46955">
        <ele>629.80078125</ele>
        <time>2016-10-11T10:58:43Z</time>
      </trkpt>
      <trkpt lat="43.40515" lon="5.46962">
        <ele>629.80078125</ele>
        <time>2016-10-11T10:58:47Z</time>
      </trkpt>
      <trkpt lat="43.40503" lon="5.46985">
        <ele>628.83959960938</ele>
        <time>2016-10-11T10:59:07Z</time>
      </trkpt>
      <trkpt lat="43.40491" lon="5.47006">
        <ele>627.87817382812</ele>
        <time>2016-10-11T10:59:28Z</time>
      </trkpt>
      <trkpt lat="43.40491" lon="5.47006">
        <ele>627.87817382812</ele>
        <time>2016-10-11T10:59:29Z</time>
      </trkpt>
      <trkpt lat="43.40484" lon="5.47006">
        <ele>629.80078125</ele>
        <time>2016-10-11T10:59:45Z</time>
      </trkpt>
      <trkpt lat="43.40484" lon="5.47006">
        <ele>628.83959960938</ele>
        <time>2016-10-11T11:00:11Z</time>
      </trkpt>
      <trkpt lat="43.40484" lon="5.47015">
        <ele>627.87817382812</ele>
        <time>2016-10-11T11:00:22Z</time>
      </trkpt>
      <trkpt lat="43.40482" lon="5.47029">
        <ele>626.43627929688</ele>
        <time>2016-10-11T11:00:45Z</time>
      </trkpt>
      <trkpt lat="43.40481" lon="5.47031">
        <ele>625.47485351562</ele>
        <time>2016-10-11T11:00:58Z</time>
      </trkpt>
      <trkpt lat="43.40478" lon="5.47043">
        <ele>622.59106445312</ele>
        <time>2016-10-11T11:01:15Z</time>
      </trkpt>
      <trkpt lat="43.40469" lon="5.47068">
        <ele>618.26489257812</ele>
        <time>2016-10-11T11:01:40Z</time>
      </trkpt>
      <trkpt lat="43.40464" lon="5.47081">
        <ele>615.86181640625</ele>
        <time>2016-10-11T11:01:53Z</time>
      </trkpt>
      <trkpt lat="43.40451" lon="5.47096">
        <ele>612.4970703125</ele>
        <time>2016-10-11T11:02:11Z</time>
      </trkpt>
      <trkpt lat="43.40449" lon="5.47097">
        <ele>612.4970703125</ele>
        <time>2016-10-11T11:02:13Z</time>
      </trkpt>
      <trkpt lat="43.40426" lon="5.47113">
        <ele>608.65185546875</ele>
        <time>2016-10-11T11:02:39Z</time>
      </trkpt>
      <trkpt lat="43.40413" lon="5.47124">
        <ele>607.69067382812</ele>
        <time>2016-10-11T11:02:52Z</time>
      </trkpt>
      <trkpt lat="43.40413" lon="5.47139">
        <ele>609.61328125</ele>
        <time>2016-10-11T11:03:09Z</time>
      </trkpt>
      <trkpt lat="43.40416" lon="5.47145">
        <ele>611.05517578125</ele>
        <time>2016-10-11T11:03:27Z</time>
      </trkpt>
      <trkpt lat="43.4042" lon="5.4715">
        <ele>608.65185546875</ele>
        <time>2016-10-11T11:03:41Z</time>
      </trkpt>
      <trkpt lat="43.40427" lon="5.47159">
        <ele>604.326171875</ele>
        <time>2016-10-11T11:03:56Z</time>
      </trkpt>
      <trkpt lat="43.40428" lon="5.47163">
        <ele>607.69067382812</ele>
        <time>2016-10-11T11:04:10Z</time>
      </trkpt>
      <trkpt lat="43.40431" lon="5.47169">
        <ele>605.76806640625</ele>
        <time>2016-10-11T11:04:24Z</time>
      </trkpt>
      <trkpt lat="43.40434" lon="5.47172">
        <ele>602.8837890625</ele>
        <time>2016-10-11T11:04:41Z</time>
      </trkpt>
      <trkpt lat="43.40435" lon="5.47174">
        <ele>601.92260742188</ele>
        <time>2016-10-11T11:04:57Z</time>
      </trkpt>
      <trkpt lat="43.40434" lon="5.4718">
        <ele>601.44189453125</ele>
        <time>2016-10-11T11:05:02Z</time>
      </trkpt>
      <trkpt lat="43.40426" lon="5.47199">
        <ele>603.84521484375</ele>
        <time>2016-10-11T11:05:15Z</time>
      </trkpt>
      <trkpt lat="43.40425" lon="5.4721">
        <ele>604.806640625</ele>
        <time>2016-10-11T11:05:24Z</time>
      </trkpt>
      <trkpt lat="43.40425" lon="5.47215">
        <ele>604.806640625</ele>
        <time>2016-10-11T11:05:28Z</time>
      </trkpt>
      <trkpt lat="43.40429" lon="5.47223">
        <ele>605.28735351562</ele>
        <time>2016-10-11T11:05:34Z</time>
      </trkpt>
      <trkpt lat="43.40438" lon="5.4724">
        <ele>604.806640625</ele>
        <time>2016-10-11T11:05:46Z</time>
      </trkpt>
      <trkpt lat="43.40439" lon="5.47242">
        <ele>604.806640625</ele>
        <time>2016-10-11T11:05:47Z</time>
      </trkpt>
      <trkpt lat="43.40439" lon="5.47245">
        <ele>604.806640625</ele>
        <time>2016-10-11T11:05:49Z</time>
      </trkpt>
      <trkpt lat="43.40442" lon="5.47252">
        <ele>605.76806640625</ele>
        <time>2016-10-11T11:05:54Z</time>
      </trkpt>
      <trkpt lat="43.40448" lon="5.4726">
        <ele>607.2099609375</ele>
        <time>2016-10-11T11:06:00Z</time>
      </trkpt>
      <trkpt lat="43.40456" lon="5.47274">
        <ele>609.13256835938</ele>
        <time>2016-10-11T11:06:09Z</time>
      </trkpt>
      <trkpt lat="43.40458" lon="5.4728">
        <ele>609.61328125</ele>
        <time>2016-10-11T11:06:13Z</time>
      </trkpt>
      <trkpt lat="43.40467" lon="5.47295">
        <ele>611.53588867188</ele>
        <time>2016-10-11T11:06:27Z</time>
      </trkpt>
      <trkpt lat="43.4047" lon="5.47304">
        <ele>612.4970703125</ele>
        <time>2016-10-11T11:06:32Z</time>
      </trkpt>
      <trkpt lat="43.40467" lon="5.47315">
        <ele>612.0166015625</ele>
        <time>2016-10-11T11:06:38Z</time>
      </trkpt>
      <trkpt lat="43.4047" lon="5.47324">
        <ele>612.97778320312</ele>
        <time>2016-10-11T11:06:44Z</time>
      </trkpt>
      <trkpt lat="43.40471" lon="5.47326">
        <ele>613.45849609375</ele>
        <time>2016-10-11T11:06:46Z</time>
      </trkpt>
      <trkpt lat="43.40473" lon="5.47334">
        <ele>614.41967773438</ele>
        <time>2016-10-11T11:06:51Z</time>
      </trkpt>
      <trkpt lat="43.40479" lon="5.47351">
        <ele>612.97778320312</ele>
        <time>2016-10-11T11:07:07Z</time>
      </trkpt>
      <trkpt lat="43.40483" lon="5.47362">
        <ele>614.41967773438</ele>
        <time>2016-10-11T11:07:16Z</time>
      </trkpt>
      <trkpt lat="43.40486" lon="5.47368">
        <ele>615.38110351562</ele>
        <time>2016-10-11T11:07:20Z</time>
      </trkpt>
      <trkpt lat="43.40488" lon="5.47372">
        <ele>615.38110351562</ele>
        <time>2016-10-11T11:07:23Z</time>
      </trkpt>
      <trkpt lat="43.40487" lon="5.47395">
        <ele>612.4970703125</ele>
        <time>2016-10-11T11:07:37Z</time>
      </trkpt>
      <trkpt lat="43.4049" lon="5.47402">
        <ele>611.53588867188</ele>
        <time>2016-10-11T11:07:42Z</time>
      </trkpt>
      <trkpt lat="43.40492" lon="5.47411">
        <ele>609.61328125</ele>
        <time>2016-10-11T11:07:48Z</time>
      </trkpt>
      <trkpt lat="43.40506" lon="5.47428">
        <ele>609.13256835938</ele>
        <time>2016-10-11T11:08:04Z</time>
      </trkpt>
      <trkpt lat="43.40506" lon="5.47442">
        <ele>606.24853515625</ele>
        <time>2016-10-11T11:08:13Z</time>
      </trkpt>
      <trkpt lat="43.40507" lon="5.47456">
        <ele>604.806640625</ele>
        <time>2016-10-11T11:08:22Z</time>
      </trkpt>
      <trkpt lat="43.40501" lon="5.4748">
        <ele>600.96118164062</ele>
        <time>2016-10-11T11:08:39Z</time>
      </trkpt>
      <trkpt lat="43.40502" lon="5.47482">
        <ele>600.96118164062</ele>
        <time>2016-10-11T11:08:40Z</time>
      </trkpt>
      <trkpt lat="43.40501" lon="5.47487">
        <ele>600</ele>
        <time>2016-10-11T11:08:44Z</time>
      </trkpt>
      <trkpt lat="43.40507" lon="5.47508">
        <ele>601.92260742188</ele>
        <time>2016-10-11T11:08:59Z</time>
      </trkpt>
      <trkpt lat="43.4051" lon="5.47516">
        <ele>602.8837890625</ele>
        <time>2016-10-11T11:09:06Z</time>
      </trkpt>
      <trkpt lat="43.40518" lon="5.4754">
        <ele>601.44189453125</ele>
        <time>2016-10-11T11:09:24Z</time>
      </trkpt>
      <trkpt lat="43.40519" lon="5.47546">
        <ele>601.44189453125</ele>
        <time>2016-10-11T11:09:28Z</time>
      </trkpt>
      <trkpt lat="43.40523" lon="5.47555">
        <ele>600.48071289062</ele>
        <time>2016-10-11T11:09:35Z</time>
      </trkpt>
      <trkpt lat="43.40535" lon="5.47565">
        <ele>600.96118164062</ele>
        <time>2016-10-11T11:09:48Z</time>
      </trkpt>
      <trkpt lat="43.40543" lon="5.47567">
        <ele>601.44189453125</ele>
        <time>2016-10-11T11:09:53Z</time>
      </trkpt>
      <trkpt lat="43.40547" lon="5.47571">
        <ele>601.44189453125</ele>
        <time>2016-10-11T11:09:57Z</time>
      </trkpt>
      <trkpt lat="43.40569" lon="5.47581">
        <ele>596.63549804688</ele>
        <time>2016-10-11T11:10:20Z</time>
      </trkpt>
      <trkpt lat="43.40575" lon="5.47589">
        <ele>593.27075195312</ele>
        <time>2016-10-11T11:10:29Z</time>
      </trkpt>
      <trkpt lat="43.40578" lon="5.47596">
        <ele>591.82885742188</ele>
        <time>2016-10-11T11:10:34Z</time>
      </trkpt>
      <trkpt lat="43.4058" lon="5.47601">
        <ele>591.34814453125</ele>
        <time>2016-10-11T11:10:38Z</time>
      </trkpt>
      <trkpt lat="43.40586" lon="5.47611">
        <ele>590.38696289062</ele>
        <time>2016-10-11T11:10:46Z</time>
      </trkpt>
      <trkpt lat="43.4059" lon="5.47618">
        <ele>589.42553710938</ele>
        <time>2016-10-11T11:10:51Z</time>
      </trkpt>
      <trkpt lat="43.40593" lon="5.47622">
        <ele>588.46435546875</ele>
        <time>2016-10-11T11:10:55Z</time>
      </trkpt>
      <trkpt lat="43.40595" lon="5.47627">
        <ele>589.42553710938</ele>
        <time>2016-10-11T11:10:59Z</time>
      </trkpt>
      <trkpt lat="43.40601" lon="5.47634">
        <ele>589.90625</ele>
        <time>2016-10-11T11:11:05Z</time>
      </trkpt>
      <trkpt lat="43.40608" lon="5.47647">
        <ele>588.46435546875</ele>
        <time>2016-10-11T11:11:16Z</time>
      </trkpt>
      <trkpt lat="43.40611" lon="5.47656">
        <ele>588.46435546875</ele>
        <time>2016-10-11T11:11:22Z</time>
      </trkpt>
      <trkpt lat="43.40616" lon="5.47664">
        <ele>586.54150390625</ele>
        <time>2016-10-11T11:11:29Z</time>
      </trkpt>
      <trkpt lat="43.40623" lon="5.47675">
        <ele>586.06079101562</ele>
        <time>2016-10-11T11:11:38Z</time>
      </trkpt>
      <trkpt lat="43.40625" lon="5.47677">
        <ele>586.06079101562</ele>
        <time>2016-10-11T11:11:40Z</time>
      </trkpt>
      <trkpt lat="43.40633" lon="5.47689">
        <ele>584.13818359375</ele>
        <time>2016-10-11T11:11:50Z</time>
      </trkpt>
      <trkpt lat="43.40635" lon="5.47693">
        <ele>583.65747070312</ele>
        <time>2016-10-11T11:11:53Z</time>
      </trkpt>
      <trkpt lat="43.40639" lon="5.47696">
        <ele>584.13818359375</ele>
        <time>2016-10-11T11:11:57Z</time>
      </trkpt>
      <trkpt lat="43.40642" lon="5.47699">
        <ele>584.13818359375</ele>
        <time>2016-10-11T11:12:00Z</time>
      </trkpt>
      <trkpt lat="43.40649" lon="5.47706">
        <ele>583.65747070312</ele>
        <time>2016-10-11T11:12:07Z</time>
      </trkpt>
      <trkpt lat="43.40651" lon="5.47707">
        <ele>584.13818359375</ele>
        <time>2016-10-11T11:12:09Z</time>
      </trkpt>
      <trkpt lat="43.40666" lon="5.47722">
        <ele>583.65747070312</ele>
        <time>2016-10-11T11:12:26Z</time>
      </trkpt>
      <trkpt lat="43.40682" lon="5.47739">
        <ele>578.85107421875</ele>
        <time>2016-10-11T11:12:43Z</time>
      </trkpt>
      <trkpt lat="43.40687" lon="5.47751">
        <ele>574.04443359375</ele>
        <time>2016-10-11T11:12:54Z</time>
      </trkpt>
      <trkpt lat="43.40697" lon="5.47761">
        <ele>573.56396484375</ele>
        <time>2016-10-11T11:13:07Z</time>
      </trkpt>
      <trkpt lat="43.40704" lon="5.4777">
        <ele>573.08325195312</ele>
        <time>2016-10-11T11:13:15Z</time>
      </trkpt>
      <trkpt lat="43.40711" lon="5.47777">
        <ele>573.08325195312</ele>
        <time>2016-10-11T11:13:23Z</time>
      </trkpt>
      <trkpt lat="43.40718" lon="5.47785">
        <ele>574.04443359375</ele>
        <time>2016-10-11T11:13:32Z</time>
      </trkpt>
      <trkpt lat="43.40726" lon="5.47798">
        <ele>572.6025390625</ele>
        <time>2016-10-11T11:13:43Z</time>
      </trkpt>
      <trkpt lat="43.40734" lon="5.47828">
        <ele>568.75708007812</ele>
        <time>2016-10-11T11:14:02Z</time>
      </trkpt>
      <trkpt lat="43.40734" lon="5.47831">
        <ele>568.75708007812</ele>
        <time>2016-10-11T11:14:06Z</time>
      </trkpt>
      <trkpt lat="43.40733" lon="5.47834">
        <ele>568.2763671875</ele>
        <time>2016-10-11T11:14:08Z</time>
      </trkpt>
      <trkpt lat="43.40733" lon="5.47844">
        <ele>567.79565429688</ele>
        <time>2016-10-11T11:14:14Z</time>
      </trkpt>
      <trkpt lat="43.40735" lon="5.4785">
        <ele>568.2763671875</ele>
        <time>2016-10-11T11:14:19Z</time>
      </trkpt>
      <trkpt lat="43.40734" lon="5.47856">
        <ele>568.75708007812</ele>
        <time>2016-10-11T11:14:23Z</time>
      </trkpt>
      <trkpt lat="43.40722" lon="5.47878">
        <ele>571.64086914062</ele>
        <time>2016-10-11T11:14:43Z</time>
      </trkpt>
      <trkpt lat="43.40721" lon="5.47879">
        <ele>571.64086914062</ele>
        <time>2016-10-11T11:14:44Z</time>
      </trkpt>
      <trkpt lat="43.40702" lon="5.47896">
        <ele>574.04443359375</ele>
        <time>2016-10-11T11:15:03Z</time>
      </trkpt>
      <trkpt lat="43.40691" lon="5.479">
        <ele>573.56396484375</ele>
        <time>2016-10-11T11:15:18Z</time>
      </trkpt>
      <trkpt lat="43.40683" lon="5.47904">
        <ele>574.52514648438</ele>
        <time>2016-10-11T11:15:28Z</time>
      </trkpt>
      <trkpt lat="43.40677" lon="5.47928">
        <ele>575.96704101562</ele>
        <time>2016-10-11T11:15:46Z</time>
      </trkpt>
      <trkpt lat="43.40675" lon="5.4794">
        <ele>574.52514648438</ele>
        <time>2016-10-11T11:15:59Z</time>
      </trkpt>
      <trkpt lat="43.40674" lon="5.47947">
        <ele>574.04443359375</ele>
        <time>2016-10-11T11:16:05Z</time>
      </trkpt>
      <trkpt lat="43.40664" lon="5.47968">
        <ele>572.6025390625</ele>
        <time>2016-10-11T11:16:23Z</time>
      </trkpt>
      <trkpt lat="43.40662" lon="5.47979">
        <ele>574.04443359375</ele>
        <time>2016-10-11T11:16:37Z</time>
      </trkpt>
      <trkpt lat="43.40659" lon="5.47997">
        <ele>573.56396484375</ele>
        <time>2016-10-11T11:16:51Z</time>
      </trkpt>
      <trkpt lat="43.4066" lon="5.48002">
        <ele>572.6025390625</ele>
        <time>2016-10-11T11:16:57Z</time>
      </trkpt>
      <trkpt lat="43.40659" lon="5.48026">
        <ele>567.79565429688</ele>
        <time>2016-10-11T11:17:14Z</time>
      </trkpt>
      <trkpt lat="43.40658" lon="5.48029">
        <ele>567.31518554688</ele>
        <time>2016-10-11T11:17:17Z</time>
      </trkpt>
      <trkpt lat="43.40655" lon="5.4804">
        <ele>564.91186523438</ele>
        <time>2016-10-11T11:17:33Z</time>
      </trkpt>
      <trkpt lat="43.40651" lon="5.48054">
        <ele>561.54736328125</ele>
        <time>2016-10-11T11:17:46Z</time>
      </trkpt>
      <trkpt lat="43.40654" lon="5.4807">
        <ele>556.74072265625</ele>
        <time>2016-10-11T11:18:04Z</time>
      </trkpt>
      <trkpt lat="43.40657" lon="5.48089">
        <ele>553.3759765625</ele>
        <time>2016-10-11T11:18:22Z</time>
      </trkpt>
      <trkpt lat="43.40659" lon="5.48105">
        <ele>549.05004882812</ele>
        <time>2016-10-11T11:18:37Z</time>
      </trkpt>
      <trkpt lat="43.40663" lon="5.48115">
        <ele>546.16625976562</ele>
        <time>2016-10-11T11:18:52Z</time>
      </trkpt>
      <trkpt lat="43.40666" lon="5.48127">
        <ele>542.32092285156</ele>
        <time>2016-10-11T11:19:09Z</time>
      </trkpt>
      <trkpt lat="43.40667" lon="5.48135">
        <ele>539.91760253906</ele>
        <time>2016-10-11T11:19:24Z</time>
      </trkpt>
      <trkpt lat="43.40668" lon="5.48144">
        <ele>536.55310058594</ele>
        <time>2016-10-11T11:19:40Z</time>
      </trkpt>
      <trkpt lat="43.40665" lon="5.48156">
        <ele>532.70776367188</ele>
        <time>2016-10-11T11:19:55Z</time>
      </trkpt>
      <trkpt lat="43.40665" lon="5.48169">
        <ele>527.90100097656</ele>
        <time>2016-10-11T11:20:10Z</time>
      </trkpt>
      <trkpt lat="43.40666" lon="5.48184">
        <ele>525.97839355469</ele>
        <time>2016-10-11T11:20:27Z</time>
      </trkpt>
      <trkpt lat="43.40666" lon="5.48192">
        <ele>524.53649902344</ele>
        <time>2016-10-11T11:20:44Z</time>
      </trkpt>
      <trkpt lat="43.40667" lon="5.48207">
        <ele>520.69128417969</ele>
        <time>2016-10-11T11:21:12Z</time>
      </trkpt>
      <trkpt lat="43.4067" lon="5.48213">
        <ele>518.7685546875</ele>
        <time>2016-10-11T11:21:29Z</time>
      </trkpt>
      <trkpt lat="43.40671" lon="5.48214">
        <ele>518.28784179688</ele>
        <time>2016-10-11T11:21:48Z</time>
      </trkpt>
      <trkpt lat="43.4067" lon="5.48217">
        <ele>518.28784179688</ele>
        <time>2016-10-11T11:21:50Z</time>
      </trkpt>
      <trkpt lat="43.4067" lon="5.4822">
        <ele>517.80725097656</ele>
        <time>2016-10-11T11:21:52Z</time>
      </trkpt>
      <trkpt lat="43.40668" lon="5.4822">
        <ele>517.80725097656</ele>
        <time>2016-10-11T11:22:08Z</time>
      </trkpt>
      <trkpt lat="43.40668" lon="5.4822">
        <ele>517.80725097656</ele>
        <time>2016-10-11T11:22:43Z</time>
      </trkpt>
      <trkpt lat="43.40669" lon="5.48215">
        <ele>518.7685546875</ele>
        <time>2016-10-11T11:22:54Z</time>
      </trkpt>
      <trkpt lat="43.40669" lon="5.48216">
        <ele>518.7685546875</ele>
        <time>2016-10-11T11:23:30Z</time>
      </trkpt>
      <trkpt lat="43.40668" lon="5.48213">
        <ele>519.24926757812</ele>
        <time>2016-10-11T11:24:12Z</time>
      </trkpt>
      <trkpt lat="43.40658" lon="5.48216">
        <ele>521.17199707031</ele>
        <time>2016-10-11T11:26:12Z</time>
      </trkpt>
      <trkpt lat="43.40647" lon="5.48208">
        <ele>519.72985839844</ele>
        <time>2016-10-11T11:26:29Z</time>
      </trkpt>
      <trkpt lat="43.40638" lon="5.48203">
        <ele>518.28784179688</ele>
        <time>2016-10-11T11:26:45Z</time>
      </trkpt>
      <trkpt lat="43.4063" lon="5.48199">
        <ele>517.32666015625</ele>
        <time>2016-10-11T11:26:56Z</time>
      </trkpt>
      <trkpt lat="43.40628" lon="5.48197">
        <ele>517.32666015625</ele>
        <time>2016-10-11T11:26:58Z</time>
      </trkpt>
      <trkpt lat="43.40624" lon="5.4819">
        <ele>515.88464355469</ele>
        <time>2016-10-11T11:27:04Z</time>
      </trkpt>
      <trkpt lat="43.40619" lon="5.48186">
        <ele>514.44262695312</ele>
        <time>2016-10-11T11:27:10Z</time>
      </trkpt>
      <trkpt lat="43.40601" lon="5.48175">
        <ele>514.92333984375</ele>
        <time>2016-10-11T11:27:34Z</time>
      </trkpt>
      <trkpt lat="43.406" lon="5.48173">
        <ele>515.40405273438</ele>
        <time>2016-10-11T11:27:36Z</time>
      </trkpt>
      <trkpt lat="43.40589" lon="5.4817">
        <ele>514.92333984375</ele>
        <time>2016-10-11T11:27:49Z</time>
      </trkpt>
      <trkpt lat="43.40584" lon="5.4817">
        <ele>513.96203613281</ele>
        <time>2016-10-11T11:27:56Z</time>
      </trkpt>
      <trkpt lat="43.40575" lon="5.4818">
        <ele>509.15539550781</ele>
        <time>2016-10-11T11:28:12Z</time>
      </trkpt>
      <trkpt lat="43.40568" lon="5.48181">
        <ele>508.19409179688</ele>
        <time>2016-10-11T11:28:26Z</time>
      </trkpt>
      <trkpt lat="43.40565" lon="5.48181">
        <ele>508.19409179688</ele>
        <time>2016-10-11T11:28:30Z</time>
      </trkpt>
      <trkpt lat="43.40556" lon="5.48183">
        <ele>509.15539550781</ele>
        <time>2016-10-11T11:28:42Z</time>
      </trkpt>
      <trkpt lat="43.40547" lon="5.48185">
        <ele>509.15539550781</ele>
        <time>2016-10-11T11:28:54Z</time>
      </trkpt>
      <trkpt lat="43.40532" lon="5.4819">
        <ele>507.23278808594</ele>
        <time>2016-10-11T11:29:10Z</time>
      </trkpt>
      <trkpt lat="43.40522" lon="5.48192">
        <ele>507.23278808594</ele>
        <time>2016-10-11T11:29:25Z</time>
      </trkpt>
      <trkpt lat="43.40508" lon="5.48187">
        <ele>506.75207519531</ele>
        <time>2016-10-11T11:29:40Z</time>
      </trkpt>
      <trkpt lat="43.4051" lon="5.48188">
        <ele>507.71350097656</ele>
        <time>2016-10-11T11:29:53Z</time>
      </trkpt>
      <trkpt lat="43.40508" lon="5.48192">
        <ele>506.75207519531</ele>
        <time>2016-10-11T11:30:03Z</time>
      </trkpt>
      <trkpt lat="43.40505" lon="5.48193">
        <ele>506.271484375</ele>
        <time>2016-10-11T11:30:07Z</time>
      </trkpt>
      <trkpt lat="43.40479" lon="5.48186">
        <ele>506.271484375</ele>
        <time>2016-10-11T11:30:30Z</time>
      </trkpt>
      <trkpt lat="43.40474" lon="5.48185">
        <ele>505.31018066406</ele>
        <time>2016-10-11T11:30:35Z</time>
      </trkpt>
      <trkpt lat="43.40456" lon="5.48188">
        <ele>499.54223632812</ele>
        <time>2016-10-11T11:30:52Z</time>
      </trkpt>
      <trkpt lat="43.40449" lon="5.48191">
        <ele>497.61962890625</ele>
        <time>2016-10-11T11:30:57Z</time>
      </trkpt>
      <trkpt lat="43.40445" lon="5.48193">
        <ele>496.65832519531</ele>
        <time>2016-10-11T11:31:02Z</time>
      </trkpt>
      <trkpt lat="43.4044" lon="5.48192">
        <ele>495.69689941406</ele>
        <time>2016-10-11T11:31:17Z</time>
      </trkpt>
      <trkpt lat="43.40437" lon="5.48197">
        <ele>495.69689941406</ele>
        <time>2016-10-11T11:31:45Z</time>
      </trkpt>
      <trkpt lat="43.40431" lon="5.48214">
        <ele>495.21618652344</ele>
        <time>2016-10-11T11:32:04Z</time>
      </trkpt>
      <trkpt lat="43.4043" lon="5.48225">
        <ele>493.29357910156</ele>
        <time>2016-10-11T11:32:17Z</time>
      </trkpt>
      <trkpt lat="43.40422" lon="5.48236">
        <ele>490.40979003906</ele>
        <time>2016-10-11T11:32:30Z</time>
      </trkpt>
      <trkpt lat="43.40415" lon="5.48238">
        <ele>490.89038085938</ele>
        <time>2016-10-11T11:32:48Z</time>
      </trkpt>
      <trkpt lat="43.40417" lon="5.48228">
        <ele>490.89038085938</ele>
        <time>2016-10-11T11:32:58Z</time>
      </trkpt>
      <trkpt lat="43.40416" lon="5.48221">
        <ele>490.40979003906</ele>
        <time>2016-10-11T11:33:03Z</time>
      </trkpt>
      <trkpt lat="43.40417" lon="5.48216">
        <ele>490.40979003906</ele>
        <time>2016-10-11T11:33:06Z</time>
      </trkpt>
      <trkpt lat="43.40415" lon="5.48196">
        <ele>491.85168457031</ele>
        <time>2016-10-11T11:33:20Z</time>
      </trkpt>
      <trkpt lat="43.40416" lon="5.48185">
        <ele>494.25500488281</ele>
        <time>2016-10-11T11:33:32Z</time>
      </trkpt>
      <trkpt lat="43.40412" lon="5.48193">
        <ele>494.25500488281</ele>
        <time>2016-10-11T11:33:46Z</time>
      </trkpt>
      <trkpt lat="43.40412" lon="5.48193">
        <ele>494.25500488281</ele>
        <time>2016-10-11T11:33:47Z</time>
      </trkpt>
      <trkpt lat="43.40408" lon="5.48208">
        <ele>494.25500488281</ele>
        <time>2016-10-11T11:34:01Z</time>
      </trkpt>
      <trkpt lat="43.40404" lon="5.48218">
        <ele>495.69689941406</ele>
        <time>2016-10-11T11:34:15Z</time>
      </trkpt>
      <trkpt lat="43.40401" lon="5.48218">
        <ele>494.73559570312</ele>
        <time>2016-10-11T11:34:17Z</time>
      </trkpt>
      <trkpt lat="43.40394" lon="5.48226">
        <ele>494.25500488281</ele>
        <time>2016-10-11T11:34:25Z</time>
      </trkpt>
      <trkpt lat="43.40392" lon="5.4823">
        <ele>494.25500488281</ele>
        <time>2016-10-11T11:34:28Z</time>
      </trkpt>
      <trkpt lat="43.40388" lon="5.48241">
        <ele>494.25500488281</ele>
        <time>2016-10-11T11:34:41Z</time>
      </trkpt>
      <trkpt lat="43.40388" lon="5.48236">
        <ele>490.89038085938</ele>
        <time>2016-10-11T11:35:08Z</time>
      </trkpt>
      <trkpt lat="43.40385" lon="5.4824">
        <ele>491.37097167969</ele>
        <time>2016-10-11T11:35:39Z</time>
      </trkpt>
      <trkpt lat="43.40382" lon="5.48245">
        <ele>489.44836425781</ele>
        <time>2016-10-11T11:36:05Z</time>
      </trkpt>
      <trkpt lat="43.40381" lon="5.48244">
        <ele>488.9677734375</ele>
        <time>2016-10-11T11:36:06Z</time>
      </trkpt>
      <trkpt lat="43.40368" lon="5.48234">
        <ele>488.00646972656</ele>
        <time>2016-10-11T11:36:20Z</time>
      </trkpt>
      <trkpt lat="43.4036" lon="5.48235">
        <ele>485.60302734375</ele>
        <time>2016-10-11T11:36:33Z</time>
      </trkpt>
      <trkpt lat="43.40351" lon="5.48236">
        <ele>480.31591796875</ele>
        <time>2016-10-11T11:36:58Z</time>
      </trkpt>
      <trkpt lat="43.40345" lon="5.48231">
        <ele>475.50927734375</ele>
        <time>2016-10-11T11:37:11Z</time>
      </trkpt>
      <trkpt lat="43.40336" lon="5.4823">
        <ele>470.22192382812</ele>
        <time>2016-10-11T11:37:28Z</time>
      </trkpt>
      <trkpt lat="43.40335" lon="5.48228">
        <ele>469.74133300781</ele>
        <time>2016-10-11T11:37:34Z</time>
      </trkpt>
      <trkpt lat="43.40328" lon="5.48224">
        <ele>465.41552734375</ele>
        <time>2016-10-11T11:37:48Z</time>
      </trkpt>
      <trkpt lat="43.40322" lon="5.48221">
        <ele>462.53137207031</ele>
        <time>2016-10-11T11:38:01Z</time>
      </trkpt>
      <trkpt lat="43.40314" lon="5.48219">
        <ele>460.60876464844</ele>
        <time>2016-10-11T11:38:17Z</time>
      </trkpt>
      <trkpt lat="43.40305" lon="5.48213">
        <ele>461.08947753906</ele>
        <time>2016-10-11T11:38:33Z</time>
      </trkpt>
      <trkpt lat="43.40302" lon="5.48212">
        <ele>461.57019042969</ele>
        <time>2016-10-11T11:38:47Z</time>
      </trkpt>
      <trkpt lat="43.40296" lon="5.4821">
        <ele>459.64758300781</ele>
        <time>2016-10-11T11:39:01Z</time>
      </trkpt>
      <trkpt lat="43.40293" lon="5.4821">
        <ele>458.68615722656</ele>
        <time>2016-10-11T11:39:19Z</time>
      </trkpt>
      <trkpt lat="43.40286" lon="5.48209">
        <ele>457.72497558594</ele>
        <time>2016-10-11T11:39:33Z</time>
      </trkpt>
      <trkpt lat="43.40281" lon="5.48205">
        <ele>459.64758300781</ele>
        <time>2016-10-11T11:39:48Z</time>
      </trkpt>
      <trkpt lat="43.40272" lon="5.48202">
        <ele>460.12817382812</ele>
        <time>2016-10-11T11:40:07Z</time>
      </trkpt>
      <trkpt lat="43.40263" lon="5.48199">
        <ele>460.60876464844</ele>
        <time>2016-10-11T11:40:24Z</time>
      </trkpt>
      <trkpt lat="43.40255" lon="5.48201">
        <ele>458.68615722656</ele>
        <time>2016-10-11T11:40:37Z</time>
      </trkpt>
      <trkpt lat="43.40249" lon="5.48205">
        <ele>458.20556640625</ele>
        <time>2016-10-11T11:40:51Z</time>
      </trkpt>
      <trkpt lat="43.40243" lon="5.48204">
        <ele>458.68615722656</ele>
        <time>2016-10-11T11:41:00Z</time>
      </trkpt>
      <trkpt lat="43.40237" lon="5.48204">
        <ele>456.76354980469</ele>
        <time>2016-10-11T11:41:12Z</time>
      </trkpt>
      <trkpt lat="43.40231" lon="5.48209">
        <ele>452.43762207031</ele>
        <time>2016-10-11T11:41:27Z</time>
      </trkpt>
      <trkpt lat="43.40226" lon="5.48208">
        <ele>448.11181640625</ele>
        <time>2016-10-11T11:41:37Z</time>
      </trkpt>
      <trkpt lat="43.40223" lon="5.48214">
        <ele>443.30505371094</ele>
        <time>2016-10-11T11:41:48Z</time>
      </trkpt>
      <trkpt lat="43.40216" lon="5.48216">
        <ele>440.90185546875</ele>
        <time>2016-10-11T11:41:59Z</time>
      </trkpt>
      <trkpt lat="43.40211" lon="5.48221">
        <ele>439.45971679688</ele>
        <time>2016-10-11T11:42:13Z</time>
      </trkpt>
      <trkpt lat="43.40201" lon="5.48229">
        <ele>437.537109375</ele>
        <time>2016-10-11T11:42:32Z</time>
      </trkpt>
      <trkpt lat="43.40191" lon="5.48234">
        <ele>435.13391113281</ele>
        <time>2016-10-11T11:42:48Z</time>
      </trkpt>
      <trkpt lat="43.40181" lon="5.48239">
        <ele>430.80798339844</ele>
        <time>2016-10-11T11:43:02Z</time>
      </trkpt>
      <trkpt lat="43.40173" lon="5.48242">
        <ele>427.443359375</ele>
        <time>2016-10-11T11:43:14Z</time>
      </trkpt>
      <trkpt lat="43.40164" lon="5.48243">
        <ele>425.52075195312</ele>
        <time>2016-10-11T11:43:27Z</time>
      </trkpt>
      <trkpt lat="43.40156" lon="5.48239">
        <ele>420.2333984375</ele>
        <time>2016-10-11T11:43:43Z</time>
      </trkpt>
      <trkpt lat="43.4015" lon="5.4824">
        <ele>417.83020019531</ele>
        <time>2016-10-11T11:44:00Z</time>
      </trkpt>
      <trkpt lat="43.40141" lon="5.48242">
        <ele>415.42687988281</ele>
        <time>2016-10-11T11:44:17Z</time>
      </trkpt>
      <trkpt lat="43.40135" lon="5.48242">
        <ele>414.46545410156</ele>
        <time>2016-10-11T11:44:30Z</time>
      </trkpt>
      <trkpt lat="43.40122" lon="5.48245">
        <ele>413.02355957031</ele>
        <time>2016-10-11T11:44:52Z</time>
      </trkpt>
      <trkpt lat="43.4011" lon="5.48248">
        <ele>412.54284667969</ele>
        <time>2016-10-11T11:45:10Z</time>
      </trkpt>
      <trkpt lat="43.40101" lon="5.4825">
        <ele>410.62023925781</ele>
        <time>2016-10-11T11:45:27Z</time>
      </trkpt>
      <trkpt lat="43.4009" lon="5.4825">
        <ele>409.65905761719</ele>
        <time>2016-10-11T11:45:44Z</time>
      </trkpt>
      <trkpt lat="43.40084" lon="5.48253">
        <ele>410.1396484375</ele>
        <time>2016-10-11T11:45:58Z</time>
      </trkpt>
      <trkpt lat="43.40073" lon="5.48249">
        <ele>410.1396484375</ele>
        <time>2016-10-11T11:46:16Z</time>
      </trkpt>
      <trkpt lat="43.40059" lon="5.48241">
        <ele>412.06225585938</ele>
        <time>2016-10-11T11:46:36Z</time>
      </trkpt>
      <trkpt lat="43.40046" lon="5.48233">
        <ele>411.58166503906</ele>
        <time>2016-10-11T11:46:52Z</time>
      </trkpt>
      <trkpt lat="43.40035" lon="5.4823">
        <ele>405.81372070312</ele>
        <time>2016-10-11T11:47:04Z</time>
      </trkpt>
      <trkpt lat="43.4002" lon="5.48225">
        <ele>401.00708007812</ele>
        <time>2016-10-11T11:47:22Z</time>
      </trkpt>
      <trkpt lat="43.40013" lon="5.4823">
        <ele>398.12316894531</ele>
        <time>2016-10-11T11:47:32Z</time>
      </trkpt>
      <trkpt lat="43.4" lon="5.48243">
        <ele>397.16174316406</ele>
        <time>2016-10-11T11:47:52Z</time>
      </trkpt>
      <trkpt lat="43.39987" lon="5.48257">
        <ele>395.23913574219</ele>
        <time>2016-10-11T11:48:10Z</time>
      </trkpt>
      <trkpt lat="43.39984" lon="5.48254">
        <ele>393.79724121094</ele>
        <time>2016-10-11T11:48:25Z</time>
      </trkpt>
      <trkpt lat="43.39986" lon="5.48258">
        <ele>393.79724121094</ele>
        <time>2016-10-11T11:48:50Z</time>
      </trkpt>
      <trkpt lat="43.39987" lon="5.48261">
        <ele>392.35534667969</ele>
        <time>2016-10-11T11:49:13Z</time>
      </trkpt>
      <trkpt lat="43.39982" lon="5.48266">
        <ele>392.8359375</ele>
        <time>2016-10-11T11:49:50Z</time>
      </trkpt>
      <trkpt lat="43.39983" lon="5.48265">
        <ele>394.27795410156</ele>
        <time>2016-10-11T11:50:22Z</time>
      </trkpt>
      <trkpt lat="43.39983" lon="5.48259">
        <ele>394.27795410156</ele>
        <time>2016-10-11T11:51:46Z</time>
      </trkpt>
      <trkpt lat="43.39978" lon="5.48271">
        <ele>398.60375976562</ele>
        <time>2016-10-11T11:53:24Z</time>
      </trkpt>
      <trkpt lat="43.3997" lon="5.48296">
        <ele>401.00708007812</ele>
        <time>2016-10-11T11:53:51Z</time>
      </trkpt>
      <trkpt lat="43.39965" lon="5.48315">
        <ele>400.0458984375</ele>
        <time>2016-10-11T11:54:08Z</time>
      </trkpt>
      <trkpt lat="43.39959" lon="5.48332">
        <ele>402.9296875</ele>
        <time>2016-10-11T11:54:26Z</time>
      </trkpt>
      <trkpt lat="43.39947" lon="5.48344">
        <ele>404.85229492188</ele>
        <time>2016-10-11T11:54:45Z</time>
      </trkpt>
      <trkpt lat="43.39938" lon="5.4836">
        <ele>403.89111328125</ele>
        <time>2016-10-11T11:54:59Z</time>
      </trkpt>
      <trkpt lat="43.39933" lon="5.48371">
        <ele>401.96850585938</ele>
        <time>2016-10-11T11:55:12Z</time>
      </trkpt>
      <trkpt lat="43.39932" lon="5.48372">
        <ele>401.96850585938</ele>
        <time>2016-10-11T11:55:13Z</time>
      </trkpt>
      <trkpt lat="43.3993" lon="5.48374">
        <ele>402.44909667969</ele>
        <time>2016-10-11T11:55:16Z</time>
      </trkpt>
      <trkpt lat="43.39921" lon="5.48388">
        <ele>402.44909667969</ele>
        <time>2016-10-11T11:55:30Z</time>
      </trkpt>
      <trkpt lat="43.39916" lon="5.48394">
        <ele>400.0458984375</ele>
        <time>2016-10-11T11:55:39Z</time>
      </trkpt>
      <trkpt lat="43.39902" lon="5.48404">
        <ele>397.16174316406</ele>
        <time>2016-10-11T11:55:54Z</time>
      </trkpt>
      <trkpt lat="43.39889" lon="5.48407">
        <ele>399.08435058594</ele>
        <time>2016-10-11T11:56:08Z</time>
      </trkpt>
      <trkpt lat="43.39885" lon="5.48407">
        <ele>398.60375976562</ele>
        <time>2016-10-11T11:56:12Z</time>
      </trkpt>
      <trkpt lat="43.39878" lon="5.48397">
        <ele>398.60375976562</ele>
        <time>2016-10-11T11:56:24Z</time>
      </trkpt>
      <trkpt lat="43.39874" lon="5.48388">
        <ele>395.23913574219</ele>
        <time>2016-10-11T11:56:32Z</time>
      </trkpt>
      <trkpt lat="43.39871" lon="5.48386">
        <ele>395.71984863281</ele>
        <time>2016-10-11T11:56:36Z</time>
      </trkpt>
      <trkpt lat="43.39856" lon="5.48384">
        <ele>395.71984863281</ele>
        <time>2016-10-11T11:56:48Z</time>
      </trkpt>
      <trkpt lat="43.39852" lon="5.48382">
        <ele>394.27795410156</ele>
        <time>2016-10-11T11:56:51Z</time>
      </trkpt>
      <trkpt lat="43.39838" lon="5.48371">
        <ele>395.23913574219</ele>
        <time>2016-10-11T11:57:06Z</time>
      </trkpt>
      <trkpt lat="43.39827" lon="5.48364">
        <ele>394.75854492188</ele>
        <time>2016-10-11T11:57:17Z</time>
      </trkpt>
      <trkpt lat="43.39825" lon="5.48362">
        <ele>394.75854492188</ele>
        <time>2016-10-11T11:57:19Z</time>
      </trkpt>
      <trkpt lat="43.39809" lon="5.48353">
        <ele>393.79724121094</ele>
        <time>2016-10-11T11:57:37Z</time>
      </trkpt>
      <trkpt lat="43.39796" lon="5.48341">
        <ele>392.35534667969</ele>
        <time>2016-10-11T11:57:53Z</time>
      </trkpt>
      <trkpt lat="43.39781" lon="5.48332">
        <ele>390.4326171875</ele>
        <time>2016-10-11T11:58:08Z</time>
      </trkpt>
      <trkpt lat="43.39768" lon="5.4833">
        <ele>389.95190429688</ele>
        <time>2016-10-11T11:58:20Z</time>
      </trkpt>
      <trkpt lat="43.39766" lon="5.48328">
        <ele>389.95190429688</ele>
        <time>2016-10-11T11:58:23Z</time>
      </trkpt>
      <trkpt lat="43.39755" lon="5.4833">
        <ele>391.39379882812</ele>
        <time>2016-10-11T11:58:36Z</time>
      </trkpt>
      <trkpt lat="43.39744" lon="5.48335">
        <ele>393.31652832031</ele>
        <time>2016-10-11T11:58:45Z</time>
      </trkpt>
      <trkpt lat="43.39731" lon="5.48344">
        <ele>395.23913574219</ele>
        <time>2016-10-11T11:58:56Z</time>
      </trkpt>
      <trkpt lat="43.39728" lon="5.48347">
        <ele>394.75854492188</ele>
        <time>2016-10-11T11:58:59Z</time>
      </trkpt>
      <trkpt lat="43.39721" lon="5.48352">
        <ele>396.20056152344</ele>
        <time>2016-10-11T11:59:07Z</time>
      </trkpt>
      <trkpt lat="43.39706" lon="5.48357">
        <ele>400.0458984375</ele>
        <time>2016-10-11T11:59:22Z</time>
      </trkpt>
      <trkpt lat="43.39703" lon="5.48359">
        <ele>400.52648925781</ele>
        <time>2016-10-11T11:59:24Z</time>
      </trkpt>
      <trkpt lat="43.39689" lon="5.48379">
        <ele>397.16174316406</ele>
        <time>2016-10-11T11:59:41Z</time>
      </trkpt>
      <trkpt lat="43.39667" lon="5.48382">
        <ele>387.06799316406</ele>
        <time>2016-10-11T11:59:59Z</time>
      </trkpt>
      <trkpt lat="43.39649" lon="5.48381">
        <ele>383.22265625</ele>
        <time>2016-10-11T12:00:16Z</time>
      </trkpt>
      <trkpt lat="43.39645" lon="5.48377">
        <ele>383.22265625</ele>
        <time>2016-10-11T12:00:21Z</time>
      </trkpt>
      <trkpt lat="43.39624" lon="5.48371">
        <ele>379.37744140625</ele>
        <time>2016-10-11T12:00:38Z</time>
      </trkpt>
      <trkpt lat="43.39615" lon="5.48366">
        <ele>377.45483398438</ele>
        <time>2016-10-11T12:00:50Z</time>
      </trkpt>
      <trkpt lat="43.39604" lon="5.48371">
        <ele>374.09008789062</ele>
        <time>2016-10-11T12:01:05Z</time>
      </trkpt>
      <trkpt lat="43.39588" lon="5.48376">
        <ele>369.28369140625</ele>
        <time>2016-10-11T12:01:20Z</time>
      </trkpt>
      <trkpt lat="43.39583" lon="5.48378">
        <ele>366.88024902344</ele>
        <time>2016-10-11T12:01:26Z</time>
      </trkpt>
      <trkpt lat="43.39578" lon="5.48388">
        <ele>365.43835449219</ele>
        <time>2016-10-11T12:01:34Z</time>
      </trkpt>
      <trkpt lat="43.39575" lon="5.48394">
        <ele>361.11242675781</ele>
        <time>2016-10-11T12:01:39Z</time>
      </trkpt>
      <trkpt lat="43.39566" lon="5.48407">
        <ele>357.26708984375</ele>
        <time>2016-10-11T12:01:53Z</time>
      </trkpt>
      <trkpt lat="43.39553" lon="5.48412">
        <ele>354.38317871094</ele>
        <time>2016-10-11T12:02:08Z</time>
      </trkpt>
      <trkpt lat="43.39543" lon="5.48414">
        <ele>353.421875</ele>
        <time>2016-10-11T12:02:17Z</time>
      </trkpt>
      <trkpt lat="43.39537" lon="5.48417">
        <ele>353.90258789062</ele>
        <time>2016-10-11T12:02:25Z</time>
      </trkpt>
      <trkpt lat="43.39522" lon="5.48423">
        <ele>353.90258789062</ele>
        <time>2016-10-11T12:02:40Z</time>
      </trkpt>
      <trkpt lat="43.39517" lon="5.48424">
        <ele>354.38317871094</ele>
        <time>2016-10-11T12:02:44Z</time>
      </trkpt>
      <trkpt lat="43.39514" lon="5.48425">
        <ele>355.34448242188</ele>
        <time>2016-10-11T12:02:47Z</time>
      </trkpt>
      <trkpt lat="43.39496" lon="5.48427">
        <ele>360.15112304688</ele>
        <time>2016-10-11T12:03:01Z</time>
      </trkpt>
      <trkpt lat="43.39492" lon="5.48429">
        <ele>360.63171386719</ele>
        <time>2016-10-11T12:03:04Z</time>
      </trkpt>
      <trkpt lat="43.3948" lon="5.48436">
        <ele>363.03503417969</ele>
        <time>2016-10-11T12:03:16Z</time>
      </trkpt>
      <trkpt lat="43.39478" lon="5.48434">
        <ele>363.51574707031</ele>
        <time>2016-10-11T12:03:22Z</time>
      </trkpt>
      <trkpt lat="43.39467" lon="5.48438">
        <ele>364.47692871094</ele>
        <time>2016-10-11T12:03:31Z</time>
      </trkpt>
      <trkpt lat="43.39464" lon="5.4844">
        <ele>365.43835449219</ele>
        <time>2016-10-11T12:03:34Z</time>
      </trkpt>
      <trkpt lat="43.39452" lon="5.48445">
        <ele>366.88024902344</ele>
        <time>2016-10-11T12:03:47Z</time>
      </trkpt>
      <trkpt lat="43.39454" lon="5.48449">
        <ele>366.88024902344</ele>
        <time>2016-10-11T12:04:08Z</time>
      </trkpt>
      <trkpt lat="43.39451" lon="5.48447">
        <ele>367.36096191406</ele>
        <time>2016-10-11T12:04:33Z</time>
      </trkpt>
      <trkpt lat="43.39453" lon="5.48449">
        <ele>367.36096191406</ele>
        <time>2016-10-11T12:06:14Z</time>
      </trkpt>
      <trkpt lat="43.39445" lon="5.4845">
        <ele>368.80297851562</ele>
        <time>2016-10-11T12:06:20Z</time>
      </trkpt>
      <trkpt lat="43.39438" lon="5.48464">
        <ele>369.28369140625</ele>
        <time>2016-10-11T12:06:33Z</time>
      </trkpt>
      <trkpt lat="43.39434" lon="5.48481">
        <ele>370.7255859375</ele>
        <time>2016-10-11T12:06:47Z</time>
      </trkpt>
      <trkpt lat="43.39433" lon="5.48483">
        <ele>370.7255859375</ele>
        <time>2016-10-11T12:06:48Z</time>
      </trkpt>
      <trkpt lat="43.39425" lon="5.48487">
        <ele>370.7255859375</ele>
        <time>2016-10-11T12:06:55Z</time>
      </trkpt>
      <trkpt lat="43.39418" lon="5.48488">
        <ele>370.24487304688</ele>
        <time>2016-10-11T12:07:01Z</time>
      </trkpt>
      <trkpt lat="43.39402" lon="5.48489">
        <ele>365.9189453125</ele>
        <time>2016-10-11T12:07:14Z</time>
      </trkpt>
      <trkpt lat="43.39389" lon="5.48489">
        <ele>364.95764160156</ele>
        <time>2016-10-11T12:07:28Z</time>
      </trkpt>
      <trkpt lat="43.39384" lon="5.48488">
        <ele>365.43835449219</ele>
        <time>2016-10-11T12:07:32Z</time>
      </trkpt>
      <trkpt lat="43.39371" lon="5.48489">
        <ele>365.9189453125</ele>
        <time>2016-10-11T12:07:41Z</time>
      </trkpt>
      <trkpt lat="43.39363" lon="5.48483">
        <ele>363.51574707031</ele>
        <time>2016-10-11T12:07:51Z</time>
      </trkpt>
      <trkpt lat="43.3935" lon="5.48479">
        <ele>359.67041015625</ele>
        <time>2016-10-11T12:08:08Z</time>
      </trkpt>
      <trkpt lat="43.39335" lon="5.4848">
        <ele>357.26708984375</ele>
        <time>2016-10-11T12:08:23Z</time>
      </trkpt>
      <trkpt lat="43.39327" lon="5.48473">
        <ele>357.26708984375</ele>
        <time>2016-10-11T12:08:33Z</time>
      </trkpt>
      <trkpt lat="43.39315" lon="5.48471">
        <ele>357.74780273438</ele>
        <time>2016-10-11T12:08:44Z</time>
      </trkpt>
      <trkpt lat="43.39299" lon="5.4847">
        <ele>361.11242675781</ele>
        <time>2016-10-11T12:09:00Z</time>
      </trkpt>
      <trkpt lat="43.39283" lon="5.48469">
        <ele>365.43835449219</ele>
        <time>2016-10-11T12:09:23Z</time>
      </trkpt>
      <trkpt lat="43.39277" lon="5.48469">
        <ele>362.07373046875</ele>
        <time>2016-10-11T12:09:37Z</time>
      </trkpt>
      <trkpt lat="43.39269" lon="5.4848">
        <ele>357.74780273438</ele>
        <time>2016-10-11T12:09:52Z</time>
      </trkpt>
      <trkpt lat="43.39262" lon="5.48487">
        <ele>355.8251953125</ele>
        <time>2016-10-11T12:10:03Z</time>
      </trkpt>
      <trkpt lat="43.39254" lon="5.48501">
        <ele>352.46057128906</ele>
        <time>2016-10-11T12:10:20Z</time>
      </trkpt>
      <trkpt lat="43.39245" lon="5.48513">
        <ele>349.57653808594</ele>
        <time>2016-10-11T12:10:35Z</time>
      </trkpt>
      <trkpt lat="43.39237" lon="5.48511">
        <ele>347.17321777344</ele>
        <time>2016-10-11T12:10:45Z</time>
      </trkpt>
      <trkpt lat="43.39225" lon="5.48513">
        <ele>342.84729003906</ele>
        <time>2016-10-11T12:11:02Z</time>
      </trkpt>
      <trkpt lat="43.39209" lon="5.48513">
        <ele>341.4052734375</ele>
        <time>2016-10-11T12:11:19Z</time>
      </trkpt>
      <trkpt lat="43.39203" lon="5.48512">
        <ele>340.44409179688</ele>
        <time>2016-10-11T12:11:23Z</time>
      </trkpt>
      <trkpt lat="43.39192" lon="5.48509">
        <ele>340.44409179688</ele>
        <time>2016-10-11T12:11:38Z</time>
      </trkpt>
      <trkpt lat="43.39185" lon="5.48502">
        <ele>341.88598632812</ele>
        <time>2016-10-11T12:12:08Z</time>
      </trkpt>
      <trkpt lat="43.39172" lon="5.48491">
        <ele>343.32788085938</ele>
        <time>2016-10-11T12:12:27Z</time>
      </trkpt>
      <trkpt lat="43.3916" lon="5.48483">
        <ele>343.32788085938</ele>
        <time>2016-10-11T12:12:45Z</time>
      </trkpt>
      <trkpt lat="43.39146" lon="5.48477">
        <ele>345.73132324219</ele>
        <time>2016-10-11T12:13:00Z</time>
      </trkpt>
      <trkpt lat="43.3913" lon="5.48472">
        <ele>349.09582519531</ele>
        <time>2016-10-11T12:13:15Z</time>
      </trkpt>
      <trkpt lat="43.39124" lon="5.48475">
        <ele>350.05725097656</ele>
        <time>2016-10-11T12:13:20Z</time>
      </trkpt>
      <trkpt lat="43.39122" lon="5.48477">
        <ele>350.53784179688</ele>
        <time>2016-10-11T12:13:22Z</time>
      </trkpt>
      <trkpt lat="43.39111" lon="5.48485">
        <ele>352.94116210938</ele>
        <time>2016-10-11T12:13:37Z</time>
      </trkpt>
      <trkpt lat="43.391" lon="5.48502">
        <ele>355.8251953125</ele>
        <time>2016-10-11T12:13:56Z</time>
      </trkpt>
      <trkpt lat="43.39097" lon="5.4851">
        <ele>354.38317871094</ele>
        <time>2016-10-11T12:14:10Z</time>
      </trkpt>
      <trkpt lat="43.39096" lon="5.48515">
        <ele>354.86376953125</ele>
        <time>2016-10-11T12:14:13Z</time>
      </trkpt>
      <trkpt lat="43.39088" lon="5.48532">
        <ele>351.97985839844</ele>
        <time>2016-10-11T12:14:33Z</time>
      </trkpt>
      <trkpt lat="43.39084" lon="5.48531">
        <ele>351.49914550781</ele>
        <time>2016-10-11T12:14:37Z</time>
      </trkpt>
      <trkpt lat="43.39072" lon="5.48533">
        <ele>348.615234375</ele>
        <time>2016-10-11T12:14:49Z</time>
      </trkpt>
      <trkpt lat="43.39066" lon="5.48537">
        <ele>346.21203613281</ele>
        <time>2016-10-11T12:14:56Z</time>
      </trkpt>
      <trkpt lat="43.39054" lon="5.4854">
        <ele>345.73132324219</ele>
        <time>2016-10-11T12:15:08Z</time>
      </trkpt>
      <trkpt lat="43.39045" lon="5.48533">
        <ele>345.25061035156</ele>
        <time>2016-10-11T12:15:25Z</time>
      </trkpt>
      <trkpt lat="43.39039" lon="5.48522">
        <ele>346.69262695312</ele>
        <time>2016-10-11T12:15:57Z</time>
      </trkpt>
      <trkpt lat="43.3903" lon="5.48507">
        <ele>346.21203613281</ele>
        <time>2016-10-11T12:16:11Z</time>
      </trkpt>
      <trkpt lat="43.39027" lon="5.48494">
        <ele>346.21203613281</ele>
        <time>2016-10-11T12:16:28Z</time>
      </trkpt>
      <trkpt lat="43.3901" lon="5.48469">
        <ele>346.21203613281</ele>
        <time>2016-10-11T12:16:54Z</time>
      </trkpt>
      <trkpt lat="43.38995" lon="5.4845">
        <ele>346.69262695312</ele>
        <time>2016-10-11T12:17:22Z</time>
      </trkpt>
      <trkpt lat="43.38984" lon="5.48427">
        <ele>346.21203613281</ele>
        <time>2016-10-11T12:17:55Z</time>
      </trkpt>
      <trkpt lat="43.38979" lon="5.48416">
        <ele>347.65393066406</ele>
        <time>2016-10-11T12:18:03Z</time>
      </trkpt>
      <trkpt lat="43.38977" lon="5.48412">
        <ele>347.17321777344</ele>
        <time>2016-10-11T12:18:07Z</time>
      </trkpt>
      <trkpt lat="43.38975" lon="5.48406">
        <ele>345.25061035156</ele>
        <time>2016-10-11T12:18:11Z</time>
      </trkpt>
      <trkpt lat="43.38975" lon="5.48384">
        <ele>345.73132324219</ele>
        <time>2016-10-11T12:18:23Z</time>
      </trkpt>
      <trkpt lat="43.38973" lon="5.48365">
        <ele>345.73132324219</ele>
        <time>2016-10-11T12:18:32Z</time>
      </trkpt>
      <trkpt lat="43.38972" lon="5.48361">
        <ele>345.73132324219</ele>
        <time>2016-10-11T12:18:35Z</time>
      </trkpt>
      <trkpt lat="43.38974" lon="5.48344">
        <ele>347.65393066406</ele>
        <time>2016-10-11T12:18:49Z</time>
      </trkpt>
      <trkpt lat="43.38986" lon="5.48312">
        <ele>348.13464355469</ele>
        <time>2016-10-11T12:19:14Z</time>
      </trkpt>
      <trkpt lat="43.3899" lon="5.48286">
        <ele>348.615234375</ele>
        <time>2016-10-11T12:19:28Z</time>
      </trkpt>
      <trkpt lat="43.38968" lon="5.48275">
        <ele>351.49914550781</ele>
        <time>2016-10-11T12:19:51Z</time>
      </trkpt>
      <trkpt lat="43.38952" lon="5.48283">
        <ele>354.86376953125</ele>
        <time>2016-10-11T12:20:15Z</time>
      </trkpt>
      <trkpt lat="43.38949" lon="5.48287">
        <ele>355.34448242188</ele>
        <time>2016-10-11T12:20:20Z</time>
      </trkpt>
      <trkpt lat="43.38935" lon="5.48298">
        <ele>357.26708984375</ele>
        <time>2016-10-11T12:20:32Z</time>
      </trkpt>
      <trkpt lat="43.38933" lon="5.48305">
        <ele>359.18969726562</ele>
        <time>2016-10-11T12:20:36Z</time>
      </trkpt>
      <trkpt lat="43.38926" lon="5.4831">
        <ele>359.18969726562</ele>
        <time>2016-10-11T12:20:41Z</time>
      </trkpt>
      <trkpt lat="43.38912" lon="5.4832">
        <ele>365.43835449219</ele>
        <time>2016-10-11T12:21:03Z</time>
      </trkpt>
      <trkpt lat="43.38901" lon="5.48328">
        <ele>371.68688964844</ele>
        <time>2016-10-11T12:21:23Z</time>
      </trkpt>
      <trkpt lat="43.38884" lon="5.48342">
        <ele>376.97424316406</ele>
        <time>2016-10-11T12:21:45Z</time>
      </trkpt>
      <trkpt lat="43.38875" lon="5.48356">
        <ele>378.41613769531</ele>
        <time>2016-10-11T12:21:57Z</time>
      </trkpt>
      <trkpt lat="43.38866" lon="5.48369">
        <ele>380.33874511719</ele>
        <time>2016-10-11T12:22:13Z</time>
      </trkpt>
      <trkpt lat="43.38856" lon="5.48387">
        <ele>379.37744140625</ele>
        <time>2016-10-11T12:22:30Z</time>
      </trkpt>
      <trkpt lat="43.38855" lon="5.48389">
        <ele>378.89685058594</ele>
        <time>2016-10-11T12:22:32Z</time>
      </trkpt>
      <trkpt lat="43.38851" lon="5.48393">
        <ele>379.37744140625</ele>
        <time>2016-10-11T12:22:36Z</time>
      </trkpt>
      <trkpt lat="43.38836" lon="5.48391">
        <ele>379.37744140625</ele>
        <time>2016-10-11T12:22:54Z</time>
      </trkpt>
      <trkpt lat="43.38835" lon="5.48391">
        <ele>379.85803222656</ele>
        <time>2016-10-11T12:22:55Z</time>
      </trkpt>
      <trkpt lat="43.38824" lon="5.48387">
        <ele>381.78063964844</ele>
        <time>2016-10-11T12:23:09Z</time>
      </trkpt>
      <trkpt lat="43.38805" lon="5.48382">
        <ele>383.70324707031</ele>
        <time>2016-10-11T12:23:29Z</time>
      </trkpt>
      <trkpt lat="43.38792" lon="5.48377">
        <ele>383.22265625</ele>
        <time>2016-10-11T12:23:41Z</time>
      </trkpt>
      <trkpt lat="43.38777" lon="5.48372">
        <ele>384.18408203125</ele>
        <time>2016-10-11T12:23:54Z</time>
      </trkpt>
      <trkpt lat="43.38764" lon="5.48378">
        <ele>384.18408203125</ele>
        <time>2016-10-11T12:24:07Z</time>
      </trkpt>
      <trkpt lat="43.38755" lon="5.48396">
        <ele>387.06799316406</ele>
        <time>2016-10-11T12:24:23Z</time>
      </trkpt>
      <trkpt lat="43.38752" lon="5.48413">
        <ele>389.95190429688</ele>
        <time>2016-10-11T12:24:36Z</time>
      </trkpt>
      <trkpt lat="43.3875" lon="5.4842">
        <ele>390.91320800781</ele>
        <time>2016-10-11T12:24:54Z</time>
      </trkpt>
      <trkpt lat="43.38748" lon="5.4842">
        <ele>389.47119140625</ele>
        <time>2016-10-11T12:25:56Z</time>
      </trkpt>
      <trkpt lat="43.38748" lon="5.4842">
        <ele>389.47119140625</ele>
        <time>2016-10-11T12:27:01Z</time>
      </trkpt>
      <trkpt lat="43.38739" lon="5.48432">
        <ele>387.54858398438</ele>
        <time>2016-10-11T12:28:05Z</time>
      </trkpt>
      <trkpt lat="43.3873" lon="5.48436">
        <ele>383.70324707031</ele>
        <time>2016-10-11T12:28:17Z</time>
      </trkpt>
      <trkpt lat="43.38725" lon="5.4844">
        <ele>382.26135253906</ele>
        <time>2016-10-11T12:28:35Z</time>
      </trkpt>
      <trkpt lat="43.38723" lon="5.48436">
        <ele>381.78063964844</ele>
        <time>2016-10-11T12:31:45Z</time>
      </trkpt>
      <trkpt lat="43.38707" lon="5.48424">
        <ele>382.26135253906</ele>
        <time>2016-10-11T12:32:00Z</time>
      </trkpt>
      <trkpt lat="43.38702" lon="5.48422">
        <ele>380.81945800781</ele>
        <time>2016-10-11T12:32:18Z</time>
      </trkpt>
      <trkpt lat="43.38689" lon="5.4841">
        <ele>376.97424316406</ele>
        <time>2016-10-11T12:32:34Z</time>
      </trkpt>
      <trkpt lat="43.38674" lon="5.48399">
        <ele>374.09008789062</ele>
        <time>2016-10-11T12:32:48Z</time>
      </trkpt>
      <trkpt lat="43.3866" lon="5.48388">
        <ele>370.24487304688</ele>
        <time>2016-10-11T12:33:03Z</time>
      </trkpt>
      <trkpt lat="43.38646" lon="5.48377">
        <ele>367.36096191406</ele>
        <time>2016-10-11T12:33:18Z</time>
      </trkpt>
      <trkpt lat="43.38642" lon="5.48372">
        <ele>366.39953613281</ele>
        <time>2016-10-11T12:33:23Z</time>
      </trkpt>
      <trkpt lat="43.38629" lon="5.48363">
        <ele>363.51574707031</ele>
        <time>2016-10-11T12:33:40Z</time>
      </trkpt>
      <trkpt lat="43.38617" lon="5.48368">
        <ele>361.11242675781</ele>
        <time>2016-10-11T12:33:52Z</time>
      </trkpt>
      <trkpt lat="43.38605" lon="5.48375">
        <ele>361.59313964844</ele>
        <time>2016-10-11T12:34:04Z</time>
      </trkpt>
      <trkpt lat="43.3859" lon="5.48383">
        <ele>360.63171386719</ele>
        <time>2016-10-11T12:34:20Z</time>
      </trkpt>
      <trkpt lat="43.38574" lon="5.48388">
        <ele>356.30578613281</ele>
        <time>2016-10-11T12:34:33Z</time>
      </trkpt>
      <trkpt lat="43.38564" lon="5.48395">
        <ele>354.38317871094</ele>
        <time>2016-10-11T12:34:44Z</time>
      </trkpt>
      <trkpt lat="43.3856" lon="5.48399">
        <ele>355.34448242188</ele>
        <time>2016-10-11T12:34:48Z</time>
      </trkpt>
      <trkpt lat="43.38542" lon="5.48405">
        <ele>354.86376953125</ele>
        <time>2016-10-11T12:35:04Z</time>
      </trkpt>
      <trkpt lat="43.38541" lon="5.48405">
        <ele>354.86376953125</ele>
        <time>2016-10-11T12:35:05Z</time>
      </trkpt>
      <trkpt lat="43.38537" lon="5.48408">
        <ele>354.86376953125</ele>
        <time>2016-10-11T12:35:09Z</time>
      </trkpt>
      <trkpt lat="43.3852" lon="5.48421">
        <ele>357.74780273438</ele>
        <time>2016-10-11T12:35:27Z</time>
      </trkpt>
      <trkpt lat="43.38504" lon="5.48436">
        <ele>361.59313964844</ele>
        <time>2016-10-11T12:35:47Z</time>
      </trkpt>
      <trkpt lat="43.385" lon="5.48436">
        <ele>362.07373046875</ele>
        <time>2016-10-11T12:35:54Z</time>
      </trkpt>
      <trkpt lat="43.38484" lon="5.48427">
        <ele>365.9189453125</ele>
        <time>2016-10-11T12:36:11Z</time>
      </trkpt>
      <trkpt lat="43.38465" lon="5.48427">
        <ele>367.36096191406</ele>
        <time>2016-10-11T12:36:27Z</time>
      </trkpt>
      <trkpt lat="43.3845" lon="5.48424">
        <ele>368.322265625</ele>
        <time>2016-10-11T12:36:43Z</time>
      </trkpt>
      <trkpt lat="43.38446" lon="5.48424">
        <ele>367.36096191406</ele>
        <time>2016-10-11T12:36:47Z</time>
      </trkpt>
      <trkpt lat="43.38432" lon="5.48425">
        <ele>365.9189453125</ele>
        <time>2016-10-11T12:37:00Z</time>
      </trkpt>
      <trkpt lat="43.38411" lon="5.48426">
        <ele>366.88024902344</ele>
        <time>2016-10-11T12:37:25Z</time>
      </trkpt>
      <trkpt lat="43.38405" lon="5.48424">
        <ele>367.84155273438</ele>
        <time>2016-10-11T12:37:32Z</time>
      </trkpt>
      <trkpt lat="43.38392" lon="5.48429">
        <ele>368.322265625</ele>
        <time>2016-10-11T12:37:45Z</time>
      </trkpt>
      <trkpt lat="43.38387" lon="5.48426">
        <ele>366.88024902344</ele>
        <time>2016-10-11T12:37:50Z</time>
      </trkpt>
      <trkpt lat="43.38375" lon="5.48418">
        <ele>363.99633789062</ele>
        <time>2016-10-11T12:38:05Z</time>
      </trkpt>
      <trkpt lat="43.3837" lon="5.48416">
        <ele>362.55432128906</ele>
        <time>2016-10-11T12:38:10Z</time>
      </trkpt>
      <trkpt lat="43.38357" lon="5.4841">
        <ele>361.11242675781</ele>
        <time>2016-10-11T12:38:24Z</time>
      </trkpt>
      <trkpt lat="43.38347" lon="5.48403">
        <ele>360.15112304688</ele>
        <time>2016-10-11T12:38:33Z</time>
      </trkpt>
      <trkpt lat="43.38331" lon="5.48394">
        <ele>358.22839355469</ele>
        <time>2016-10-11T12:38:50Z</time>
      </trkpt>
      <trkpt lat="43.38329" lon="5.48393">
        <ele>358.22839355469</ele>
        <time>2016-10-11T12:38:52Z</time>
      </trkpt>
      <trkpt lat="43.38315" lon="5.48383">
        <ele>359.18969726562</ele>
        <time>2016-10-11T12:39:06Z</time>
      </trkpt>
      <trkpt lat="43.38309" lon="5.48373">
        <ele>358.708984375</ele>
        <time>2016-10-11T12:39:15Z</time>
      </trkpt>
      <trkpt lat="43.38298" lon="5.48346">
        <ele>359.18969726562</ele>
        <time>2016-10-11T12:39:33Z</time>
      </trkpt>
      <trkpt lat="43.38289" lon="5.48317">
        <ele>358.708984375</ele>
        <time>2016-10-11T12:39:53Z</time>
      </trkpt>
      <trkpt lat="43.38281" lon="5.48292">
        <ele>356.78637695312</ele>
        <time>2016-10-11T12:40:10Z</time>
      </trkpt>
      <trkpt lat="43.38268" lon="5.48277">
        <ele>356.30578613281</ele>
        <time>2016-10-11T12:40:26Z</time>
      </trkpt>
      <trkpt lat="43.38264" lon="5.4827">
        <ele>354.86376953125</ele>
        <time>2016-10-11T12:40:33Z</time>
      </trkpt>
      <trkpt lat="43.38262" lon="5.48267">
        <ele>355.34448242188</ele>
        <time>2016-10-11T12:40:35Z</time>
      </trkpt>
      <trkpt lat="43.38247" lon="5.48251">
        <ele>356.30578613281</ele>
        <time>2016-10-11T12:40:51Z</time>
      </trkpt>
      <trkpt lat="43.38236" lon="5.48237">
        <ele>359.18969726562</ele>
        <time>2016-10-11T12:41:05Z</time>
      </trkpt>
      <trkpt lat="43.38222" lon="5.48228">
        <ele>358.22839355469</ele>
        <time>2016-10-11T12:41:19Z</time>
      </trkpt>
      <trkpt lat="43.38215" lon="5.48226">
        <ele>358.22839355469</ele>
        <time>2016-10-11T12:41:26Z</time>
      </trkpt>
      <trkpt lat="43.38212" lon="5.48225">
        <ele>358.22839355469</ele>
        <time>2016-10-11T12:41:29Z</time>
      </trkpt>
      <trkpt lat="43.38206" lon="5.48223">
        <ele>357.74780273438</ele>
        <time>2016-10-11T12:41:35Z</time>
      </trkpt>
      <trkpt lat="43.38204" lon="5.48223">
        <ele>357.26708984375</ele>
        <time>2016-10-11T12:41:37Z</time>
      </trkpt>
      <trkpt lat="43.38196" lon="5.4822">
        <ele>357.74780273438</ele>
        <time>2016-10-11T12:41:43Z</time>
      </trkpt>
      <trkpt lat="43.38183" lon="5.48218">
        <ele>357.74780273438</ele>
        <time>2016-10-11T12:41:56Z</time>
      </trkpt>
      <trkpt lat="43.38167" lon="5.48217">
        <ele>357.26708984375</ele>
        <time>2016-10-11T12:42:11Z</time>
      </trkpt>
      <trkpt lat="43.38155" lon="5.48213">
        <ele>356.30578613281</ele>
        <time>2016-10-11T12:43:03Z</time>
      </trkpt>
      <trkpt lat="43.38141" lon="5.48213">
        <ele>356.30578613281</ele>
        <time>2016-10-11T12:43:17Z</time>
      </trkpt>
      <trkpt lat="43.38135" lon="5.48213">
        <ele>355.34448242188</ele>
        <time>2016-10-11T12:43:22Z</time>
      </trkpt>
      <trkpt lat="43.38132" lon="5.48212">
        <ele>354.86376953125</ele>
        <time>2016-10-11T12:43:25Z</time>
      </trkpt>
      <trkpt lat="43.38121" lon="5.4821">
        <ele>353.90258789062</ele>
        <time>2016-10-11T12:43:37Z</time>
      </trkpt>
      <trkpt lat="43.38119" lon="5.48209">
        <ele>353.421875</ele>
        <time>2016-10-11T12:43:39Z</time>
      </trkpt>
      <trkpt lat="43.38115" lon="5.48209">
        <ele>353.421875</ele>
        <time>2016-10-11T12:43:43Z</time>
      </trkpt>
      <trkpt lat="43.38112" lon="5.48209">
        <ele>353.421875</ele>
        <time>2016-10-11T12:43:46Z</time>
      </trkpt>
      <trkpt lat="43.38108" lon="5.48208">
        <ele>352.94116210938</ele>
        <time>2016-10-11T12:43:50Z</time>
      </trkpt>
      <trkpt lat="43.38088" lon="5.48206">
        <ele>351.49914550781</ele>
        <time>2016-10-11T12:44:08Z</time>
      </trkpt>
      <trkpt lat="43.38081" lon="5.48205">
        <ele>350.05725097656</ele>
        <time>2016-10-11T12:44:14Z</time>
      </trkpt>
      <trkpt lat="43.38076" lon="5.48203">
        <ele>349.57653808594</ele>
        <time>2016-10-11T12:44:17Z</time>
      </trkpt>
      <trkpt lat="43.38071" lon="5.48202">
        <ele>349.57653808594</ele>
        <time>2016-10-11T12:44:21Z</time>
      </trkpt>
      <trkpt lat="43.38069" lon="5.48203">
        <ele>349.57653808594</ele>
        <time>2016-10-11T12:44:23Z</time>
      </trkpt>
      <trkpt lat="43.38054" lon="5.48201">
        <ele>348.13464355469</ele>
        <time>2016-10-11T12:44:37Z</time>
      </trkpt>
      <trkpt lat="43.3804" lon="5.48198">
        <ele>348.615234375</ele>
        <time>2016-10-11T12:44:49Z</time>
      </trkpt>
      <trkpt lat="43.38037" lon="5.48198">
        <ele>348.615234375</ele>
        <time>2016-10-11T12:44:52Z</time>
      </trkpt>
      <trkpt lat="43.38014" lon="5.48194">
        <ele>346.21203613281</ele>
        <time>2016-10-11T12:45:11Z</time>
      </trkpt>
      <trkpt lat="43.37992" lon="5.48182">
        <ele>343.80859375</ele>
        <time>2016-10-11T12:45:30Z</time>
      </trkpt>
      <trkpt lat="43.37969" lon="5.48171">
        <ele>341.4052734375</ele>
        <time>2016-10-11T12:45:49Z</time>
      </trkpt>
      <trkpt lat="43.37961" lon="5.48173">
        <ele>339.96337890625</ele>
        <time>2016-10-11T12:45:55Z</time>
      </trkpt>
      <trkpt lat="43.37944" lon="5.48198">
        <ele>336.1181640625</ele>
        <time>2016-10-11T12:46:17Z</time>
      </trkpt>
      <trkpt lat="43.3794" lon="5.48228">
        <ele>332.75354003906</ele>
        <time>2016-10-11T12:46:36Z</time>
      </trkpt>
      <trkpt lat="43.37935" lon="5.48237">
        <ele>331.79211425781</ele>
        <time>2016-10-11T12:46:43Z</time>
      </trkpt>
      <trkpt lat="43.37929" lon="5.4824">
        <ele>329.86950683594</ele>
        <time>2016-10-11T12:46:49Z</time>
      </trkpt>
      <trkpt lat="43.37913" lon="5.48251">
        <ele>325.54357910156</ele>
        <time>2016-10-11T12:47:04Z</time>
      </trkpt>
      <trkpt lat="43.37908" lon="5.48256">
        <ele>326.02416992188</ele>
        <time>2016-10-11T12:47:09Z</time>
      </trkpt>
      <trkpt lat="43.37904" lon="5.48264">
        <ele>326.5048828125</ele>
        <time>2016-10-11T12:47:23Z</time>
      </trkpt>
      <trkpt lat="43.37905" lon="5.4826">
        <ele>325.54357910156</ele>
        <time>2016-10-11T12:48:06Z</time>
      </trkpt>
      <trkpt lat="43.37899" lon="5.48259">
        <ele>326.02416992188</ele>
        <time>2016-10-11T12:51:19Z</time>
      </trkpt>
      <trkpt lat="43.37894" lon="5.48262">
        <ele>326.02416992188</ele>
        <time>2016-10-11T12:51:23Z</time>
      </trkpt>
      <trkpt lat="43.37891" lon="5.48262">
        <ele>326.5048828125</ele>
        <time>2016-10-11T12:51:25Z</time>
      </trkpt>
      <trkpt lat="43.37885" lon="5.48263">
        <ele>326.98559570312</ele>
        <time>2016-10-11T12:51:31Z</time>
      </trkpt>
      <trkpt lat="43.37883" lon="5.48264">
        <ele>326.98559570312</ele>
        <time>2016-10-11T12:51:33Z</time>
      </trkpt>
      <trkpt lat="43.37864" lon="5.48273">
        <ele>325.06298828125</ele>
        <time>2016-10-11T12:51:50Z</time>
      </trkpt>
      <trkpt lat="43.37852" lon="5.48286">
        <ele>325.06298828125</ele>
        <time>2016-10-11T12:52:03Z</time>
      </trkpt>
      <trkpt lat="43.37847" lon="5.48289">
        <ele>326.02416992188</ele>
        <time>2016-10-11T12:52:08Z</time>
      </trkpt>
      <trkpt lat="43.3784" lon="5.48289">
        <ele>327.94677734375</ele>
        <time>2016-10-11T12:52:15Z</time>
      </trkpt>
      <trkpt lat="43.37824" lon="5.48283">
        <ele>328.90832519531</ele>
        <time>2016-10-11T12:52:29Z</time>
      </trkpt>
      <trkpt lat="43.37813" lon="5.4828">
        <ele>330.35021972656</ele>
        <time>2016-10-11T12:52:40Z</time>
      </trkpt>
      <trkpt lat="43.37804" lon="5.48274">
        <ele>329.86950683594</ele>
        <time>2016-10-11T12:52:48Z</time>
      </trkpt>
      <trkpt lat="43.378" lon="5.4827">
        <ele>328.90832519531</ele>
        <time>2016-10-11T12:52:51Z</time>
      </trkpt>
      <trkpt lat="43.37781" lon="5.48257">
        <ele>328.90832519531</ele>
        <time>2016-10-11T12:53:09Z</time>
      </trkpt>
      <trkpt lat="43.37779" lon="5.48257">
        <ele>328.42761230469</ele>
        <time>2016-10-11T12:53:11Z</time>
      </trkpt>
      <trkpt lat="43.37759" lon="5.48242">
        <ele>328.90832519531</ele>
        <time>2016-10-11T12:53:28Z</time>
      </trkpt>
      <trkpt lat="43.3775" lon="5.48233">
        <ele>329.86950683594</ele>
        <time>2016-10-11T12:53:38Z</time>
      </trkpt>
      <trkpt lat="43.37726" lon="5.4822">
        <ele>330.35021972656</ele>
        <time>2016-10-11T12:53:57Z</time>
      </trkpt>
      <trkpt lat="43.3771" lon="5.48212">
        <ele>330.83093261719</ele>
        <time>2016-10-11T12:54:10Z</time>
      </trkpt>
      <trkpt lat="43.37703" lon="5.48209">
        <ele>331.79211425781</ele>
        <time>2016-10-11T12:54:16Z</time>
      </trkpt>
      <trkpt lat="43.37693" lon="5.48202">
        <ele>331.3115234375</ele>
        <time>2016-10-11T12:54:24Z</time>
      </trkpt>
      <trkpt lat="43.37689" lon="5.482">
        <ele>330.83093261719</ele>
        <time>2016-10-11T12:54:28Z</time>
      </trkpt>
      <trkpt lat="43.3767" lon="5.48182">
        <ele>330.83093261719</ele>
        <time>2016-10-11T12:54:45Z</time>
      </trkpt>
      <trkpt lat="43.37654" lon="5.48167">
        <ele>329.86950683594</ele>
        <time>2016-10-11T12:54:59Z</time>
      </trkpt>
      <trkpt lat="43.37651" lon="5.48166">
        <ele>329.38891601562</ele>
        <time>2016-10-11T12:55:01Z</time>
      </trkpt>
      <trkpt lat="43.37648" lon="5.48164">
        <ele>329.38891601562</ele>
        <time>2016-10-11T12:55:03Z</time>
      </trkpt>
      <trkpt lat="43.37644" lon="5.48162">
        <ele>330.83093261719</ele>
        <time>2016-10-11T12:55:15Z</time>
      </trkpt>
      <trkpt lat="43.37638" lon="5.48153">
        <ele>333.71472167969</ele>
        <time>2016-10-11T12:55:26Z</time>
      </trkpt>
      <trkpt lat="43.3763" lon="5.4815">
        <ele>333.23413085938</ele>
        <time>2016-10-11T12:55:39Z</time>
      </trkpt>
      <trkpt lat="43.37626" lon="5.48152">
        <ele>332.27282714844</ele>
        <time>2016-10-11T12:55:43Z</time>
      </trkpt>
      <trkpt lat="43.37622" lon="5.48159">
        <ele>331.79211425781</ele>
        <time>2016-10-11T12:55:49Z</time>
      </trkpt>
      <trkpt lat="43.3762" lon="5.48175">
        <ele>327.94677734375</ele>
        <time>2016-10-11T12:56:06Z</time>
      </trkpt>
      <trkpt lat="43.37618" lon="5.48177">
        <ele>326.98559570312</ele>
        <time>2016-10-11T12:56:24Z</time>
      </trkpt>
      <trkpt lat="43.37625" lon="5.48179">
        <ele>328.90832519531</ele>
        <time>2016-10-11T12:56:49Z</time>
      </trkpt>
      <trkpt lat="43.37632" lon="5.48186">
        <ele>328.90832519531</ele>
        <time>2016-10-11T12:57:01Z</time>
      </trkpt>
      <trkpt lat="43.37634" lon="5.48186">
        <ele>328.90832519531</ele>
        <time>2016-10-11T12:57:03Z</time>
      </trkpt>
      <trkpt lat="43.37642" lon="5.48191">
        <ele>329.86950683594</ele>
        <time>2016-10-11T12:57:12Z</time>
      </trkpt>
      <trkpt lat="43.37641" lon="5.48203">
        <ele>326.98559570312</ele>
        <time>2016-10-11T12:57:31Z</time>
      </trkpt>
      <trkpt lat="43.3764" lon="5.48212">
        <ele>325.06298828125</ele>
        <time>2016-10-11T12:58:04Z</time>
      </trkpt>
      <trkpt lat="43.37639" lon="5.48222">
        <ele>323.62097167969</ele>
        <time>2016-10-11T12:58:17Z</time>
      </trkpt>
      <trkpt lat="43.37639" lon="5.48235">
        <ele>324.1015625</ele>
        <time>2016-10-11T12:58:31Z</time>
      </trkpt>
      <trkpt lat="43.37642" lon="5.48259">
        <ele>321.2177734375</ele>
        <time>2016-10-11T12:58:48Z</time>
      </trkpt>
      <trkpt lat="43.37643" lon="5.48264">
        <ele>319.77563476562</ele>
        <time>2016-10-11T12:59:05Z</time>
      </trkpt>
      <trkpt lat="43.37637" lon="5.48271">
        <ele>317.85302734375</ele>
        <time>2016-10-11T12:59:20Z</time>
      </trkpt>
      <trkpt lat="43.37628" lon="5.48268">
        <ele>317.37243652344</ele>
        <time>2016-10-11T12:59:31Z</time>
      </trkpt>
      <trkpt lat="43.37623" lon="5.48268">
        <ele>317.37243652344</ele>
        <time>2016-10-11T12:59:49Z</time>
      </trkpt>
      <trkpt lat="43.3761" lon="5.48266">
        <ele>314.96911621094</ele>
        <time>2016-10-11T13:00:05Z</time>
      </trkpt>
      <trkpt lat="43.37599" lon="5.48266">
        <ele>315.93041992188</ele>
        <time>2016-10-11T13:00:15Z</time>
      </trkpt>
      <trkpt lat="43.37597" lon="5.48272">
        <ele>316.89172363281</ele>
        <time>2016-10-11T13:00:20Z</time>
      </trkpt>
      <trkpt lat="43.37601" lon="5.48293">
        <ele>320.25634765625</ele>
        <time>2016-10-11T13:00:37Z</time>
      </trkpt>
      <trkpt lat="43.37604" lon="5.48315">
        <ele>321.2177734375</ele>
        <time>2016-10-11T13:00:58Z</time>
      </trkpt>
      <trkpt lat="43.37604" lon="5.48323">
        <ele>320.73706054688</ele>
        <time>2016-10-11T13:01:04Z</time>
      </trkpt>
      <trkpt lat="43.37607" lon="5.48346">
        <ele>315.44982910156</ele>
        <time>2016-10-11T13:01:22Z</time>
      </trkpt>
      <trkpt lat="43.37615" lon="5.48361">
        <ele>313.52722167969</ele>
        <time>2016-10-11T13:01:38Z</time>
      </trkpt>
      <trkpt lat="43.37622" lon="5.48373">
        <ele>310.64306640625</ele>
        <time>2016-10-11T13:01:52Z</time>
      </trkpt>
      <trkpt lat="43.37632" lon="5.4839">
        <ele>306.7978515625</ele>
        <time>2016-10-11T13:02:11Z</time>
      </trkpt>
      <trkpt lat="43.37633" lon="5.48393">
        <ele>306.7978515625</ele>
        <time>2016-10-11T13:02:13Z</time>
      </trkpt>
      <trkpt lat="43.37636" lon="5.484">
        <ele>304.39465332031</ele>
        <time>2016-10-11T13:02:31Z</time>
      </trkpt>
      <trkpt lat="43.37635" lon="5.48404">
        <ele>303.91394042969</ele>
        <time>2016-10-11T13:02:51Z</time>
      </trkpt>
      <trkpt lat="43.37635" lon="5.48423">
        <ele>302.95251464844</ele>
        <time>2016-10-11T13:03:06Z</time>
      </trkpt>
      <trkpt lat="43.37634" lon="5.48442">
        <ele>300.54931640625</ele>
        <time>2016-10-11T13:03:24Z</time>
      </trkpt>
      <trkpt lat="43.37634" lon="5.48449">
        <ele>300.06872558594</ele>
        <time>2016-10-11T13:03:47Z</time>
      </trkpt>
      <trkpt lat="43.37631" lon="5.48456">
        <ele>297.18469238281</ele>
        <time>2016-10-11T13:04:02Z</time>
      </trkpt>
      <trkpt lat="43.37632" lon="5.48462">
        <ele>293.82006835938</ele>
        <time>2016-10-11T13:04:17Z</time>
      </trkpt>
      <trkpt lat="43.37629" lon="5.48467">
        <ele>289.97485351562</ele>
        <time>2016-10-11T13:04:34Z</time>
      </trkpt>
      <trkpt lat="43.37627" lon="5.48474">
        <ele>286.12951660156</ele>
        <time>2016-10-11T13:04:53Z</time>
      </trkpt>
      <trkpt lat="43.37625" lon="5.48479">
        <ele>282.76501464844</ele>
        <time>2016-10-11T13:05:11Z</time>
      </trkpt>
      <trkpt lat="43.37622" lon="5.48482">
        <ele>281.32299804688</ele>
        <time>2016-10-11T13:05:30Z</time>
      </trkpt>
      <trkpt lat="43.3762" lon="5.48483">
        <ele>278.43896484375</ele>
        <time>2016-10-11T13:05:55Z</time>
      </trkpt>
      <trkpt lat="43.37617" lon="5.48482">
        <ele>277.47766113281</ele>
        <time>2016-10-11T13:06:14Z</time>
      </trkpt>
      <trkpt lat="43.37614" lon="5.48486">
        <ele>276.51635742188</ele>
        <time>2016-10-11T13:06:37Z</time>
      </trkpt>
      <trkpt lat="43.37615" lon="5.48491">
        <ele>273.63244628906</ele>
        <time>2016-10-11T13:07:03Z</time>
      </trkpt>
      <trkpt lat="43.37615" lon="5.48494">
        <ele>271.22912597656</ele>
        <time>2016-10-11T13:07:15Z</time>
      </trkpt>
      <trkpt lat="43.37617" lon="5.485">
        <ele>270.26770019531</ele>
        <time>2016-10-11T13:07:31Z</time>
      </trkpt>
      <trkpt lat="43.37613" lon="5.48505">
        <ele>272.1904296875</ele>
        <time>2016-10-11T13:07:46Z</time>
      </trkpt>
      <trkpt lat="43.37612" lon="5.48511">
        <ele>272.1904296875</ele>
        <time>2016-10-11T13:08:11Z</time>
      </trkpt>
      <trkpt lat="43.37609" lon="5.48515">
        <ele>270.74841308594</ele>
        <time>2016-10-11T13:08:23Z</time>
      </trkpt>
      <trkpt lat="43.37604" lon="5.48521">
        <ele>270.26770019531</ele>
        <time>2016-10-11T13:08:36Z</time>
      </trkpt>
      <trkpt lat="43.37593" lon="5.48533">
        <ele>271.70971679688</ele>
        <time>2016-10-11T13:08:56Z</time>
      </trkpt>
      <trkpt lat="43.3759" lon="5.48536">
        <ele>273.63244628906</ele>
        <time>2016-10-11T13:09:16Z</time>
      </trkpt>
      <trkpt lat="43.37588" lon="5.48536">
        <ele>276.03564453125</ele>
        <time>2016-10-11T13:09:54Z</time>
      </trkpt>
      <trkpt lat="43.37577" lon="5.48545">
        <ele>278.43896484375</ele>
        <time>2016-10-11T13:10:08Z</time>
      </trkpt>
      <trkpt lat="43.37574" lon="5.48552">
        <ele>278.91967773438</ele>
        <time>2016-10-11T13:10:19Z</time>
      </trkpt>
      <trkpt lat="43.37575" lon="5.48572">
        <ele>278.91967773438</ele>
        <time>2016-10-11T13:10:35Z</time>
      </trkpt>
      <trkpt lat="43.3757" lon="5.48578">
        <ele>279.880859375</ele>
        <time>2016-10-11T13:10:42Z</time>
      </trkpt>
      <trkpt lat="43.37563" lon="5.48591">
        <ele>278.91967773438</ele>
        <time>2016-10-11T13:10:57Z</time>
      </trkpt>
      <trkpt lat="43.37557" lon="5.48597">
        <ele>273.63244628906</ele>
        <time>2016-10-11T13:11:15Z</time>
      </trkpt>
      <trkpt lat="43.37558" lon="5.48597">
        <ele>272.67114257812</ele>
        <time>2016-10-11T13:11:16Z</time>
      </trkpt>
      <trkpt lat="43.37561" lon="5.48598">
        <ele>268.82580566406</ele>
        <time>2016-10-11T13:11:29Z</time>
      </trkpt>
      <trkpt lat="43.37558" lon="5.48596">
        <ele>267.86450195312</ele>
        <time>2016-10-11T13:11:38Z</time>
      </trkpt>
      <trkpt lat="43.37546" lon="5.48612">
        <ele>265.46130371094</ele>
        <time>2016-10-11T13:11:54Z</time>
      </trkpt>
      <trkpt lat="43.3754" lon="5.48616">
        <ele>264.49987792969</ele>
        <time>2016-10-11T13:12:02Z</time>
      </trkpt>
      <trkpt lat="43.37536" lon="5.48616">
        <ele>262.09655761719</ele>
        <time>2016-10-11T13:12:05Z</time>
      </trkpt>
      <trkpt lat="43.37526" lon="5.48623">
        <ele>257.2900390625</ele>
        <time>2016-10-11T13:12:17Z</time>
      </trkpt>
      <trkpt lat="43.37512" lon="5.48637">
        <ele>258.25134277344</ele>
        <time>2016-10-11T13:12:32Z</time>
      </trkpt>
      <trkpt lat="43.37502" lon="5.48656">
        <ele>259.693359375</ele>
        <time>2016-10-11T13:12:46Z</time>
      </trkpt>
      <trkpt lat="43.37502" lon="5.48658">
        <ele>259.21264648438</ele>
        <time>2016-10-11T13:12:48Z</time>
      </trkpt>
      <trkpt lat="43.37491" lon="5.48679">
        <ele>257.2900390625</ele>
        <time>2016-10-11T13:13:03Z</time>
      </trkpt>
      <trkpt lat="43.3748" lon="5.48684">
        <ele>248.63818359375</ele>
        <time>2016-10-11T13:13:16Z</time>
      </trkpt>
      <trkpt lat="43.37478" lon="5.48685">
        <ele>247.6767578125</ele>
        <time>2016-10-11T13:13:18Z</time>
      </trkpt>
      <trkpt lat="43.37464" lon="5.48692">
        <ele>236.14099121094</ele>
        <time>2016-10-11T13:13:36Z</time>
      </trkpt>
      <trkpt lat="43.37463" lon="5.48694">
        <ele>234.21838378906</ele>
        <time>2016-10-11T13:14:15Z</time>
      </trkpt>
      <trkpt lat="43.37461" lon="5.48693">
        <ele>234.21838378906</ele>
        <time>2016-10-11T13:14:22Z</time>
      </trkpt>
      <trkpt lat="43.37438" lon="5.48691">
        <ele>232.77648925781</ele>
        <time>2016-10-11T13:14:38Z</time>
      </trkpt>
      <trkpt lat="43.37435" lon="5.48689">
        <ele>232.77648925781</ele>
        <time>2016-10-11T13:14:40Z</time>
      </trkpt>
      <trkpt lat="43.37424" lon="5.48689">
        <ele>234.21838378906</ele>
        <time>2016-10-11T13:14:47Z</time>
      </trkpt>
      <trkpt lat="43.37408" lon="5.48698">
        <ele>238.06359863281</ele>
        <time>2016-10-11T13:14:57Z</time>
      </trkpt>
      <trkpt lat="43.37388" lon="5.48709">
        <ele>244.79284667969</ele>
        <time>2016-10-11T13:15:12Z</time>
      </trkpt>
      <trkpt lat="43.37386" lon="5.48709">
        <ele>245.75415039062</ele>
        <time>2016-10-11T13:15:14Z</time>
      </trkpt>
      <trkpt lat="43.3738" lon="5.4871">
        <ele>247.6767578125</ele>
        <time>2016-10-11T13:15:19Z</time>
      </trkpt>
      <trkpt lat="43.37371" lon="5.4871">
        <ele>250.08020019531</ele>
        <time>2016-10-11T13:15:26Z</time>
      </trkpt>
      <trkpt lat="43.37364" lon="5.48705">
        <ele>252.00280761719</ele>
        <time>2016-10-11T13:15:31Z</time>
      </trkpt>
      <trkpt lat="43.37341" lon="5.48705">
        <ele>252.4833984375</ele>
        <time>2016-10-11T13:15:49Z</time>
      </trkpt>
      <trkpt lat="43.37339" lon="5.48705">
        <ele>252.4833984375</ele>
        <time>2016-10-11T13:15:51Z</time>
      </trkpt>
      <trkpt lat="43.37334" lon="5.48706">
        <ele>252.96398925781</ele>
        <time>2016-10-11T13:15:56Z</time>
      </trkpt>
      <trkpt lat="43.3732" lon="5.48721">
        <ele>253.92541503906</ele>
        <time>2016-10-11T13:16:12Z</time>
      </trkpt>
      <trkpt lat="43.37316" lon="5.48721">
        <ele>253.44470214844</ele>
        <time>2016-10-11T13:16:16Z</time>
      </trkpt>
      <trkpt lat="43.37313" lon="5.48721">
        <ele>253.92541503906</ele>
        <time>2016-10-11T13:16:19Z</time>
      </trkpt>
      <trkpt lat="43.37311" lon="5.48722">
        <ele>254.40600585938</ele>
        <time>2016-10-11T13:16:21Z</time>
      </trkpt>
      <trkpt lat="43.37307" lon="5.48722">
        <ele>254.88659667969</ele>
        <time>2016-10-11T13:16:25Z</time>
      </trkpt>
      <trkpt lat="43.37303" lon="5.48722">
        <ele>255.36730957031</ele>
        <time>2016-10-11T13:16:29Z</time>
      </trkpt>
      <trkpt lat="43.37287" lon="5.48732">
        <ele>258.25134277344</ele>
        <time>2016-10-11T13:16:43Z</time>
      </trkpt>
      <trkpt lat="43.37267" lon="5.48735">
        <ele>264.49987792969</ele>
        <time>2016-10-11T13:17:01Z</time>
      </trkpt>
      <trkpt lat="43.37259" lon="5.48745">
        <ele>255.84802246094</ele>
        <time>2016-10-11T13:17:16Z</time>
      </trkpt>
      <trkpt lat="43.37257" lon="5.48749">
        <ele>254.88659667969</ele>
        <time>2016-10-11T13:17:19Z</time>
      </trkpt>
      <trkpt lat="43.37245" lon="5.4877">
        <ele>250.56079101562</ele>
        <time>2016-10-11T13:17:37Z</time>
      </trkpt>
      <trkpt lat="43.37229" lon="5.48783">
        <ele>239.98620605469</ele>
        <time>2016-10-11T13:17:57Z</time>
      </trkpt>
      <trkpt lat="43.37221" lon="5.48785">
        <ele>235.66027832031</ele>
        <time>2016-10-11T13:18:07Z</time>
      </trkpt>
      <trkpt lat="43.37219" lon="5.48785">
        <ele>235.1796875</ele>
        <time>2016-10-11T13:18:09Z</time>
      </trkpt>
      <trkpt lat="43.3721" lon="5.48792">
        <ele>229.41174316406</ele>
        <time>2016-10-11T13:18:21Z</time>
      </trkpt>
      <trkpt lat="43.37207" lon="5.48793">
        <ele>225.56652832031</ele>
        <time>2016-10-11T13:18:28Z</time>
      </trkpt>
      <trkpt lat="43.37204" lon="5.48795">
        <ele>222.68249511719</ele>
        <time>2016-10-11T13:18:33Z</time>
      </trkpt>
      <trkpt lat="43.372" lon="5.48795">
        <ele>221.24060058594</ele>
        <time>2016-10-11T13:18:37Z</time>
      </trkpt>
      <trkpt lat="43.37193" lon="5.48799">
        <ele>219.79858398438</ele>
        <time>2016-10-11T13:18:44Z</time>
      </trkpt>
      <trkpt lat="43.3718" lon="5.48801">
        <ele>215.95324707031</ele>
        <time>2016-10-11T13:18:55Z</time>
      </trkpt>
      <trkpt lat="43.37167" lon="5.48803">
        <ele>212.58862304688</ele>
        <time>2016-10-11T13:19:06Z</time>
      </trkpt>
      <trkpt lat="43.37164" lon="5.48803">
        <ele>212.10803222656</ele>
        <time>2016-10-11T13:19:08Z</time>
      </trkpt>
      <trkpt lat="43.37149" lon="5.48804">
        <ele>211.62744140625</ele>
        <time>2016-10-11T13:19:27Z</time>
      </trkpt>
      <trkpt lat="43.37138" lon="5.48791">
        <ele>213.0693359375</ele>
        <time>2016-10-11T13:19:39Z</time>
      </trkpt>
      <trkpt lat="43.37133" lon="5.48784">
        <ele>214.03063964844</ele>
        <time>2016-10-11T13:19:44Z</time>
      </trkpt>
      <trkpt lat="43.3713" lon="5.48778">
        <ele>214.51123046875</ele>
        <time>2016-10-11T13:19:48Z</time>
      </trkpt>
      <trkpt lat="43.37125" lon="5.48768">
        <ele>215.95324707031</ele>
        <time>2016-10-11T13:19:58Z</time>
      </trkpt>
      <trkpt lat="43.37116" lon="5.48748">
        <ele>215.47265625</ele>
        <time>2016-10-11T13:20:12Z</time>
      </trkpt>
      <trkpt lat="43.37112" lon="5.48742">
        <ele>214.03063964844</ele>
        <time>2016-10-11T13:20:17Z</time>
      </trkpt>
      <trkpt lat="43.37095" lon="5.48731">
        <ele>211.14672851562</ele>
        <time>2016-10-11T13:20:33Z</time>
      </trkpt>
      <trkpt lat="43.37088" lon="5.48734">
        <ele>210.666015625</ele>
        <time>2016-10-11T13:20:41Z</time>
      </trkpt>
      <trkpt lat="43.37072" lon="5.48749">
        <ele>208.74340820312</ele>
        <time>2016-10-11T13:20:55Z</time>
      </trkpt>
      <trkpt lat="43.37061" lon="5.48755">
        <ele>207.78210449219</ele>
        <time>2016-10-11T13:21:07Z</time>
      </trkpt>
      <trkpt lat="43.37051" lon="5.48754">
        <ele>206.34008789062</ele>
        <time>2016-10-11T13:21:16Z</time>
      </trkpt>
      <trkpt lat="43.3703" lon="5.48742">
        <ele>202.49487304688</ele>
        <time>2016-10-11T13:21:37Z</time>
      </trkpt>
      <trkpt lat="43.37021" lon="5.48731">
        <ele>202.01428222656</ele>
        <time>2016-10-11T13:21:47Z</time>
      </trkpt>
      <trkpt lat="43.37018" lon="5.48727">
        <ele>201.53356933594</ele>
        <time>2016-10-11T13:21:51Z</time>
      </trkpt>
      <trkpt lat="43.37013" lon="5.48724">
        <ele>201.53356933594</ele>
        <time>2016-10-11T13:21:55Z</time>
      </trkpt>
      <trkpt lat="43.37009" lon="5.48723">
        <ele>200.572265625</ele>
        <time>2016-10-11T13:22:00Z</time>
      </trkpt>
      <trkpt lat="43.37003" lon="5.4873">
        <ele>200.09167480469</ele>
        <time>2016-10-11T13:22:08Z</time>
      </trkpt>
      <trkpt lat="43.36996" lon="5.48735">
        <ele>199.61083984375</ele>
        <time>2016-10-11T13:22:18Z</time>
      </trkpt>
      <trkpt lat="43.3698" lon="5.48741">
        <ele>198.1689453125</ele>
        <time>2016-10-11T13:22:34Z</time>
      </trkpt>
      <trkpt lat="43.36973" lon="5.48742">
        <ele>197.68823242188</ele>
        <time>2016-10-11T13:22:41Z</time>
      </trkpt>
      <trkpt lat="43.36969" lon="5.48744">
        <ele>197.20751953125</ele>
        <time>2016-10-11T13:22:44Z</time>
      </trkpt>
      <trkpt lat="43.36966" lon="5.48742">
        <ele>196.72692871094</ele>
        <time>2016-10-11T13:22:47Z</time>
      </trkpt>
      <trkpt lat="43.36946" lon="5.48742">
        <ele>195.28491210938</ele>
        <time>2016-10-11T13:23:01Z</time>
      </trkpt>
      <trkpt lat="43.36937" lon="5.48727">
        <ele>197.20751953125</ele>
        <time>2016-10-11T13:23:14Z</time>
      </trkpt>
      <trkpt lat="43.36934" lon="5.48723">
        <ele>197.68823242188</ele>
        <time>2016-10-11T13:23:17Z</time>
      </trkpt>
      <trkpt lat="43.36932" lon="5.48716">
        <ele>198.1689453125</ele>
        <time>2016-10-11T13:23:22Z</time>
      </trkpt>
      <trkpt lat="43.36922" lon="5.48708">
        <ele>199.61083984375</ele>
        <time>2016-10-11T13:23:30Z</time>
      </trkpt>
      <trkpt lat="43.36931" lon="5.48682">
        <ele>202.97546386719</ele>
        <time>2016-10-11T13:23:43Z</time>
      </trkpt>
      <trkpt lat="43.3693" lon="5.48682">
        <ele>203.45617675781</ele>
        <time>2016-10-11T13:23:44Z</time>
      </trkpt>
      <trkpt lat="43.36929" lon="5.48678">
        <ele>203.45617675781</ele>
        <time>2016-10-11T13:23:47Z</time>
      </trkpt>
      <trkpt lat="43.36929" lon="5.48675">
        <ele>203.93688964844</ele>
        <time>2016-10-11T13:23:49Z</time>
      </trkpt>
      <trkpt lat="43.36924" lon="5.48661">
        <ele>205.85949707031</ele>
        <time>2016-10-11T13:24:00Z</time>
      </trkpt>
      <trkpt lat="43.36923" lon="5.48658">
        <ele>205.85949707031</ele>
        <time>2016-10-11T13:24:02Z</time>
      </trkpt>
      <trkpt lat="43.36911" lon="5.48639">
        <ele>212.58862304688</ele>
        <time>2016-10-11T13:24:17Z</time>
      </trkpt>
      <trkpt lat="43.36905" lon="5.4862">
        <ele>206.82067871094</ele>
        <time>2016-10-11T13:24:30Z</time>
      </trkpt>
      <trkpt lat="43.36902" lon="5.48616">
        <ele>205.37878417969</ele>
        <time>2016-10-11T13:24:34Z</time>
      </trkpt>
      <trkpt lat="43.36893" lon="5.48613">
        <ele>198.64953613281</ele>
        <time>2016-10-11T13:24:44Z</time>
      </trkpt>
      <trkpt lat="43.36892" lon="5.48614">
        <ele>197.20751953125</ele>
        <time>2016-10-11T13:24:46Z</time>
      </trkpt>
      <trkpt lat="43.3688" lon="5.4862">
        <ele>193.3623046875</ele>
        <time>2016-10-11T13:24:57Z</time>
      </trkpt>
      <trkpt lat="43.36871" lon="5.48619">
        <ele>189.99768066406</ele>
        <time>2016-10-11T13:25:05Z</time>
      </trkpt>
      <trkpt lat="43.36868" lon="5.48617">
        <ele>188.55578613281</ele>
        <time>2016-10-11T13:25:08Z</time>
      </trkpt>
      <trkpt lat="43.36864" lon="5.48616">
        <ele>186.63317871094</ele>
        <time>2016-10-11T13:25:12Z</time>
      </trkpt>
      <trkpt lat="43.36845" lon="5.48602">
        <ele>180.865234375</ele>
        <time>2016-10-11T13:25:30Z</time>
      </trkpt>
      <trkpt lat="43.36844" lon="5.48602">
        <ele>180.38452148438</ele>
        <time>2016-10-11T13:25:31Z</time>
      </trkpt>
      <trkpt lat="43.36836" lon="5.48599">
        <ele>178.4619140625</ele>
        <time>2016-10-11T13:25:38Z</time>
      </trkpt>
      <trkpt lat="43.36827" lon="5.4859">
        <ele>177.02001953125</ele>
        <time>2016-10-11T13:25:47Z</time>
      </trkpt>
      <trkpt lat="43.36824" lon="5.48589">
        <ele>177.02001953125</ele>
        <time>2016-10-11T13:25:49Z</time>
      </trkpt>
      <trkpt lat="43.36823" lon="5.48586">
        <ele>177.02001953125</ele>
        <time>2016-10-11T13:25:51Z</time>
      </trkpt>
      <trkpt lat="43.36806" lon="5.48574">
        <ele>179.42321777344</ele>
        <time>2016-10-11T13:26:08Z</time>
      </trkpt>
      <trkpt lat="43.36803" lon="5.4857">
        <ele>180.38452148438</ele>
        <time>2016-10-11T13:26:13Z</time>
      </trkpt>
      <trkpt lat="43.36794" lon="5.48572">
        <ele>181.82641601562</ele>
        <time>2016-10-11T13:26:26Z</time>
      </trkpt>
      <trkpt lat="43.36786" lon="5.48579">
        <ele>181.82641601562</ele>
        <time>2016-10-11T13:26:37Z</time>
      </trkpt>
      <trkpt lat="43.36785" lon="5.4858">
        <ele>181.82641601562</ele>
        <time>2016-10-11T13:26:39Z</time>
      </trkpt>
      <trkpt lat="43.3677" lon="5.4859">
        <ele>182.30712890625</ele>
        <time>2016-10-11T13:26:58Z</time>
      </trkpt>
      <trkpt lat="43.3675" lon="5.48607">
        <ele>182.30712890625</ele>
        <time>2016-10-11T13:27:16Z</time>
      </trkpt>
      <trkpt lat="43.36748" lon="5.48609">
        <ele>182.30712890625</ele>
        <time>2016-10-11T13:27:18Z</time>
      </trkpt>
      <trkpt lat="43.36732" lon="5.48626">
        <ele>180.38452148438</ele>
        <time>2016-10-11T13:27:36Z</time>
      </trkpt>
      <trkpt lat="43.3673" lon="5.48641">
        <ele>177.98120117188</ele>
        <time>2016-10-11T13:27:50Z</time>
      </trkpt>
      <trkpt lat="43.36724" lon="5.48669">
        <ele>178.4619140625</ele>
        <time>2016-10-11T13:28:05Z</time>
      </trkpt>
      <trkpt lat="43.36722" lon="5.48676">
        <ele>177.98120117188</ele>
        <time>2016-10-11T13:28:10Z</time>
      </trkpt>
      <trkpt lat="43.36719" lon="5.48683">
        <ele>177.02001953125</ele>
        <time>2016-10-11T13:28:15Z</time>
      </trkpt>
      <trkpt lat="43.3672" lon="5.48687">
        <ele>178.4619140625</ele>
        <time>2016-10-11T13:28:19Z</time>
      </trkpt>
      <trkpt lat="43.36705" lon="5.48714">
        <ele>180.38452148438</ele>
        <time>2016-10-11T13:28:40Z</time>
      </trkpt>
      <trkpt lat="43.36688" lon="5.48731">
        <ele>182.78784179688</ele>
        <time>2016-10-11T13:28:57Z</time>
      </trkpt>
      <trkpt lat="43.36686" lon="5.48738">
        <ele>182.30712890625</ele>
        <time>2016-10-11T13:29:03Z</time>
      </trkpt>
      <trkpt lat="43.36667" lon="5.48769">
        <ele>182.30712890625</ele>
        <time>2016-10-11T13:29:26Z</time>
      </trkpt>
      <trkpt lat="43.36663" lon="5.48773">
        <ele>181.34582519531</ele>
        <time>2016-10-11T13:29:31Z</time>
      </trkpt>
      <trkpt lat="43.36658" lon="5.48778">
        <ele>180.865234375</ele>
        <time>2016-10-11T13:29:35Z</time>
      </trkpt>
      <trkpt lat="43.36641" lon="5.48802">
        <ele>177.98120117188</ele>
        <time>2016-10-11T13:29:55Z</time>
      </trkpt>
      <trkpt lat="43.36636" lon="5.4881">
        <ele>177.02001953125</ele>
        <time>2016-10-11T13:30:04Z</time>
      </trkpt>
      <trkpt lat="43.36632" lon="5.48817">
        <ele>176.53930664062</ele>
        <time>2016-10-11T13:30:11Z</time>
      </trkpt>
      <trkpt lat="43.36629" lon="5.48824">
        <ele>177.50061035156</ele>
        <time>2016-10-11T13:30:16Z</time>
      </trkpt>
      <trkpt lat="43.36617" lon="5.48836">
        <ele>175.09729003906</ele>
        <time>2016-10-11T13:30:29Z</time>
      </trkpt>
      <trkpt lat="43.36615" lon="5.48839">
        <ele>175.09729003906</ele>
        <time>2016-10-11T13:30:32Z</time>
      </trkpt>
      <trkpt lat="43.3661" lon="5.4884">
        <ele>174.61657714844</ele>
        <time>2016-10-11T13:30:36Z</time>
      </trkpt>
      <trkpt lat="43.36606" lon="5.4884">
        <ele>173.17468261719</ele>
        <time>2016-10-11T13:30:40Z</time>
      </trkpt>
      <trkpt lat="43.36595" lon="5.48844">
        <ele>170.29064941406</ele>
        <time>2016-10-11T13:30:49Z</time>
      </trkpt>
      <trkpt lat="43.36587" lon="5.48846">
        <ele>167.88732910156</ele>
        <time>2016-10-11T13:30:58Z</time>
      </trkpt>
      <trkpt lat="43.36583" lon="5.48848">
        <ele>166.92602539062</ele>
        <time>2016-10-11T13:31:03Z</time>
      </trkpt>
      <trkpt lat="43.36575" lon="5.48854">
        <ele>165.00341796875</ele>
        <time>2016-10-11T13:31:10Z</time>
      </trkpt>
      <trkpt lat="43.36573" lon="5.48856">
        <ele>164.52270507812</ele>
        <time>2016-10-11T13:31:12Z</time>
      </trkpt>
      <trkpt lat="43.36566" lon="5.48857">
        <ele>165.00341796875</ele>
        <time>2016-10-11T13:31:18Z</time>
      </trkpt>
      <trkpt lat="43.36559" lon="5.48866">
        <ele>163.5615234375</ele>
        <time>2016-10-11T13:31:25Z</time>
      </trkpt>
      <trkpt lat="43.36546" lon="5.48867">
        <ele>164.52270507812</ele>
        <time>2016-10-11T13:31:39Z</time>
      </trkpt>
      <trkpt lat="43.36544" lon="5.48869">
        <ele>165.48413085938</ele>
        <time>2016-10-11T13:31:54Z</time>
      </trkpt>
      <trkpt lat="43.36537" lon="5.48874">
        <ele>168.36804199219</ele>
        <time>2016-10-11T13:32:05Z</time>
      </trkpt>
      <trkpt lat="43.36535" lon="5.48876">
        <ele>168.36804199219</ele>
        <time>2016-10-11T13:32:07Z</time>
      </trkpt>
      <trkpt lat="43.36528" lon="5.48877">
        <ele>169.81005859375</ele>
        <time>2016-10-11T13:32:27Z</time>
      </trkpt>
      <trkpt lat="43.36522" lon="5.48881">
        <ele>168.84875488281</ele>
        <time>2016-10-11T13:32:58Z</time>
      </trkpt>
      <trkpt lat="43.3652" lon="5.48883">
        <ele>169.32946777344</ele>
        <time>2016-10-11T13:33:14Z</time>
      </trkpt>
      <trkpt lat="43.36501" lon="5.48894">
        <ele>170.29064941406</ele>
        <time>2016-10-11T13:33:30Z</time>
      </trkpt>
      <trkpt lat="43.36487" lon="5.48899">
        <ele>168.36804199219</ele>
        <time>2016-10-11T13:33:43Z</time>
      </trkpt>
      <trkpt lat="43.36477" lon="5.48899">
        <ele>169.32946777344</ele>
        <time>2016-10-11T13:33:54Z</time>
      </trkpt>
      <trkpt lat="43.36465" lon="5.48899">
        <ele>173.17468261719</ele>
        <time>2016-10-11T13:34:05Z</time>
      </trkpt>
      <trkpt lat="43.36455" lon="5.48895">
        <ele>177.50061035156</ele>
        <time>2016-10-11T13:34:15Z</time>
      </trkpt>
      <trkpt lat="43.36432" lon="5.48896">
        <ele>180.38452148438</ele>
        <time>2016-10-11T13:34:37Z</time>
      </trkpt>
      <trkpt lat="43.36413" lon="5.48901">
        <ele>179.90380859375</ele>
        <time>2016-10-11T13:34:57Z</time>
      </trkpt>
      <trkpt lat="43.36396" lon="5.48903">
        <ele>179.42321777344</ele>
        <time>2016-10-11T13:35:12Z</time>
      </trkpt>
      <trkpt lat="43.36394" lon="5.48904">
        <ele>179.42321777344</ele>
        <time>2016-10-11T13:35:14Z</time>
      </trkpt>
      <trkpt lat="43.36374" lon="5.48905">
        <ele>179.90380859375</ele>
        <time>2016-10-11T13:35:33Z</time>
      </trkpt>
      <trkpt lat="43.36365" lon="5.48906">
        <ele>179.90380859375</ele>
        <time>2016-10-11T13:35:41Z</time>
      </trkpt>
      <trkpt lat="43.36362" lon="5.48907">
        <ele>179.42321777344</ele>
        <time>2016-10-11T13:35:44Z</time>
      </trkpt>
      <trkpt lat="43.3634" lon="5.489">
        <ele>178.94262695312</ele>
        <time>2016-10-11T13:36:03Z</time>
      </trkpt>
      <trkpt lat="43.36339" lon="5.489">
        <ele>178.94262695312</ele>
        <time>2016-10-11T13:36:04Z</time>
      </trkpt>
      <trkpt lat="43.36323" lon="5.48903">
        <ele>177.50061035156</ele>
        <time>2016-10-11T13:36:18Z</time>
      </trkpt>
      <trkpt lat="43.36316" lon="5.48926">
        <ele>178.4619140625</ele>
        <time>2016-10-11T13:36:33Z</time>
      </trkpt>
      <trkpt lat="43.36317" lon="5.48935">
        <ele>178.4619140625</ele>
        <time>2016-10-11T13:36:37Z</time>
      </trkpt>
      <trkpt lat="43.36321" lon="5.48944">
        <ele>178.94262695312</ele>
        <time>2016-10-11T13:36:43Z</time>
      </trkpt>
      <trkpt lat="43.36329" lon="5.4896">
        <ele>183.26843261719</ele>
        <time>2016-10-11T13:36:56Z</time>
      </trkpt>
      <trkpt lat="43.3633" lon="5.48969">
        <ele>182.78784179688</ele>
        <time>2016-10-11T13:37:01Z</time>
      </trkpt>
      <trkpt lat="43.36337" lon="5.48996">
        <ele>179.42321777344</ele>
        <time>2016-10-11T13:37:17Z</time>
      </trkpt>
      <trkpt lat="43.36346" lon="5.4902">
        <ele>179.42321777344</ele>
        <time>2016-10-11T13:37:35Z</time>
      </trkpt>
      <trkpt lat="43.36347" lon="5.49028">
        <ele>179.90380859375</ele>
        <time>2016-10-11T13:37:39Z</time>
      </trkpt>
      <trkpt lat="43.36342" lon="5.49041">
        <ele>181.34582519531</ele>
        <time>2016-10-11T13:37:49Z</time>
      </trkpt>
      <trkpt lat="43.36329" lon="5.49058">
        <ele>178.4619140625</ele>
        <time>2016-10-11T13:38:05Z</time>
      </trkpt>
      <trkpt lat="43.36323" lon="5.49063">
        <ele>177.98120117188</ele>
        <time>2016-10-11T13:38:11Z</time>
      </trkpt>
      <trkpt lat="43.36317" lon="5.49069">
        <ele>178.94262695312</ele>
        <time>2016-10-11T13:38:19Z</time>
      </trkpt>
      <trkpt lat="43.36314" lon="5.49072">
        <ele>177.98120117188</ele>
        <time>2016-10-11T13:38:37Z</time>
      </trkpt>
      <trkpt lat="43.36314" lon="5.4907">
        <ele>177.50061035156</ele>
        <time>2016-10-11T13:38:56Z</time>
      </trkpt>
      <trkpt lat="43.36318" lon="5.49068">
        <ele>177.02001953125</ele>
        <time>2016-10-11T13:39:11Z</time>
      </trkpt>
    </trkseg>
  </trk>
</gpx>